[[{"header":{"parameterUnit":"m.s-1","parameterCategory":1,"la1":30.6,"la2":28.766,"lo1":-90.7593,"lo2":-88.6598,"dy":0.0162,"dx":0.0183,"nx":116,"ny":114,"refTime":"2023-08-12T12:00:00:Z","depth":0,"parameterNumber":2,"parameterNumberName":"U-component_of_WINDS"},"data":[0.0,0.0,0.0,0.0,0.0,0.0,0.0,0.0,0.0,0.0,0.0,0.0,0.0,0.0,0.0,0.0,0.0,0.0,0.0,0.0,0.0,0.0,0.0,0.0,0.0,0.0,0.0,0.0,0.0,0.0,0.0,0.0,0.0,0.0,0.0,0.0,0.0,0.0,0.0,0.0,0.0,0.0,0.0,0.0,0.0,0.0,0.0,0.0,0.0,0.0,0.0,0.0,0.0,0.0,0.0,0.0,0.0,0.0,0.0,0.0,0.0,0.0,0.0,0.0,0.0,0.0,0.0,0.0,0.0,0.0,0.0,0.0,0.0,0.0,0.0,0.0,0.0,0.0,0.0,0.0,0.0,0.0,0.0,0.0,0.0,0.0,0.0,0.0,0.0,0.0,0.0,0.0,0.0,0.0,0.0,0.0,0.0,0.0,0.0,0.0,0.0,0.0,0.0,0.0,0.0,0.0,0.0,0.0,0.0,0.0,0.0,0.0,0.0,0.0,0.0,0.0,0.0,0.0,0.0,0.0,0.0,0.0,0.0,0.0,0.0,0.0,0.0,0.0,0.0,0.0,0.0,0.0,0.0,0.0,0.0,0.0,0.0,0.0,0.0,0.0,0.0,0.0,0.0,0.0,0.0,0.0,0.0,0.0,0.0,0.0,0.0,0.0,0.0,0.0,0.0,0.0,0.0,0.0,0.0,0.0,0.0,0.0,0.0,0.0,0.0,0.0,0.0,0.0,0.0,0.0,0.0,0.0,0.0,0.0,0.0,0.0,0.0,0.0,0.0,0.0,0.0,0.0,0.0,0.0,0.0,0.0,0.0,0.0,0.0,0.0,0.0,0.0,0.0,0.0,0.0,0.0,0.0,0.0,0.0,0.0,0.0,0.0,0.0,0.0,0.0,0.0,0.0,0.0,0.0,0.0,0.0,0.0,0.0,0.0,0.0,0.0,0.0,0.0,0.0,0.0,0.0,0.0,0.0,0.0,0.0,0.0,0.0,0.0,0.0,0.0,0.0,0.0,0.0,0.0,0.0,0.0,0.0,0.0,0.0,0.0,0.0,0.0,0.0,0.0,0.0,0.0,0.0,0.0,0.0,0.0,0.0,0.0,0.0,0.0,0.0,0.0,0.0,0.0,0.0,0.0,0.0,0.0,0.0,0.0,0.0,0.0,0.0,0.0,0.0,0.0,0.0,0.0,0.0,0.0,0.0,0.0,0.0,0.0,0.0,0.0,0.0,0.0,0.0,0.0,0.0,0.0,0.0,0.0,0.0,0.0,0.0,0.0,0.0,0.0,0.0,0.0,0.0,0.0,0.0,0.0,0.0,0.0,0.0,0.0,0.0,0.0,0.0,0.0,0.0,0.0,0.0,0.0,0.0,0.0,0.0,0.0,0.0,0.0,0.0,0.0,0.0,0.0,0.0,0.0,0.0,0.0,0.0,0.0,0.0,0.0,0.0,0.0,0.0,0.0,0.0,0.0,0.0,0.0,0.0,0.0,0.0,0.0,0.0,0.0,0.0,0.0,0.0,0.0,0.0,0.0,0.0,0.0,0.0,0.0,0.0,0.0,0.0,0.0,0.0,0.0,0.0,0.0,0.0,0.0,0.0,0.0,0.0,0.0,0.0,0.0,0.0,0.0,0.0,0.0,0.0,0.0,0.0,0.0,0.0,0.0,0.0,0.0,0.0,0.0,0.0,0.0,0.0,0.0,0.0,0.0,0.0,0.0,0.0,0.0,0.0,0.0,0.0,0.0,0.0,0.0,0.0,0.0,0.0,0.0,0.0,0.0,0.0,0.0,0.0,0.0,0.0,0.0,0.0,0.0,0.0,0.0,0.0,0.0,0.0,0.0,0.0,0.0,0.0,0.0,0.0,0.0,0.0,0.0,0.0,0.0,0.0,0.0,0.0,0.0,0.0,0.0,0.0,0.0,0.0,0.0,0.0,0.0,0.0,0.0,0.0,0.0,0.0,0.0,0.0,0.0,0.0,0.0,0.0,0.0,0.0,0.0,0.0,0.0,0.0,0.0,0.0,0.0,0.0,0.0,0.0,0.0,0.0,0.0,0.0,0.0,0.0,0.0,0.0,0.0,0.0,0.0,0.0,0.0,0.0,0.0,0.0,0.0,0.0,0.0,0.0,0.0,0.0,0.0,0.0,0.0,0.0,0.0,0.0,0.0,0.0,0.0,0.0,0.0,0.0,0.0,0.0,0.0,0.0,0.0,0.0,0.0,0.0,0.0,0.0,0.0,0.0,0.0,0.0,0.0,0.0,0.0,0.0,0.0,0.0,0.0,0.0,0.0,0.0,0.0,0.0,0.0,0.0,0.0,0.0,0.0,0.0,0.0,0.0,0.0,0.0,0.0,0.0,0.0,0.0,0.0,0.0,0.0,0.0,0.0,0.0,0.0,0.0,0.0,0.0,0.0,0.0,0.0,0.0,0.0,0.0,0.0,0.0,0.0,0.0,0.0,0.0,0.0,0.0,0.0,0.0,0.0,0.0,0.0,0.0,0.0,0.0,0.0,0.0,0.0,0.0,0.0,0.0,0.0,0.0,0.0,0.0,0.0,0.0,0.0,0.0,0.0,0.0,0.0,0.0,0.0,0.0,0.0,0.0,0.0,0.0,0.0,0.0,0.0,0.0,0.0,0.0,0.0,0.0,0.0,0.0,0.0,0.0,0.0,0.0,0.0,0.0,0.0,0.0,0.0,0.0,0.0,0.0,0.0,0.0,0.0,0.0,0.0,0.0,0.0,0.0,0.0,0.0,0.0,0.0,0.0,0.0,0.0,0.0,0.0,0.0,0.0,0.0,0.0,0.0,0.0,0.0,0.0,0.0,0.0,0.0,0.0,0.0,0.0,0.0,0.0,0.0,0.0,0.0,0.0,0.0,0.0,0.0,0.0,0.0,0.0,0.0,0.0,0.0,0.0,0.0,0.0,0.0,0.0,0.0,0.0,0.0,0.0,0.0,0.0,0.0,0.0,0.0,0.0,0.0,0.0,0.0,0.0,0.0,0.0,0.0,0.0,0.0,0.0,0.0,0.0,0.0,0.0,0.0,0.0,0.0,0.0,0.0,0.0,0.0,0.0,0.0,0.0,0.0,0.0,0.0,0.0,0.0,0.0,0.0,0.0,0.0,0.0,0.0,0.0,0.0,0.0,0.0,0.0,0.0,0.0,0.0,0.0,0.0,0.0,0.0,0.0,0.0,0.0,0.0,0.0,0.0,0.0,0.0,0.0,0.0,0.0,0.0,0.0,0.0,0.0,0.0,0.0,0.0,0.0,0.0,0.0,0.0,0.0,0.0,0.0,0.0,0.0,0.0,0.0,0.0,0.0,0.0,0.0,0.0,0.0,0.0,0.0,0.0,0.0,0.0,0.0,0.0,0.0,0.0,0.0,0.0,0.0,0.0,0.0,0.0,0.0,0.0,0.0,0.0,0.0,0.0,0.0,0.0,0.0,0.0,0.0,0.0,0.0,0.0,0.0,0.0,0.0,0.0,0.0,0.0,0.0,0.0,0.0,0.0,0.0,0.0,0.0,0.0,0.0,0.0,0.0,0.0,0.0,0.0,0.0,0.0,0.0,0.0,0.0,0.0,0.0,0.0,0.0,0.0,0.0,0.0,0.0,0.0,0.0,0.0,0.0,0.0,0.0,0.0,0.0,0.0,0.0,0.0,0.0,0.0,0.0,0.0,0.0,0.0,0.0,0.0,0.0,0.0,0.0,0.0,0.0,0.0,0.0,0.0,0.0,0.0,0.0,0.0,0.0,0.0,0.0,0.0,0.0,0.0,0.0,0.0,0.0,0.0,0.0,0.0,0.0,0.0,0.0,0.0,0.0,0.0,0.0,0.0,0.0,0.0,0.0,0.0,0.0,0.0,0.0,0.0,0.0,0.0,0.0,0.0,0.0,0.0,0.0,0.0,0.0,0.0,0.0,0.0,0.0,0.0,0.0,0.0,0.0,0.0,0.0,0.0,0.0,0.0,0.0,0.0,0.0,0.0,0.0,0.0,0.0,0.0,0.0,0.0,0.0,0.0,0.0,0.0,0.0,0.0,0.0,0.0,0.0,0.0,0.0,0.0,0.0,0.0,0.0,0.0,0.0,0.0,0.0,0.0,0.0,0.0,0.0,0.0,0.0,0.0,0.0,0.0,0.0,0.0,0.0,0.0,0.0,0.0,0.0,0.0,0.0,0.0,0.0,0.0,0.0,0.0,0.0,0.0,0.0,0.0,0.0,0.0,0.0,0.0,0.0,0.0,0.0,0.0,0.0,0.0,0.0,0.0,0.0,0.0,0.0,0.0,0.0,0.0,0.0,0.0,0.0,0.0,0.0,0.0,0.0,0.0,0.0,0.0,0.0,0.0,0.0,0.0,0.0,0.0,0.0,0.0,0.0,0.0,0.0,0.0,0.0,0.0,0.0,0.0,0.0,0.0,0.0,0.0,0.0,0.0,0.0,0.0,0.0,0.0,0.0,0.0,0.0,0.0,0.0,0.0,0.0,0.0,0.0,0.0,0.0,0.0,0.0,0.0,0.0,0.0,0.0,0.0,0.0,0.0,0.0,0.0,0.0,0.0,0.0,0.0,0.0,0.0,0.0,0.0,0.0,0.0,0.0,0.0,0.0,0.0,0.0,0.0,0.0,0.0,0.0,0.0,0.0,0.0,0.0,0.0,0.0,0.0,0.0,0.0,0.0,0.0,0.0,0.0,0.0,0.0,0.0,0.0,0.0,0.0,0.0,0.0,0.0,0.0,0.0,0.0,0.0,0.0,0.0,0.0,0.0,0.0,0.0,0.0,0.0,0.0,0.0,0.0,0.0,0.0,0.0,0.0,0.0,0.0,0.0,0.0,0.0,0.0,0.0,0.0,0.0,0.0,0.0,0.0,0.0,0.0,0.0,0.0,0.0,0.0,0.0,0.0,0.0,0.0,0.0,0.0,0.0,0.0,0.0,0.0,0.0,0.0,0.0,0.0,0.0,0.0,0.0,0.0,0.0,0.0,0.0,0.0,0.0,0.0,0.0,0.0,0.0,0.0,0.0,0.0,0.0,0.0,0.0,0.0,0.0,0.0,0.0,0.0,0.0,0.0,0.0,0.0,0.0,0.0,0.0,0.0,0.0,0.0,0.0,0.0,0.0,0.0,0.0,0.0,0.0,0.0,0.0,0.0,0.0,0.0,0.0,0.0,0.0,0.0,0.0,0.0,0.0,0.0,0.0,0.0,0.0,0.0,0.0,0.0,0.0,0.0,0.0,0.0,0.0,0.0,0.0,0.0,0.0,0.0,0.0,0.0,0.0,0.0,0.0,0.0,0.0,0.0,0.0,0.0,0.0,0.0,0.0,0.0,0.0,0.0,0.0,0.0,0.0,0.0,0.0,0.0,0.0,0.0,0.0,0.0,0.0,0.0,0.0,0.0,0.0,0.0,0.0,0.0,0.0,0.0,0.0,0.0,0.0,0.0,0.0,0.0,0.0,0.0,0.0,0.0,0.0,0.0,0.0,0.0,0.0,0.0,0.0,0.0,0.0,0.0,0.0,0.0,0.0,0.0,0.0,0.0,0.0,0.0,0.0,0.0,0.0,0.0,0.0,0.0,0.0,0.0,0.0,0.0,0.0,0.0,0.0,0.0,0.0,0.0,0.0,0.0,0.0,0.0,0.0,0.0,0.0,0.0,0.0,0.0,0.0,0.0,0.0,0.0,0.0,0.0,0.0,0.0,0.0,0.0,0.0,0.0,0.0,0.0,0.0,0.0,0.0,0.0,0.0,0.0,0.0,0.0,0.0,0.0,0.0,0.0,0.0,0.0,0.0,0.0,0.0,0.0,0.0,0.0,0.0,0.0,0.0,0.0,0.0,0.0,0.0,0.0,0.0,0.0,0.0,0.0,0.0,0.0,0.0,0.0,0.0,0.0,0.0,0.0,0.0,0.0,0.0,0.0,0.0,0.0,0.0,0.0,0.0,0.0,0.0,0.0,0.0,0.0,0.0,0.0,0.0,0.0,0.0,0.0,0.0,0.0,0.0,0.0,0.0,0.0,0.0,0.0,0.0,0.0,0.0,0.0,0.0,0.0,0.0,0.0,0.0,0.0,0.0,-1.8811,0.0,0.0,0.0,0.0,0.0,0.0,0.0,0.0,0.0,0.0,0.0,0.0,0.0,0.0,0.0,0.0,0.0,0.0,0.0,0.0,0.0,0.0,0.0,0.0,0.0,0.0,0.0,0.0,0.0,0.0,0.0,0.0,0.0,0.0,0.0,0.0,0.0,0.0,0.0,0.0,0.0,0.0,0.0,0.0,0.0,0.0,0.0,0.0,0.0,0.0,0.0,0.0,0.0,0.0,0.0,0.0,0.0,0.0,0.0,0.0,0.0,0.0,0.0,0.0,0.0,0.0,0.0,0.0,0.0,0.0,0.0,0.0,0.0,0.0,0.0,0.0,0.0,0.0,0.0,0.0,0.0,0.0,0.0,0.0,0.0,0.0,0.0,0.0,0.0,0.0,0.0,0.0,0.0,0.0,0.0,0.0,0.0,0.0,0.0,0.0,0.0,0.0,0.0,0.0,0.0,0.0,0.0,0.0,0.0,0.0,0.0,0.0,0.0,0.0,0.0,0.0,-1.966,0.0,0.0,0.0,0.0,0.0,0.0,0.0,0.0,0.0,0.0,0.0,0.0,0.0,0.0,0.0,0.0,0.0,0.0,0.0,0.0,0.0,0.0,0.0,0.0,0.0,0.0,0.0,0.0,0.0,0.0,0.0,0.0,0.0,0.0,0.0,0.0,0.0,0.0,0.0,0.0,0.0,0.0,0.0,0.0,0.0,0.0,0.0,0.0,0.0,0.0,0.0,0.0,0.0,0.0,0.0,0.0,0.0,0.0,0.0,0.0,0.0,0.0,0.0,0.0,0.0,0.0,0.0,0.0,0.0,0.0,0.0,0.0,0.0,0.0,0.0,0.0,0.0,0.0,0.0,0.0,0.0,0.0,0.0,0.0,0.0,0.0,0.0,0.0,0.0,0.0,0.0,0.0,0.0,0.0,0.0,0.0,0.0,0.0,0.0,0.0,0.0,0.0,0.0,0.0,0.0,0.0,0.0,0.0,-2.0701,-2.0645,-2.0504,-2.1493,-2.2009,-2.2137,-2.322,-2.279,-2.1288,-2.109,0.0,0.0,0.0,0.0,0.0,0.0,0.0,0.0,0.0,0.0,0.0,0.0,0.0,0.0,0.0,0.0,0.0,0.0,0.0,0.0,0.0,0.0,0.0,0.0,0.0,0.0,0.0,0.0,0.0,0.0,0.0,0.0,0.0,0.0,0.0,0.0,0.0,0.0,-1.5908,-1.736,-1.8338,-1.8817,0.0,0.0,0.0,0.0,0.0,0.0,0.0,0.0,0.0,0.0,0.0,0.0,0.0,0.0,0.0,0.0,0.0,0.0,0.0,0.0,0.0,0.0,0.0,0.0,0.0,0.0,0.0,0.0,0.0,0.0,0.0,0.0,0.0,0.0,0.0,0.0,0.0,0.0,0.0,0.0,0.0,0.0,0.0,0.0,-1.5204,-1.5487,0.0,0.0,0.0,0.0,0.0,0.0,0.0,0.0,0.0,0.0,0.0,0.0,0.0,-2.0181,-1.9728,-2.2552,-2.3724,-2.3307,-2.5983,-2.6409,-2.4791,-2.575,-2.6543,-2.7156,-2.7196,0.0,-2.2513,-2.3095,0.0,0.0,0.0,0.0,0.0,0.0,0.0,0.0,0.0,0.0,0.0,0.0,0.0,0.0,0.0,0.0,0.0,0.0,0.0,0.0,0.0,0.0,0.0,0.0,0.0,0.0,0.0,0.0,0.0,0.0,0.0,0.0,0.0,0.0,0.0,0.0,-1.5484,-1.6067,-1.7421,-1.786,-1.8723,-1.9864,-1.9852,-2.0049,-2.0319,-1.9509,0.0,0.0,0.0,0.0,0.0,0.0,0.0,0.0,0.0,0.0,0.0,0.0,0.0,0.0,0.0,0.0,0.0,0.0,0.0,0.0,0.0,0.0,0.0,0.0,0.0,0.0,0.0,0.0,0.0,0.0,0.0,0.0,0.0,0.0,0.0,0.0,0.0,0.0,0.0,-1.4919,-1.5738,-1.5097,-1.6191,-1.6788,0.0,0.0,0.0,0.0,0.0,0.0,0.0,0.0,0.0,-1.9962,-2.1477,-2.2321,-2.2337,-2.4305,-2.5391,-2.556,-2.6441,-2.6866,-2.6856,-2.7249,-2.8221,-2.9548,-2.9809,-2.8942,-2.7211,-2.5921,-2.4748,-2.361,0.0,0.0,0.0,0.0,-2.232,-2.3057,0.0,0.0,0.0,0.0,0.0,0.0,0.0,0.0,0.0,0.0,0.0,0.0,0.0,0.0,0.0,-1.4857,0.0,0.0,0.0,0.0,0.0,0.0,0.0,0.0,0.0,0.0,0.0,0.0,-1.5782,-1.6729,-1.8665,-1.8772,-1.9637,-2.1161,-2.2033,-2.2017,-2.1352,-2.0942,-1.9767,0.0,0.0,0.0,0.0,0.0,0.0,0.0,0.0,0.0,0.0,0.0,0.0,0.0,0.0,0.0,0.0,0.0,0.0,0.0,0.0,0.0,0.0,0.0,0.0,0.0,0.0,0.0,0.0,0.0,0.0,0.0,0.0,0.0,0.0,0.0,0.0,0.0,0.0,-1.5684,-1.6536,-1.5245,-1.6997,-1.7865,0.0,0.0,0.0,0.0,0.0,0.0,-1.9916,-2.1018,-2.1739,-2.2037,-2.3748,-2.4711,-2.4825,-2.5828,-2.6793,-2.7739,-2.7016,-2.7387,-2.8792,-2.8672,-2.9564,-3.1296,-3.1599,-3.1648,-3.1327,-2.8619,-2.6999,-2.6047,-2.3939,-2.3517,-2.4073,-2.442,-2.5107,-2.6101,0.0,0.0,0.0,0.0,0.0,0.0,0.0,0.0,0.0,0.0,0.0,0.0,0.0,0.0,-1.4163,-1.4169,-1.5161,-1.5338,0.0,0.0,0.0,0.0,0.0,0.0,0.0,0.0,0.0,-1.5524,-1.7143,-1.8168,-1.8653,-2.0676,-2.2097,-2.3109,-2.4156,-2.3985,-2.2798,-2.165,-2.0917,-2.0358,0.0,0.0,0.0,0.0,0.0,0.0,0.0,0.0,0.0,0.0,0.0,0.0,0.0,0.0,0.0,0.0,0.0,0.0,0.0,0.0,0.0,0.0,0.0,0.0,0.0,0.0,0.0,0.0,0.0,0.0,0.0,0.0,0.0,0.0,0.0,0.0,0.0,0.0,0.0,-1.6815,-1.8988,0.0,0.0,0.0,0.0,-1.9587,-2.0859,-2.2287,-2.3641,-2.4315,-2.5246,-2.6442,-2.7508,-2.7658,-2.6852,-2.7456,-2.8543,-3.0024,-2.9672,-3.0215,-3.1502,-3.0983,-3.1485,-3.2775,-3.2558,-3.2711,-3.2996,-3.0802,-2.9615,-2.8928,-2.6992,-2.6842,-2.7535,-2.681,-2.7196,-2.8071,0.0,0.0,0.0,0.0,0.0,0.0,0.0,0.0,0.0,0.0,0.0,0.0,0.0,-1.4258,-1.4737,-1.5391,-1.6224,-1.6334,-1.5439,0.0,0.0,0.0,0.0,0.0,0.0,0.0,-1.5751,-1.6728,-1.7748,-1.8944,-2.0314,-2.134,-2.2376,-2.3426,-2.4367,-2.4495,-2.3928,-2.3324,-2.2237,-2.077,-1.9287,-1.7997,0.0,0.0,0.0,0.0,0.0,0.0,0.0,0.0,0.0,0.0,0.0,0.0,0.0,0.0,0.0,0.0,0.0,0.0,0.0,0.0,0.0,0.0,0.0,0.0,0.0,0.0,0.0,0.0,0.0,0.0,0.0,0.0,0.0,0.0,0.0,0.0,0.0,-1.8991,-2.0684,0.0,-2.0737,-2.168,-2.2251,-2.1964,-2.3737,-2.5211,-2.6078,-2.6851,-2.7477,-2.795,-2.8818,-2.9015,-2.8421,-2.9395,-3.0174,-3.0797,-3.0652,-3.1334,-3.2723,-3.2368,-3.3011,-3.439,-3.4102,-3.3875,-3.367,-3.2947,-3.1913,-3.0694,-2.898,-2.8712,-2.9285,-2.8986,-2.932,-2.9943,0.0,0.0,0.0,0.0,0.0,0.0,0.0,0.0,0.0,0.0,0.0,-1.2542,-1.3693,-1.439,-1.5135,-1.6006,-1.664,-1.6566,-1.559,0.0,0.0,0.0,0.0,0.0,0.0,-1.5214,-1.6426,-1.7444,-1.82,-1.9565,-2.1406,-2.1847,-2.2727,-2.3981,-2.4736,-2.4854,-2.4518,-2.4472,-2.3403,-2.162,-2.0517,-1.9483,-1.8396,0.0,0.0,0.0,0.0,0.0,0.0,0.0,0.0,0.0,0.0,0.0,0.0,0.0,0.0,0.0,0.0,0.0,0.0,0.0,0.0,0.0,0.0,0.0,0.0,0.0,0.0,0.0,0.0,0.0,0.0,0.0,0.0,0.0,0.0,0.0,-2.0629,-2.0849,-2.2605,-2.3493,-2.2631,-2.4067,-2.5021,-2.491,-2.6708,-2.8025,-2.8582,-2.9182,-2.9534,-2.9625,-3.016,-3.0236,-2.9862,-3.063,-3.1261,-3.1732,-3.1561,-3.2352,-3.3922,-3.3479,-3.3923,-3.5067,-3.486,-3.4462,-3.3898,-3.398,-3.3212,-3.1841,-3.0795,-3.0482,-3.0657,-3.0657,-3.0828,-3.1113,0.0,0.0,0.0,0.0,0.0,0.0,0.0,0.0,0.0,0.0,-1.1692,-1.2141,-1.2691,-1.4172,-1.5333,-1.5833,-1.6319,-1.6002,-1.4592,-1.4998,0.0,0.0,0.0,0.0,-1.4961,-1.6801,-1.7669,-1.7519,-1.8669,-2.0118,-2.1804,-2.2285,-2.3324,-2.4818,-2.5344,-2.5206,-2.4582,-2.4998,-2.4413,-2.309,-2.2049,-2.1086,-2.0087,0.0,0.0,0.0,0.0,0.0,0.0,0.0,0.0,0.0,0.0,0.0,0.0,0.0,0.0,0.0,0.0,0.0,0.0,0.0,0.0,0.0,0.0,0.0,0.0,0.0,0.0,0.0,0.0,0.0,0.0,0.0,0.0,0.0,-1.9889,-2.1743,-2.2888,-2.2448,-2.482,-2.5898,-2.4491,-2.7152,-2.885,-2.8439,-2.9693,-3.0672,-3.1303,-3.1227,-3.1396,-3.1753,-3.1708,-3.1521,-3.1145,-3.1179,-3.1814,-3.2938,-3.2497,-3.3315,-3.5187,-3.4426,-3.4352,-3.4846,-3.4809,-3.437,-3.3756,-3.3961,-3.3406,-3.2527,-3.2515,-3.2154,-3.1705,-3.1693,-3.1669,-3.1588,0.0,0.0,0.0,0.0,0.0,0.0,0.0,0.0,0.0,0.0,-1.1916,-1.3014,-1.3723,-1.5012,-1.6448,-1.7912,-1.7045,-1.6446,-1.6573,0.0,0.0,0.0,0.0,0.0,-1.555,-1.6342,-1.7061,-1.7669,-1.9044,-2.0337,-2.1594,-2.2366,-2.3553,-2.5093,-2.5105,-2.5263,-2.5491,-2.5274,-2.4977,-2.4498,-2.3006,-2.2173,-2.1629,0.0,0.0,0.0,0.0,0.0,0.0,0.0,0.0,0.0,0.0,0.0,0.0,0.0,0.0,0.0,0.0,0.0,0.0,0.0,0.0,0.0,0.0,0.0,0.0,0.0,0.0,0.0,0.0,0.0,0.0,0.0,0.0,-2.3079,-2.2952,-2.3913,-2.5137,-2.6386,-2.7351,-2.7867,-2.7718,-2.8509,-2.9611,-3.1032,-3.1138,-3.1973,-3.3913,-3.2387,-3.1814,-3.27,-3.2391,-3.2239,-3.2312,-3.3313,-3.3967,-3.4268,-3.4555,-3.5063,-3.5745,-3.5342,-3.5344,-3.5635,-3.5054,-3.4667,-3.4472,-3.4535,-3.4006,-3.3032,-3.2647,-3.2154,-3.1657,-3.1271,-3.0855,-3.0531,0.0,0.0,0.0,0.0,0.0,0.0,0.0,0.0,0.0,0.0,-1.1869,-1.3203,-1.3471,-1.5157,-1.6537,-1.7247,-1.6843,-1.6365,-1.597,0.0,0.0,0.0,0.0,-1.5675,-1.621,-1.6512,-1.7106,-1.796,-1.8997,-2.0116,-2.1386,-2.2233,-2.3464,-2.4893,-2.4903,-2.5317,-2.6031,-2.5541,-2.5389,-2.5408,-2.4303,-2.3747,-2.3332,-2.1496,-2.0739,-2.0502,-1.9124,-1.8643,-1.8525,-1.7604,0.0,0.0,0.0,0.0,0.0,0.0,0.0,0.0,0.0,0.0,0.0,0.0,0.0,0.0,0.0,0.0,0.0,0.0,0.0,0.0,0.0,0.0,0.0,0.0,-2.3455,-2.5586,-2.6267,-2.6682,-2.7327,-2.8594,-2.925,-2.9752,-3.0045,-3.0727,-3.1715,-3.3289,-3.317,-3.3785,-3.5356,-3.4226,-3.3633,-3.3993,-3.3944,-3.378,-3.3467,-3.4354,-3.4775,-3.4775,-3.5136,-3.5499,-3.5976,-3.5716,-3.583,-3.6135,-3.5199,-3.4836,-3.4942,-3.4583,-3.4018,0.0,0.0,0.0,0.0,0.0,-3.0718,-3.0435,0.0,0.0,0.0,0.0,0.0,0.0,0.0,0.0,0.0,0.0,0.0,-1.2932,-1.2549,-1.4731,-1.5963,-1.5383,-1.6037,-1.5787,0.0,0.0,0.0,-1.5638,-1.6599,-1.7005,-1.6822,-1.7005,-1.7483,-1.8271,-1.8676,-1.9686,-2.1265,-2.2036,-2.3144,-2.4509,-2.4965,-2.5615,-2.6368,-2.5921,-2.5855,-2.601,-2.563,-2.5324,-2.4934,-2.3761,-2.3248,-2.2961,-2.1247,-2.0161,-1.9406,-1.8791,0.0,0.0,0.0,0.0,0.0,0.0,0.0,0.0,0.0,0.0,0.0,0.0,0.0,0.0,0.0,0.0,0.0,0.0,0.0,0.0,0.0,0.0,0.0,0.0,-2.587,-2.7824,-2.9692,-2.9872,-2.9809,-2.9855,-3.0768,-3.1529,-3.1923,-3.3257,-3.445,-3.5267,-3.5446,-3.572,-3.6156,0.0,0.0,0.0,0.0,-3.5503,-3.4603,-3.4836,-3.4955,-3.4955,-3.5015,-3.5439,-3.6158,-3.5897,-3.6027,-3.6353,-3.5308,-3.4943,-3.5015,-3.4375,-3.3801,-3.3272,-3.3152,-3.2442,-3.1476,-3.1093,-3.0876,-3.067,0.0,0.0,0.0,0.0,0.0,0.0,0.0,0.0,0.0,-1.0136,-1.1706,-1.2786,-1.2604,-1.3628,-1.4969,-1.6566,-1.5101,-1.4177,0.0,0.0,-1.5365,-1.6572,-1.66,-1.6713,-1.7024,-1.7066,-1.7392,-1.7995,-1.8606,-1.9753,-2.1463,-2.215,-2.3189,-2.456,-2.6031,-2.6856,-2.711,-2.7214,-2.7187,-2.695,-2.5844,-2.5411,-2.5341,-2.4707,-2.4375,-2.4074,-2.3193,-2.3009,-2.3017,-2.1988,-2.1353,-2.0878,-2.0325,0.0,0.0,0.0,0.0,0.0,0.0,0.0,0.0,0.0,0.0,0.0,0.0,0.0,0.0,0.0,0.0,0.0,0.0,0.0,0.0,-2.557,-2.9234,-3.2138,-3.2566,-3.3541,-3.3639,-3.2159,-3.2254,-3.2879,-3.3992,-3.4378,-3.5156,-3.6587,-3.633,-3.6667,-3.787,-3.6497,-3.6002,-3.6713,-3.5819,-3.5527,-3.5929,-3.6033,-3.6098,-3.611,0.0,0.0,-3.6994,-3.6892,-3.6693,-3.6363,-3.574,-3.4968,-3.4244,-3.4547,-3.4126,-3.32,-3.2367,-3.1368,-3.0459,-3.0937,-3.0577,-2.9894,0.0,0.0,0.0,0.0,0.0,0.0,0.0,0.0,0.0,0.0,-1.1335,-1.2418,-1.2835,-1.3322,-1.4056,-1.52,-1.4349,0.0,0.0,-1.5718,-1.6327,-1.7439,-1.7252,-1.7304,-1.7674,-1.761,-1.7857,-1.8443,-1.9007,-1.9873,-2.1098,-2.2265,-2.3557,-2.4968,-2.627,-2.7446,-2.8377,-2.8233,-2.8038,-2.7731,-2.6869,-2.6155,-2.5578,-2.5488,-2.5128,-2.462,-2.4402,-2.4204,-2.3948,-2.3132,-2.259,-2.2171,-2.1751,-2.0474,-1.9009,0.0,0.0,0.0,0.0,0.0,0.0,0.0,0.0,0.0,0.0,0.0,0.0,0.0,0.0,-2.0669,0.0,0.0,-2.7723,-2.8924,-3.1523,-3.3511,-3.3835,-3.4537,-3.4655,-3.3777,-3.3888,-3.4411,-3.5283,-3.5554,-3.6237,-3.7459,-3.7287,-3.7474,-3.8185,-3.7387,-3.6955,-3.6955,-3.6598,-3.6331,-3.6149,-3.6335,-3.6411,-3.6411,-3.6675,-3.694,-3.7192,-3.7192,-3.7048,-3.6759,-3.5966,-3.5316,-3.4763,-3.4498,-3.3982,-3.3236,-3.2695,-3.1504,-3.0128,-3.0492,-3.0333,-2.984,0.0,0.0,0.0,0.0,0.0,0.0,0.0,0.0,0.0,0.0,0.0,-1.1719,-1.2524,-1.2744,-1.287,0.0,0.0,0.0,0.0,-1.6714,-1.7458,-1.8395,-1.8094,-1.817,-1.863,-1.8348,-1.8553,-1.9234,-1.9731,-2.0425,-2.1287,-2.2738,-2.4165,-2.5493,-2.665,-2.8017,-2.9414,-2.924,-2.9024,-2.8738,-2.8096,-2.7074,-2.5933,-2.6106,-2.5631,-2.479,-2.4847,-2.429,-2.3495,-2.3245,-2.2819,-2.2403,-2.2369,-2.1791,-2.0827,-1.9261,-1.8817,0.0,0.0,0.0,0.0,0.0,0.0,0.0,0.0,0.0,-1.8898,-2.0371,-2.1978,-2.3763,-2.607,-2.8468,-3.063,-3.2134,-3.348,-3.4535,-3.4867,-3.5115,-3.5225,-3.5176,-3.5446,-3.5876,-3.6332,-3.6724,-3.7227,-3.7933,-3.7986,-3.7986,-3.7986,-3.8198,-3.7915,-3.7054,-3.7442,-3.7248,-3.6387,-3.6597,-3.6711,-3.6711,-3.6711,-3.694,-3.7348,-3.7348,-3.7228,-3.6976,-3.5809,-3.5376,-3.5376,-3.4282,-3.3657,-3.3284,-3.3284,-3.1973,-3.011,-3.0314,-3.0236,-2.9965,0.0,0.0,0.0,0.0,0.0,0.0,0.0,0.0,0.0,0.0,0.0,0.0,0.0,0.0,0.0,0.0,0.0,0.0,-1.5406,-1.6517,-1.7919,-1.9629,-1.8814,-1.8804,-1.9857,-1.925,-1.9252,-2.0049,-2.0939,-2.2136,-2.366,-2.4347,-2.5105,-2.5948,-2.8255,-2.9211,-2.9203,-3.0308,-3.0686,-3.0486,-2.9143,-2.7829,-2.6739,-2.661,-2.5818,-2.4725,-2.3954,-2.301,-2.221,-2.2757,-2.2513,-2.2139,-2.3073,-2.2858,-2.2088,-2.1037,0.0,-1.8563,-1.7505,-1.7011,-1.7313,-1.9337,-1.959,-2.04,0.0,0.0,-2.4431,-2.5669,-2.6488,-2.7315,-2.8353,-3.0663,-3.2715,-3.3556,-3.5853,-3.7338,-3.6935,-3.7309,-3.7457,-3.698,-3.6707,-3.6893,-3.769,-3.7832,-3.788,-3.7986,-3.7986,-3.7986,-3.7986,-3.8039,-3.7979,-3.7858,-3.7918,-3.7894,-3.7774,-3.7834,-3.7805,-3.7805,-3.7805,-3.7841,-3.789,-3.789,-3.7385,-3.6411,-3.4823,-3.4438,-3.4787,-3.3801,-3.3344,-3.3284,-3.3284,-3.1973,-3.0206,-3.1187,-3.0707,-2.9711,0.0,0.0,0.0,0.0,0.0,0.0,0.0,0.0,0.0,0.0,0.0,0.0,0.0,0.0,0.0,0.0,0.0,0.0,-1.633,-1.7222,-1.8616,-2.0738,-2.0426,-2.0496,-2.1073,-2.1078,-2.1488,-2.2261,-2.2727,-2.3484,-2.4556,-2.5317,-2.6275,-2.7426,-2.9028,-3.0067,-3.0664,-3.1156,-3.1125,-3.0576,-2.9886,-2.8717,-2.7407,-2.6781,-2.56,-2.4115,-2.2685,-2.1916,0.0,0.0,-2.0858,-2.1224,-2.2681,-2.217,-2.0995,-2.0798,-2.0031,0.0,-1.9046,-1.8977,0.0,0.0,-2.1329,-2.2684,-2.4967,-2.5189,-2.5658,-2.8147,-2.9026,-2.9853,-3.1535,-3.306,-3.4291,0.0,-3.6069,-3.6901,-3.7196,-3.712,-3.6988,-3.6759,-3.6285,-3.6228,-3.6783,-3.6994,-3.6991,-3.6843,-3.7284,-3.7517,-3.7517,-3.7817,-3.7986,-3.7986,-3.7986,-3.7986,-3.7986,-3.7986,-3.7829,-3.7529,-3.7829,-3.7829,-3.7517,-3.7517,-3.6952,-3.5893,-3.4871,-3.4402,-3.4282,-3.3897,-3.3549,-3.332,-3.3609,-3.252,-3.0838,-3.1112,-3.0483,-2.9487,0.0,0.0,0.0,0.0,0.0,0.0,0.0,0.0,0.0,0.0,0.0,0.0,0.0,0.0,0.0,0.0,0.0,0.0,0.0,-1.7164,-1.8744,-2.1156,-2.133,0.0,-2.2584,-2.2781,-2.3243,-2.3963,-2.4264,-2.4725,-2.5379,-2.6184,-2.7169,-2.8289,-2.9141,-3.0117,-3.1144,-3.1244,-3.1025,-3.0678,-3.0316,-2.9234,-2.7678,-2.6619,-2.5018,-2.3073,-2.1599,-2.0715,0.0,0.0,-1.9065,-1.9799,-2.1059,-2.072,-1.9922,-2.008,-1.9759,-1.9463,-1.9922,0.0,0.0,-2.2011,-2.3735,-2.5483,-2.6502,-2.7152,-2.8165,-3.0562,-3.1304,-3.206,-3.378,-3.4403,-3.4877,-3.5519,-3.5774,-3.6081,-3.6702,-3.6423,-3.6026,-3.563,-3.5065,-3.4731,-3.4717,-3.5575,-3.6202,-3.6301,-3.6862,-3.7252,-3.7409,-3.7781,-3.7986,-3.7986,-3.7986,-3.7986,-3.7986,-3.7841,-3.7565,-3.7192,-3.7433,-3.7348,-3.6976,-3.6819,-3.6338,-3.5581,-3.5003,-3.4486,-3.3982,-3.3838,-3.3537,-3.3128,-3.3633,-3.2667,-3.108,-3.1205,-3.0553,-2.969,0.0,0.0,0.0,0.0,0.0,0.0,0.0,0.0,0.0,0.0,0.0,0.0,0.0,0.0,0.0,0.0,0.0,0.0,0.0,-1.5748,-1.7979,-2.0526,-2.0879,-2.215,-2.4552,-2.3932,-2.3913,-2.4664,-2.5411,-2.5983,-2.6464,-2.7133,-2.763,-2.7951,-2.8502,-2.9124,-2.9773,-3.0029,-3.055,-3.1119,-3.0368,-2.9083,-2.7395,-2.609,-2.4007,-2.1653,-2.0886,0.0,0.0,0.0,-1.7428,-1.7787,-1.7766,-1.8614,0.0,-1.9061,-1.8965,0.0,0.0,0.0,-2.1866,-2.5214,-2.725,-2.9034,-3.109,-3.2864,-3.3965,-3.3704,-3.3857,-3.4125,-3.4505,-3.4148,-3.4062,-3.4723,-3.5255,-3.5629,-3.5665,-3.5653,-3.5113,-3.3734,-3.3114,-3.2433,0.0,-3.3938,-3.5965,-3.7087,-3.718,-3.7421,-3.7926,-3.7974,-3.7986,-3.7986,-3.7986,-3.7986,-3.7986,-3.7469,-3.7216,-3.718,-3.6687,-3.6447,-3.6411,-3.5905,-3.5653,-3.5581,-3.5003,-3.4486,-3.3958,-3.3513,-3.3008,-3.2575,-3.3104,-3.2187,-3.0664,-3.1663,-3.1377,-3.0446,0.0,0.0,0.0,0.0,0.0,0.0,0.0,0.0,0.0,0.0,0.0,0.0,0.0,0.0,0.0,0.0,0.0,0.0,0.0,-1.5424,-1.7107,-1.9114,-2.0659,-2.1906,-2.2826,-2.3479,-2.3921,-2.4177,-2.5015,-2.5202,-2.483,-2.5424,-2.6135,-2.6903,-2.7242,-2.7857,-2.8722,-2.8937,-2.9381,-2.9873,-2.8802,-2.804,-2.7211,-2.4791,-2.2617,-2.0568,0.0,0.0,0.0,0.0,-1.5468,-1.582,-1.6765,0.0,0.0,-1.7046,-1.8022,-1.9299,0.0,0.0,-2.4266,-2.7312,-2.8812,-3.0282,-3.3077,-3.3733,-3.3987,-3.5026,-3.3788,-3.27,-3.3339,-3.2215,-3.166,-3.3295,-3.3752,-3.429,-3.5214,-3.515,-3.4653,-3.3755,-3.3022,0.0,0.0,0.0,0.0,-3.4632,-3.5926,-3.6747,-3.6928,-3.7601,-3.7986,-3.7986,-3.7986,-3.7817,-3.7457,-3.7276,-3.6843,-3.6146,-3.5966,-3.5881,-3.5869,-3.5701,-3.5425,-3.5015,-3.4486,-3.397,-3.3525,-3.3356,-3.3188,-3.308,-3.3585,-3.3312,-3.2648,-3.2811,-3.2096,-3.0973,0.0,0.0,0.0,0.0,0.0,0.0,0.0,0.0,0.0,0.0,0.0,0.0,0.0,0.0,0.0,0.0,0.0,0.0,0.0,0.0,-1.5358,-1.7027,-1.8867,-2.015,-2.0807,-2.1855,-2.2468,-2.2636,-2.3291,-2.335,-2.2918,-2.3438,-2.4072,-2.4719,-2.5099,-2.5755,-2.6653,-2.6777,-2.7007,-2.7236,-2.6031,-2.5338,-2.4787,-2.2246,-2.0318,0.0,0.0,0.0,0.0,0.0,0.0,0.0,0.0,-1.5623,-1.5812,-1.6954,-1.8441,-2.023,-2.2637,-2.4181,-2.5806,-2.9032,-3.0298,-3.1498,-3.4241,-3.4437,-3.4279,-3.4999,-3.3337,-3.1559,-3.1179,-2.9736,-2.9138,-3.0755,-3.1333,-3.2212,-3.4113,-3.4281,-3.3974,-3.3407,-3.2913,-3.2607,0.0,0.0,0.0,-3.3836,-3.5852,-3.6933,-3.665,-3.7765,-3.8242,-3.8027,-3.7986,-3.7817,-3.7481,-3.7096,-3.6386,-3.5328,-3.5328,-3.5328,-3.534,-3.5439,-3.5187,-3.4675,-3.4387,-3.3898,-3.3252,-3.3278,-3.3162,-3.3041,-3.3516,-3.3523,-3.3265,-3.3274,-3.2404,-3.1235,0.0,0.0,0.0,0.0,0.0,0.0,0.0,0.0,0.0,0.0,0.0,0.0,0.0,0.0,0.0,0.0,0.0,0.0,0.0,0.0,0.0,-1.4393,-1.5745,-1.7179,-1.8689,-1.9329,-1.9829,-2.023,-2.0488,-2.0621,-2.0712,-2.1266,-2.1537,-2.1553,-2.2127,-2.2798,-2.352,-2.3553,-2.3577,-2.3472,-2.2265,-2.1308,-2.0411,-1.8688,0.0,0.0,0.0,0.0,0.0,0.0,0.0,0.0,0.0,0.0,-1.7661,-1.8729,-2.0155,-2.1844,-2.383,-2.505,-2.6681,-3.044,-3.1815,-3.2706,-3.4739,-3.5133,-3.4813,-3.3684,-3.2342,-3.0579,0.0,0.0,-2.6554,-2.7414,-2.827,-2.9799,-3.248,-3.3179,-3.3208,0.0,0.0,0.0,0.0,0.0,0.0,-3.472,0.0,-3.7835,-3.715,-3.8315,-3.8713,-3.8015,-3.8039,-3.8015,-3.7902,-3.6855,-3.5821,-3.4775,-3.4775,-3.4823,-3.4835,-3.5078,-3.4936,-3.4574,-3.4703,-3.4148,-3.323,-3.3199,-3.2916,-3.2535,-3.3076,-3.3003,-3.269,-3.3104,-3.2416,-3.1279,0.0,0.0,0.0,0.0,0.0,0.0,0.0,0.0,0.0,0.0,0.0,0.0,0.0,0.0,0.0,0.0,0.0,0.0,0.0,0.0,0.0,0.0,0.0,0.0,0.0,0.0,0.0,0.0,0.0,-1.8707,-1.7945,-1.8668,-1.9028,-1.9111,-1.9363,-1.9669,-2.0003,-2.01,-2.0385,-2.0632,0.0,-1.8978,-1.889,0.0,0.0,0.0,0.0,0.0,0.0,0.0,0.0,0.0,0.0,0.0,-1.8674,-2.0297,-2.1881,-2.3635,-2.584,-2.7923,-2.9933,-3.1996,-3.3074,-3.3907,-3.4987,-3.443,-3.3066,-3.0743,-2.8412,-2.6136,0.0,0.0,0.0,-2.6551,-2.8258,0.0,-3.2229,-3.3564,0.0,-3.315,0.0,-3.4507,-3.4279,-3.5175,0.0,0.0,-3.6755,-3.7355,-3.7156,-3.8238,-3.8577,-3.8027,-3.8198,-3.7823,-3.6819,-3.5761,-3.5051,-3.4775,-3.4775,-3.4872,-3.5078,-3.4981,-3.5065,-3.526,-3.4303,-3.387,-3.3781,-3.3342,-3.3359,-3.3654,-3.4195,-3.4299,-3.4171,-3.4118,-3.3107,-3.1781,0.0,0.0,0.0,0.0,0.0,0.0,0.0,0.0,0.0,0.0,0.0,0.0,0.0,0.0,0.0,0.0,0.0,0.0,0.0,0.0,0.0,0.0,0.0,0.0,0.0,0.0,0.0,0.0,0.0,0.0,0.0,-1.5748,-1.5994,-1.6223,-1.6292,-1.6615,-1.7086,0.0,0.0,0.0,0.0,0.0,0.0,0.0,0.0,0.0,0.0,0.0,0.0,0.0,0.0,-1.7315,-1.8098,-1.9284,-2.0767,-2.2574,0.0,-2.5549,-2.7641,-2.9156,-3.0579,-3.2393,-3.2685,-3.2605,-3.2825,-3.1856,-3.0024,-2.7009,-2.4895,0.0,0.0,0.0,0.0,0.0,0.0,0.0,-3.1737,-3.3135,-3.3908,0.0,-3.5065,0.0,-3.5871,-3.6703,-3.7167,0.0,-3.7556,-3.7866,-3.753,-3.8375,-3.8726,-3.8344,-3.825,-3.7638,-3.6411,-3.5692,-3.521,-3.4981,-3.5078,-3.5175,-3.5223,-3.5175,-3.5147,-3.5046,0.0,-3.3728,-3.3605,-3.3175,-3.3148,-3.3469,-3.4161,-3.4325,-3.4259,-3.4308,-3.3579,-3.2519,0.0,0.0,0.0,0.0,0.0,0.0,0.0,0.0,0.0,0.0,0.0,0.0,0.0,0.0,0.0,0.0,0.0,0.0,0.0,0.0,0.0,0.0,0.0,0.0,0.0,0.0,0.0,0.0,0.0,0.0,0.0,0.0,0.0,0.0,0.0,0.0,0.0,0.0,0.0,0.0,0.0,0.0,0.0,0.0,0.0,0.0,0.0,0.0,0.0,0.0,-1.7401,-1.8759,-2.0487,-2.1918,-2.3358,-2.5022,-2.6122,-2.7197,-2.9054,-2.956,-3.0101,-3.2348,-3.1781,-3.0572,-3.0091,-2.8703,-2.6576,-2.3245,0.0,-2.022,-1.7487,0.0,-2.0263,-2.2074,0.0,-2.7459,-3.0913,-3.2277,-3.3402,-3.4846,-3.5966,-3.6798,-3.7296,-3.8042,-3.838,-3.8161,-3.8658,-3.8666,-3.7998,-3.8615,-3.8891,-3.8666,-3.8061,-3.728,-3.6365,-3.6035,-3.5685,-3.5271,-3.556,-3.556,-3.532,-3.5608,-3.5409,-3.4765,-3.4363,-3.4005,-3.3647,-3.3133,-3.299,-3.3202,-3.3866,-3.3909,-3.3692,-3.4131,-3.388,-3.3279,0.0,0.0,0.0,0.0,0.0,0.0,0.0,0.0,0.0,0.0,-1.05,-1.0825,0.0,0.0,0.0,0.0,0.0,0.0,0.0,0.0,0.0,0.0,0.0,0.0,0.0,0.0,0.0,0.0,0.0,0.0,0.0,0.0,0.0,0.0,0.0,0.0,0.0,0.0,0.0,0.0,0.0,0.0,0.0,0.0,0.0,0.0,0.0,0.0,0.0,0.0,-1.9329,-2.1466,-2.196,-2.353,-2.5334,-2.6334,-2.6656,-2.7189,-2.9412,-3.0442,-3.135,-3.2876,-3.2733,-3.1822,-3.0674,-2.7818,0.0,0.0,0.0,-1.7775,-1.6653,-1.7875,0.0,-2.272,0.0,0.0,0.0,0.0,-3.357,0.0,0.0,0.0,0.0,0.0,0.0,0.0,0.0,-3.8699,-3.8359,-3.8635,-3.8521,-3.7816,-3.6838,-3.6242,-3.606,-3.5575,-3.5417,-3.5524,-3.5966,-3.6073,-3.5872,-3.631,-3.642,-3.6265,-3.5372,0.0,-3.6215,-3.4583,-3.4437,-3.5267,-3.5162,-3.4888,-3.4497,-3.4429,-3.3983,-3.3444,0.0,0.0,0.0,0.0,0.0,0.0,0.0,-1.0808,-1.0882,-1.0383,-1.0658,-1.0715,-1.0226,-1.0469,0.0,0.0,0.0,0.0,0.0,0.0,0.0,0.0,0.0,0.0,0.0,0.0,0.0,0.0,0.0,0.0,0.0,0.0,0.0,0.0,0.0,0.0,0.0,0.0,0.0,0.0,0.0,0.0,0.0,0.0,0.0,0.0,0.0,0.0,0.0,0.0,-1.8788,-2.1548,-2.2695,-2.437,-2.6054,-2.7,-2.7202,-2.7593,-2.9912,-3.0265,-3.0464,-3.2329,-3.1615,-2.9958,-2.836,0.0,0.0,0.0,0.0,-1.5728,-1.486,0.0,0.0,0.0,0.0,0.0,0.0,0.0,0.0,0.0,0.0,0.0,0.0,0.0,0.0,0.0,0.0,-3.8739,-3.8856,-3.8842,-3.8382,-3.7421,-3.6638,-3.6223,-3.6223,-3.5697,-3.5656,-3.6168,-3.6534,-3.6815,-3.6956,-3.6922,-3.6896,-3.6858,-3.5953,-3.5756,-3.5979,-3.504,-3.4845,-3.5132,-3.576,-3.5462,-3.4808,-3.5782,-3.5364,-3.4494,0.0,0.0,0.0,0.0,0.0,0.0,0.0,-1.0658,-1.1036,-1.0375,-1.0613,-1.0469,-0.9459,-1.0259,-1.0837,0.0,0.0,0.0,0.0,0.0,0.0,0.0,0.0,0.0,0.0,0.0,0.0,0.0,0.0,0.0,0.0,0.0,0.0,0.0,0.0,0.0,0.0,0.0,0.0,0.0,0.0,0.0,0.0,0.0,0.0,0.0,0.0,0.0,0.0,0.0,-1.7427,-2.0014,-2.193,-2.4137,-2.612,-2.6772,-2.7174,-2.7873,-2.977,-2.9699,-2.959,-3.1645,-3.0396,-2.8183,-2.6236,-2.3313,0.0,0.0,-1.5054,-1.4262,-1.3752,0.0,0.0,0.0,0.0,0.0,0.0,0.0,0.0,0.0,0.0,0.0,0.0,0.0,0.0,0.0,0.0,0.0,-3.9169,-3.8892,-3.8229,-3.7243,-3.6641,-3.6296,-3.6296,-3.6022,-3.6168,-3.6815,-3.7201,-3.7559,-3.7867,-3.7651,-3.7559,-3.7448,-3.67,-3.6215,-3.5976,-3.5742,-3.5439,-3.5222,-3.6501,-3.6309,-3.5489,-3.7027,-3.6743,-3.5761,0.0,0.0,0.0,0.0,0.0,0.0,0.0,-1.0544,-1.0599,-0.9157,-0.9992,-1.0247,-0.9,-1.0024,-1.0897,0.0,0.0,0.0,0.0,0.0,0.0,0.0,0.0,0.0,0.0,0.0,0.0,0.0,0.0,0.0,0.0,0.0,0.0,0.0,0.0,0.0,0.0,0.0,0.0,0.0,0.0,0.0,0.0,0.0,0.0,0.0,0.0,0.0,0.0,0.0,0.0,-1.6946,-1.8334,-2.2086,-2.5765,-2.5064,0.0,0.0,-2.8121,-2.9204,-3.0381,-3.1406,-3.0647,-2.9031,-2.6609,0.0,0.0,0.0,-1.4705,-1.3851,-1.4925,-1.5712,-1.7223,0.0,0.0,0.0,0.0,0.0,0.0,0.0,0.0,0.0,0.0,0.0,0.0,0.0,0.0,0.0,-3.8841,-3.8365,-3.7817,-3.7231,-3.643,-3.6042,-3.6042,-3.643,-3.6769,-3.7062,-3.7998,-3.8362,-3.82,-3.88,-3.8966,-3.8715,-3.8238,-3.8216,0.0,-3.7688,-3.7384,-3.7443,-3.7961,-3.7813,-3.7312,-3.7194,-3.7044,-3.6919,0.0,0.0,0.0,0.0,0.0,0.0,-0.8752,-1.0051,-1.0789,-1.0042,-1.0312,-1.0481,-1.022,-1.0443,-1.0705,0.0,0.0,0.0,0.0,0.0,0.0,0.0,0.0,0.0,0.0,0.0,0.0,0.0,0.0,0.0,0.0,0.0,0.0,0.0,0.0,0.0,0.0,0.0,0.0,0.0,0.0,0.0,0.0,0.0,0.0,0.0,0.0,0.0,0.0,0.0,0.0,0.0,-1.5929,-1.851,0.0,0.0,-2.4315,-2.5215,-2.7421,-2.8625,-2.9463,-3.0197,-2.9363,-2.7741,-2.5434,0.0,0.0,-1.5862,-1.4262,-1.3433,-1.3939,-1.4927,-1.6296,0.0,0.0,0.0,0.0,0.0,0.0,0.0,0.0,0.0,0.0,0.0,0.0,0.0,0.0,0.0,-3.8876,-3.8279,-3.7753,-3.7232,-3.64,-3.6193,-3.6653,-3.6675,-3.7142,-3.7998,-3.8421,-3.8782,-3.9096,-3.9216,-3.9336,-3.9295,-3.9118,-3.8737,0.0,-3.8536,-3.7924,-3.6997,-3.851,-3.8394,-3.7538,-3.849,-3.8425,-3.7845,0.0,0.0,0.0,0.0,0.0,-0.8542,-0.8438,-0.989,-1.0877,-1.0521,-1.0536,-1.0625,-1.0727,-1.0469,-1.0376,-1.0576,0.0,0.0,0.0,0.0,0.0,0.0,0.0,0.0,0.0,0.0,0.0,-0.997,0.0,0.0,0.0,0.0,0.0,0.0,0.0,0.0,0.0,0.0,0.0,0.0,0.0,0.0,0.0,0.0,0.0,0.0,0.0,0.0,0.0,0.0,0.0,0.0,0.0,0.0,0.0,0.0,-2.2449,-2.3497,-2.5933,-2.7648,-2.8727,-2.8702,-2.7982,-2.6613,0.0,0.0,-1.7386,-1.5273,-1.4016,-1.3352,-1.352,-1.458,-1.5802,0.0,0.0,0.0,0.0,0.0,0.0,0.0,0.0,0.0,0.0,0.0,0.0,0.0,0.0,0.0,-3.8932,-3.8478,-3.7911,-3.7199,-3.6611,-3.6559,-3.7108,-3.7188,-3.7743,-3.8679,-3.8872,-3.9268,-3.9891,-3.9722,-3.9724,-3.9908,-3.9842,-3.9075,0.0,-3.9103,-3.8443,-3.6939,-3.905,-3.9207,-3.8385,-3.9571,-3.937,-3.8507,0.0,0.0,0.0,0.0,0.0,0.0,-0.9117,-1.0222,-1.0748,-0.9993,-1.042,-1.0568,-0.9972,-0.9843,-0.9892,-1.0089,0.0,0.0,0.0,0.0,0.0,0.0,0.0,0.0,0.0,0.0,-0.9982,-0.9905,-0.9905,-1.0034,0.0,0.0,0.0,0.0,0.0,0.0,0.0,0.0,0.0,0.0,0.0,0.0,0.0,0.0,0.0,0.0,0.0,0.0,0.0,0.0,0.0,0.0,0.0,0.0,0.0,0.0,-2.0604,-2.2961,-2.3186,-2.6093,-2.8679,-2.6962,-2.6786,-2.6162,0.0,0.0,-1.713,-1.5109,-1.4071,-1.3676,-1.4282,-1.4948,-1.5984,-1.7709,-1.8986,0.0,0.0,0.0,0.0,0.0,0.0,0.0,0.0,0.0,0.0,0.0,0.0,0.0,-3.8944,-3.8837,-3.8314,-3.7247,-3.7121,-3.7108,-3.7108,-3.8089,-3.8679,-3.8908,-3.9452,-3.9922,-4.0274,-4.0349,-4.0506,-4.0672,-4.0491,-3.9421,0.0,-3.9584,-3.9275,-3.7873,-3.982,-4.0537,-4.0451,-4.0117,-3.9536,-3.8841,0.0,0.0,0.0,0.0,0.0,0.0,0.0,-0.9905,-1.0155,-0.9501,-0.9473,-0.9504,-0.9493,-0.9312,-0.9247,-0.9401,0.0,0.0,0.0,0.0,0.0,0.0,0.0,0.0,0.0,0.0,-0.997,-0.9905,-0.9905,-1.0198,-1.078,-1.0328,-1.0444,0.0,0.0,0.0,0.0,0.0,0.0,0.0,0.0,0.0,0.0,0.0,0.0,0.0,0.0,0.0,0.0,0.0,0.0,0.0,0.0,0.0,0.0,0.0,0.0,0.0,-2.1284,-2.3461,-2.5093,-2.4147,-2.3335,-2.2311,-2.0543,-1.8042,-1.585,-1.4826,-1.4392,-1.42,-1.4189,-1.4944,-1.6118,-1.784,-1.8726,0.0,0.0,0.0,0.0,0.0,0.0,0.0,0.0,0.0,0.0,0.0,0.0,0.0,-3.8415,-3.8019,-3.7783,-3.7703,-3.7611,-3.7743,-3.8135,-3.8421,-3.8872,-3.9452,-3.9598,-3.9792,-3.9872,-3.9633,-3.9466,-3.9415,-3.9599,-3.915,-3.8327,-3.9887,-3.957,-3.8302,-3.9935,-4.0239,-3.9707,-3.991,-3.952,-3.8905,0.0,0.0,0.0,0.0,0.0,0.0,0.0,-0.9695,-0.9716,-0.9593,-0.929,-0.9141,-0.9288,-0.8996,-0.8814,-0.887,0.0,0.0,0.0,0.0,0.0,0.0,0.0,0.0,0.0,-1.0161,-1.0059,-1.0008,-0.997,-1.03,-1.0996,-1.0544,-1.0596,-1.1052,-1.0847,0.0,0.0,0.0,0.0,0.0,0.0,0.0,-1.1624,0.0,0.0,0.0,0.0,0.0,0.0,0.0,0.0,0.0,0.0,0.0,0.0,0.0,-1.558,0.0,0.0,-2.1169,-2.2613,-2.1327,-2.0876,0.0,0.0,-1.6863,-1.5449,-1.4862,-1.4616,-1.4484,-1.4415,-1.5351,-1.6513,-1.7646,-1.8935,0.0,0.0,0.0,0.0,0.0,0.0,0.0,0.0,0.0,0.0,0.0,0.0,-3.9289,-3.8477,-3.8267,-3.8227,-3.8417,-3.816,-3.8291,-3.8859,-3.9038,-3.9407,-3.9963,-3.9963,-3.9994,-4.0066,-3.9508,-3.9452,-3.9822,-3.9539,-3.9207,0.0,-4.0134,-3.9735,-3.8592,-3.999,-4.0228,-3.9778,-4.0071,-3.973,-3.9162,0.0,0.0,0.0,0.0,0.0,0.0,0.0,0.0,-0.9355,-0.9926,-0.9593,-0.9266,-0.9209,-0.8806,-0.8521,-0.8448,0.0,0.0,0.0,0.0,0.0,0.0,0.0,0.0,0.0,-1.0199,-1.0199,-1.0199,-1.011,-1.0403,-1.106,-1.0991,-1.0991,-1.106,-1.1132,-1.0781,-1.0135,-1.0413,-1.1059,-1.1798,-1.0935,-1.1033,0.0,0.0,0.0,0.0,0.0,0.0,0.0,0.0,0.0,0.0,0.0,0.0,0.0,0.0,0.0,0.0,0.0,0.0,0.0,0.0,0.0,0.0,0.0,-1.6101,0.0,-1.5107,-1.4774,-1.4702,-1.5033,-1.6128,-1.7084,-1.7453,-1.9725,0.0,0.0,0.0,0.0,0.0,0.0,0.0,0.0,0.0,0.0,0.0,0.0,-4.0087,-3.9025,-3.9196,-3.9296,-3.9241,-3.8613,-3.8627,-3.9336,-3.9777,-4.0099,-4.0303,-4.0357,-4.0449,-4.051,-3.9829,-4.0158,0.0,-3.9953,-3.9518,-3.9794,-4.0366,-3.9898,-3.8931,-4.0056,-4.0489,-4.0489,-4.0489,-4.0074,-3.949,0.0,0.0,0.0,0.0,0.0,0.0,0.0,0.0,0.0,0.0,-0.8162,-0.8178,-0.8148,-0.8047,-0.7974,0.0,0.0,0.0,0.0,0.0,0.0,0.0,0.0,0.0,-1.0262,-1.0123,-1.0097,-1.0199,-1.0585,-1.1059,-1.1613,-1.1536,-1.1549,-1.1596,-1.112,-1.0662,-1.0288,-1.0756,-1.086,-1.0684,-1.0514,-1.0591,0.0,0.0,0.0,0.0,-1.1881,-1.2251,0.0,0.0,0.0,0.0,0.0,0.0,0.0,0.0,-1.3764,-1.4588,-1.5148,0.0,-1.7622,-1.6191,0.0,0.0,0.0,0.0,0.0,0.0,0.0,0.0,0.0,-1.6844,-1.7534,-2.0085,-2.1755,0.0,0.0,0.0,0.0,0.0,0.0,0.0,0.0,0.0,0.0,0.0,0.0,-3.902,-3.8769,-3.8627,-3.8532,-3.8473,-3.8449,-3.8891,-3.9821,-3.9952,-3.9869,-3.9585,-4.0153,-3.9815,-3.8722,-3.9199,-3.9179,-3.8803,-3.9142,-3.9365,-3.9486,-4.0213,-4.0362,-4.0121,-4.0393,-4.0489,-4.0489,-4.0489,-4.0074,-3.9551,0.0,0.0,0.0,0.0,0.0,0.0,0.0,0.0,0.0,0.0,0.0,0.0,0.0,0.0,0.0,0.0,0.0,0.0,0.0,0.0,0.0,0.0,0.0,-0.9915,-1.0211,-1.0123,-1.0097,-1.011,-1.0391,-1.094,-1.17,-1.1635,-1.1648,-1.1657,-1.0847,-1.0405,-1.0313,-1.0573,-1.0612,-1.0486,-1.0424,0.0,0.0,0.0,0.0,0.0,-1.217,-1.2481,0.0,-1.2742,-1.2535,-1.2314,0.0,0.0,0.0,0.0,-1.3588,-1.4084,-1.4276,-1.5608,-1.6713,-1.5798,-1.5633,-1.5608,0.0,0.0,0.0,0.0,0.0,0.0,0.0,0.0,0.0,0.0,0.0,0.0,0.0,0.0,0.0,0.0,0.0,0.0,0.0,0.0,0.0,0.0,-3.9316,-3.8871,-3.874,-3.8483,-3.8297,-3.8214,-3.8228,-3.8574,-3.931,-3.9324,-3.9214,-3.9053,-4.0092,-3.9965,-3.8804,-3.9547,-3.9775,-3.957,-3.9281,-3.9627,-4.036,-4.0362,-4.0402,-4.0489,-4.0489,-4.0489,-4.0489,-4.0489,-4.0074,-3.9536,0.0,0.0,0.0,0.0,0.0,0.0,0.0,0.0,0.0,0.0,0.0,0.0,0.0,0.0,0.0,0.0,0.0,0.0,0.0,0.0,0.0,0.0,0.0,-0.9708,-1.011,-1.0161,-1.011,-0.9995,-1.0173,-1.0753,-1.1713,-1.1827,-1.1846,-1.1724,-1.0595,-1.0198,-1.0338,-1.0315,-1.0441,-1.0658,-1.0616,0.0,0.0,0.0,0.0,0.0,0.0,0.0,0.0,-1.2825,-1.2691,-1.2554,-1.2408,0.0,0.0,0.0,0.0,0.0,-1.4127,-1.5669,-1.703,-1.6101,-1.669,-1.7266,0.0,0.0,0.0,0.0,0.0,0.0,0.0,0.0,0.0,0.0,0.0,0.0,0.0,0.0,0.0,0.0,0.0,0.0,0.0,0.0,0.0,-3.9034,-3.9034,-3.8891,-3.8603,-3.8403,-3.8217,-3.7951,-3.7854,-3.7924,-3.8171,-3.8393,-3.8521,-3.8576,-3.9989,-4.0151,-3.931,-4.0082,-4.0736,-4.1159,0.0,0.0,-4.1375,-4.0455,-4.0264,-4.0489,-4.0382,-4.0397,-4.0489,-4.0489,-4.0136,-3.9613,0.0,0.0,0.0,0.0,0.0,0.0,0.0,0.0,0.0,0.0,0.0,0.0,0.0,0.0,0.0,0.0,0.0,0.0,0.0,0.0,0.0,-1.0142,-1.012,-1.0121,-1.0173,-1.0148,-1.0084,-0.9995,-1.0972,-1.1696,-1.2207,-1.3168,-1.323,-1.2458,-1.0828,-1.0236,-1.0475,-1.0689,-1.069,-1.0575,-1.1184,0.0,0.0,0.0,0.0,0.0,0.0,0.0,0.0,-1.2398,-1.2327,-1.235,-1.1885,0.0,0.0,0.0,0.0,0.0,-1.502,-1.6623,-1.744,-1.536,-1.5674,-1.6503,0.0,0.0,0.0,0.0,0.0,0.0,0.0,0.0,0.0,0.0,0.0,0.0,0.0,0.0,0.0,0.0,0.0,0.0,0.0,0.0,-3.8773,-3.784,-3.777,-3.7758,-3.7706,-3.7876,-3.7631,-3.6879,-3.7181,-3.7192,-3.6721,-3.7893,-3.8309,-3.7954,-3.9272,-3.9107,-3.7799,-3.9713,-4.0224,-3.9691,0.0,-4.0409,-4.0597,-3.9899,-3.9942,-4.0428,-3.9859,-3.9982,-4.0489,-4.0489,-4.0428,-4.0166,0.0,0.0,0.0,0.0,0.0,0.0,0.0,0.0,0.0,0.0,0.0,0.0,0.0,0.0,0.0,0.0,0.0,0.0,0.0,0.0,0.0,-0.996,-1.0093,-1.0148,-1.0148,-1.0122,-1.0084,-1.0059,-1.1039,-1.161,-1.1765,-1.2296,-1.2393,-1.2104,-1.0859,-1.069,-1.1307,-1.1362,-1.1509,-1.1721,0.0,0.0,0.0,0.0,0.0,0.0,0.0,0.0,0.0,0.0,-1.25,-1.296,-1.2416,0.0,0.0,0.0,0.0,0.0,-1.4574,-1.5834,-1.6757,-1.5683,-1.6728,-1.8126,-1.8484,0.0,0.0,0.0,0.0,0.0,0.0,0.0,0.0,0.0,0.0,0.0,0.0,0.0,0.0,0.0,0.0,0.0,0.0,0.0,-4.0067,-3.8297,-3.8893,-3.9029,-3.8368,-3.8097,-3.7517,-3.6478,-3.632,-3.6353,-3.6497,-3.7162,-3.7433,-3.7307,-3.8957,-3.914,-3.813,-4.0202,-4.0512,-3.9428,0.0,-3.965,-3.9416,-3.9342,-3.9588,-3.9951,-4.0013,-4.0213,-4.0443,-4.0074,-3.9721,-3.9293,0.0,0.0,0.0,0.0,0.0,0.0,0.0,0.0,0.0,0.0,0.0,0.0,0.0,0.0,0.0,0.0,0.0,0.0,0.0,0.0,-0.9835,-0.9901,-1.0052,-1.0122,-1.0097,-1.0212,-1.0212,-1.0084,-1.103,-1.1531,-1.1607,-1.1518,-1.1604,-1.1805,-1.09,-1.107,-1.2027,-1.198,-1.2291,-1.2844,0.0,0.0,0.0,0.0,0.0,0.0,0.0,0.0,0.0,0.0,0.0,0.0,0.0,0.0,0.0,-1.511,-1.5106,-1.4673,-1.4356,-1.5205,-1.613,-1.586,0.0,-1.8973,-2.0545,0.0,0.0,0.0,0.0,0.0,0.0,0.0,0.0,0.0,0.0,0.0,0.0,0.0,0.0,0.0,0.0,0.0,0.0,-3.9977,-4.0775,-3.872,-3.9466,-3.9576,-3.862,-3.7973,-3.7153,-3.6104,-3.5775,-3.5874,-3.6382,-3.671,-3.7016,-3.7351,-3.8811,-3.9205,-3.8652,-4.0323,-4.0447,-3.9262,-3.9442,-3.9113,-3.8556,-3.9054,-3.9361,-3.9536,-4.0059,-4.0351,-4.0397,-3.9551,-3.8954,-3.8415,0.0,0.0,0.0,0.0,0.0,0.0,0.0,0.0,0.0,0.0,0.0,0.0,0.0,0.0,0.0,0.0,0.0,0.0,0.0,0.0,-1.0203,-1.0515,-1.0311,-1.0161,-1.0097,-1.0595,-1.0568,-1.0008,-1.1198,-1.2019,-1.2503,-1.2115,-1.2068,-1.2212,-1.103,-1.1082,-1.2111,-1.2348,-1.2733,-1.3198,-1.3797,0.0,0.0,0.0,0.0,0.0,0.0,0.0,0.0,0.0,0.0,0.0,0.0,0.0,-1.4371,-1.5459,-1.5484,-1.5191,-1.5349,-1.5918,-1.6215,-1.5169,0.0,0.0,-2.1662,0.0,0.0,0.0,0.0,0.0,0.0,0.0,0.0,0.0,0.0,0.0,0.0,0.0,0.0,0.0,0.0,0.0,-3.742,-3.8722,-3.9206,-3.8214,-3.7664,-3.7353,-3.7251,-3.6606,-3.5985,-3.5388,-3.5978,-3.6122,-3.5695,-3.7034,-3.8046,-3.8672,-3.868,-3.8662,-3.8607,-3.9329,-3.9277,-3.8646,-3.9862,-3.9662,-3.8554,-3.9218,-3.9477,-3.949,-3.9536,-3.9936,-4.0336,-3.9062,-3.8554,-3.8415,0.0,0.0,0.0,0.0,0.0,0.0,0.0,0.0,0.0,0.0,0.0,0.0,0.0,0.0,0.0,0.0,0.0,0.0,0.0,-1.035,-1.0241,-1.0702,-1.0424,-1.0262,-1.0286,-1.0622,-1.0697,-1.0558,-1.114,-1.1721,-1.2279,-1.1615,-1.1602,-1.2097,-1.168,-1.2222,-1.3492,-1.3714,-1.4083,-1.4544,-1.4978,-1.5167,0.0,0.0,0.0,0.0,0.0,0.0,0.0,0.0,-1.3939,-1.4576,0.0,-1.4672,-1.5311,-1.5878,-1.5756,-1.5358,-1.4936,-1.5333,-1.5829,-1.5654,0.0,0.0,0.0,0.0,0.0,0.0,0.0,0.0,0.0,0.0,0.0,0.0,0.0,0.0,0.0,0.0,0.0,0.0,0.0,-3.8141,-3.7264,-3.8942,-3.9367,-3.773,-3.8207,-3.8187,-3.7336,-3.7519,-3.7184,-3.6136,-3.6871,-3.7361,-3.7532,-3.8067,-3.8847,-3.9844,-3.9481,-3.9289,-3.9289,-3.9864,-3.9736,-3.917,-3.9644,-3.9336,-3.8554,-3.9198,-3.949,-3.9521,-3.9951,-4.0013,-3.9797,-3.929,-3.86,-3.7846,0.0,0.0,0.0,0.0,0.0,0.0,0.0,0.0,0.0,0.0,0.0,0.0,0.0,0.0,0.0,0.0,0.0,0.0,-1.1253,-1.0725,-1.0514,-1.0823,-1.0597,-1.0534,-1.0703,-1.0938,-1.0996,-1.0897,-1.112,-1.1426,-1.1801,-1.127,-1.141,-1.2101,-1.2155,-1.3021,-1.441,-1.4543,-1.4931,-1.5477,-1.5712,-1.5827,0.0,0.0,0.0,0.0,0.0,0.0,0.0,0.0,-1.4398,0.0,0.0,0.0,0.0,0.0,-1.6084,-1.571,-1.4949,-1.5114,-1.5606,0.0,0.0,0.0,0.0,0.0,0.0,0.0,0.0,0.0,0.0,0.0,0.0,0.0,0.0,0.0,0.0,0.0,0.0,0.0,0.0,-3.766,-3.722,-3.8801,-3.9256,-3.779,-3.8409,-3.8463,-3.7461,-3.7952,-3.7744,-3.6581,-3.7287,-3.7873,-3.8217,-3.8247,-3.8853,-4.0098,-3.9504,-3.9379,-3.9646,-3.9814,-3.9598,-3.9216,-3.9398,-3.9105,-3.8585,-3.9428,-3.9797,-3.9828,-4.0074,-3.989,-3.9428,-3.9031,-3.8292,-3.7477,0.0,0.0,0.0,0.0,0.0,0.0,0.0,0.0,0.0,0.0,0.0,0.0,0.0,0.0,0.0,0.0,0.0,0.0,-1.1378,-1.1285,-1.112,-1.092,-1.0837,-1.0989,-1.14,-1.1648,-1.1509,-1.0908,-1.1173,-1.1265,-1.1215,-1.1285,-1.1672,-1.2305,-1.2388,-1.3227,-1.4605,-1.4605,-1.5074,-1.5799,-1.5799,-1.5827,-1.59,0.0,0.0,0.0,0.0,0.0,0.0,0.0,-1.5329,0.0,0.0,0.0,0.0,0.0,-1.645,-1.6344,-1.5688,-1.5487,0.0,0.0,0.0,0.0,0.0,0.0,0.0,0.0,0.0,0.0,0.0,0.0,0.0,0.0,0.0,0.0,0.0,0.0,0.0,0.0,-3.6476,-3.731,-3.731,-3.8016,-3.8492,-3.8492,-3.7877,-3.7492,-3.7492,-3.7492,-3.717,-3.6432,-3.7105,-3.7408,-3.7228,-3.7195,-3.7877,-3.9191,-3.8598,-3.8711,-3.9459,-3.8816,-3.8508,-3.8554,-3.9198,-3.9139,-3.8631,-3.9936,-4.0489,-4.0428,-3.9751,-3.949,-3.9339,-3.8,-3.7507,-3.74,0.0,0.0,0.0,0.0,0.0,0.0,0.0,0.0,0.0,0.0,0.0,0.0,0.0,0.0,0.0,0.0,0.0,0.0,-1.1796,-1.1652,-1.1549,-1.1527,-1.1471,-1.1471,-1.1534,-1.1801,-1.1955,-1.1965,-1.1656,-1.1571,-1.17,-1.1951,-1.2357,-1.2884,-1.3387,-1.4151,-1.5081,-1.5033,-1.5322,-1.5799,-1.5799,-1.587,-1.5955,0.0,0.0,0.0,0.0,0.0,0.0,0.0,0.0,0.0,0.0,0.0,0.0,-1.6412,-1.6153,-1.5741,-1.5504,0.0,0.0,0.0,0.0,0.0,0.0,0.0,0.0,0.0,0.0,0.0,0.0,0.0,0.0,0.0,0.0,0.0,0.0,0.0,0.0,0.0,-3.6635,-3.6805,-3.738,-3.7226,-3.7092,-3.7092,-3.6907,-3.658,-3.6071,-3.6816,-3.6977,-3.6283,-3.7283,-3.7831,-3.776,-3.7764,-3.8037,-3.8549,-3.8399,-3.8711,-3.9459,-3.8816,-3.8769,-3.9198,-3.9398,-3.9644,-3.992,-4.0336,-4.0489,-4.0428,-3.9751,-3.9198,-3.8708,-3.7831,-3.72,-3.6769,0.0,0.0,0.0,0.0,0.0,0.0,0.0,0.0,0.0,0.0,0.0,0.0,0.0,0.0,0.0,0.0,0.0,0.0,0.0,-1.1833,-1.179,-1.1805,-1.179,-1.1844,-1.195,-1.2081,-1.2251,-1.2439,-1.205,-1.1886,-1.1996,-1.2459,-1.2967,-1.3542,-1.4413,-1.5076,-1.5551,-1.5722,-1.5806,-1.5799,-1.5799,-1.6035,-1.6377,0.0,0.0,0.0,0.0,0.0,0.0,0.0,0.0,0.0,0.0,0.0,0.0,-1.6427,-1.6209,-1.5972,-1.5891,0.0,0.0,0.0,0.0,0.0,0.0,0.0,0.0,0.0,0.0,0.0,0.0,0.0,0.0,0.0,0.0,0.0,0.0,0.0,0.0,0.0,-3.6516,-3.6582,-3.706,-3.6492,-3.6091,-3.6091,-3.6091,-3.5922,-3.5454,-3.6636,-3.7058,-3.6532,-3.7288,-3.7722,-3.7745,-3.7298,-3.7446,-3.8159,-3.7659,-3.7696,-3.8308,-3.8169,-3.8323,-3.8723,-3.8774,-3.8972,-3.9354,-3.9699,-3.9773,-3.9674,-3.9536,-3.9228,-3.8862,-3.8446,-3.7707,-3.6892,0.0,0.0,0.0,0.0,0.0,0.0,0.0,0.0,0.0,0.0,0.0,0.0,0.0,0.0,0.0,0.0,0.0,0.0,0.0,0.0,-1.1924,-1.1869,-1.1903,-1.2148,-1.2563,-1.245,-1.244,-1.2553,-1.2308,-1.2195,-1.2208,-1.2943,-1.3634,-1.43,-1.5435,-1.5948,-1.5991,-1.6397,-1.6263,-1.5799,-1.5813,-1.6291,-1.7,-1.6864,0.0,0.0,0.0,0.0,0.0,0.0,0.0,0.0,0.0,0.0,-1.6593,-1.6319,-1.6481,-1.6728,0.0,0.0,0.0,0.0,0.0,0.0,0.0,0.0,0.0,0.0,0.0,0.0,0.0,0.0,0.0,0.0,0.0,0.0,0.0,0.0,0.0,-3.574,-3.6103,-3.6399,-3.6399,-3.5784,-3.5414,-3.5506,-3.5506,-3.5506,-3.5506,-3.6645,-3.7132,-3.678,-3.6892,-3.7003,-3.7079,-3.6072,-3.6297,-3.7628,-3.6444,-3.6041,-3.6322,-3.7015,-3.7323,-3.7323,-3.7589,-3.7619,-3.7554,-3.8424,-3.8623,-3.8477,-3.9093,-3.9293,-3.9247,-3.9247,-3.8462,-3.7415,0.0,0.0,0.0,0.0,0.0,0.0,0.0,0.0,0.0,0.0,0.0,0.0,0.0,0.0,0.0,0.0,0.0,0.0,0.0,0.0,-1.2313,-1.2359,-1.2256,-1.2494,-1.3103,-1.2557,-1.2473,-1.2972,-1.2442,-1.2431,-1.2912,-1.4111,-1.4924,-1.5367,-1.5952,-1.6335,-1.6472,-1.5811,-1.5621,-1.5799,-1.5871,-1.6335,-1.6939,-1.6407,-1.6649,0.0,0.0,0.0,0.0,0.0,0.0,0.0,-1.6166,-1.6201,-1.6179,-1.5841,-1.6395,-1.7015,0.0,0.0,0.0,0.0,0.0,0.0,0.0,0.0,0.0,0.0,0.0,0.0,0.0,0.0,0.0,0.0,0.0,0.0,0.0,-3.5753,-3.6261,-3.5631,-3.563,-3.5737,-3.5737,-3.5121,-3.4936,-3.5475,-3.5506,-3.5506,-3.5506,-3.5615,-3.5431,-3.482,-3.5107,-3.4996,-3.451,-3.4688,-3.4782,-3.485,-3.4938,-3.4957,-3.4951,-3.5599,-3.5953,-3.5984,-3.7062,-3.7539,-3.7554,-3.8263,-3.8232,-3.7738,-3.7877,-3.7615,-3.7153,-3.7153,-3.6953,-3.6784,0.0,0.0,0.0,0.0,0.0,0.0,0.0,0.0,0.0,0.0,0.0,0.0,0.0,0.0,0.0,0.0,0.0,0.0,0.0,0.0,-1.2323,-1.2353,-1.2287,-1.2417,-1.2768,-1.2645,-1.2755,-1.3103,-1.3076,-1.3065,-1.3126,-1.4463,-1.5194,-1.5423,-1.6576,-1.683,-1.6323,-1.6342,-1.6129,-1.5799,-1.577,-1.6262,-1.7,-1.6999,-1.7471,-1.8069,-1.7318,0.0,0.0,0.0,0.0,0.0,0.0,0.0,-1.6291,-1.5988,-1.6351,-1.6819,0.0,0.0,0.0,0.0,0.0,0.0,0.0,0.0,0.0,0.0,0.0,0.0,0.0,0.0,0.0,0.0,0.0,0.0,0.0,-3.5106,-3.5429,-3.5075,-3.5306,-3.5506,-3.5506,-3.5198,-3.5136,-3.5491,-3.5506,-3.5506,-3.5506,-3.5707,-3.5631,-3.5171,-3.5322,-3.5181,-3.4663,-3.4946,-3.4859,-3.4501,-3.4743,-3.4501,-3.3896,-3.4308,-3.4705,-3.5059,-3.5489,-3.5643,-3.5599,-3.6369,-3.643,-3.6091,-3.6415,-3.6522,-3.6492,-3.6492,-3.6292,-3.6061,0.0,0.0,0.0,0.0,0.0,0.0,0.0,0.0,0.0,0.0,0.0,0.0,0.0,0.0,0.0,0.0,0.0,0.0,0.0,0.0,0.0,-1.2195,-1.2195,-1.2246,-1.2359,-1.276,-1.3077,-1.3256,-1.3858,0.0,0.0,0.0,-1.5309,-1.5352,-1.712,-1.7211,-1.6097,-1.6951,-1.6726,-1.5784,-1.5668,-1.6173,-1.7045,-1.7669,-1.8421,-1.904,-1.8454,-1.8623,-1.8856,-1.7021,0.0,0.0,0.0,0.0,-1.6428,-1.6001,-1.6271,-1.6607,0.0,0.0,0.0,0.0,0.0,0.0,0.0,0.0,0.0,0.0,0.0,0.0,0.0,0.0,0.0,0.0,0.0,0.0,0.0,0.0,-3.4628,-3.452,-3.5106,-3.546,-3.5382,-3.5337,-3.5337,-3.5367,-3.5444,-3.5506,-3.5506,-3.6014,-3.6183,-3.5859,-3.5935,-3.5764,-3.5238,-3.5296,-3.5119,-3.4699,-3.4714,-3.4195,-3.3184,-3.3233,-3.3552,-3.4091,-3.3772,-3.3542,-3.346,-3.4313,-3.4545,-3.4397,-3.5075,-3.5584,-3.5968,-3.6107,-3.5784,-3.5322,0.0,0.0,0.0,0.0,0.0,0.0,0.0,0.0,0.0,0.0,0.0,0.0,0.0,0.0,0.0,0.0,0.0,0.0,-1.3019,0.0,0.0,-1.2205,-1.2195,-1.2441,-1.2969,-1.2947,-1.3234,-1.3876,0.0,0.0,0.0,0.0,0.0,-1.6414,0.0,-1.72,-1.6577,-1.6263,-1.6007,-1.5799,-1.5784,-1.6233,-1.694,-1.7091,-1.7685,-1.8424,-1.8315,-1.8393,-1.8392,-1.7465,-1.7146,0.0,0.0,0.0,-1.5959,-1.4934,-1.5931,0.0,0.0,0.0,0.0,0.0,0.0,0.0,0.0,0.0,0.0,0.0,0.0,0.0,0.0,0.0,0.0,0.0,0.0,0.0,0.0,0.0,-3.5152,-3.4582,-3.5106,-3.5305,-3.485,-3.4687,-3.4687,-3.4804,-3.5242,-3.5506,-3.5506,-3.5568,-3.5277,-3.4484,-3.4927,-3.4592,-3.3363,-3.3653,-3.3653,-3.343,-3.3575,-3.3483,-3.3169,-3.2742,-3.2527,-3.2553,-3.317,-3.3426,-3.346,-3.4212,-3.4135,-3.3614,-3.4366,-3.4291,-3.3891,-3.4536,-3.472,-3.472,0.0,0.0,0.0,0.0,0.0,0.0,0.0,0.0,0.0,0.0,0.0,0.0,0.0,0.0,0.0,-1.3127,-1.2511,-1.225,-1.2612,-1.2448,-1.2302,-1.22,-1.2565,-1.2849,-1.305,-1.3688,-1.4154,-1.4442,0.0,0.0,0.0,-1.7127,-1.7483,0.0,0.0,0.0,0.0,-1.6909,-1.6503,-1.5784,-1.5726,-1.5949,-1.6382,-1.6863,-1.7532,-1.8145,-1.7823,-1.8207,-1.8671,-1.7145,-1.6842,-1.7011,-1.6478,0.0,0.0,0.0,-1.6289,0.0,0.0,0.0,0.0,0.0,0.0,0.0,0.0,0.0,0.0,0.0,0.0,0.0,0.0,0.0,0.0,0.0,0.0,0.0,0.0,0.0,-3.2536,-3.2244,-3.3121,-3.3658,-3.3434,-3.4072,-3.4519,-3.4577,-3.4812,-3.4951,-3.4951,-3.4951,-3.4768,-3.4372,-3.4604,-3.4193,-3.3128,-3.3256,-3.3103,-3.2636,-3.2308,-3.2323,-3.2619,-3.2481,-3.237,-3.233,-3.2693,-3.2844,-3.2859,-3.3183,-3.3121,-3.2875,-3.3183,-3.3121,-3.2875,-3.3198,-3.3334,-3.338,0.0,0.0,0.0,0.0,0.0,0.0,0.0,0.0,0.0,0.0,0.0,0.0,0.0,0.0,0.0,0.0,-1.2632,-1.2291,-1.2221,-1.2427,-1.2453,-1.2205,-1.2985,-1.3302,-1.3027,-1.4237,-1.4865,0.0,0.0,0.0,-1.6725,-1.7718,-1.8481,0.0,-1.9363,0.0,0.0,0.0,0.0,0.0,0.0,-1.6039,-1.599,-1.6894,-1.7593,-1.8067,-1.8007,-1.867,-1.9288,-1.7316,-1.6981,-1.7256,-1.658,-1.6262,0.0,0.0,0.0,0.0,0.0,0.0,0.0,0.0,0.0,0.0,0.0,0.0,0.0,0.0,0.0,0.0,0.0,0.0,0.0,0.0,0.0,0.0,0.0,0.0,-3.1155,-3.1155,-3.2213,-3.2872,-3.273,-3.3781,-3.4428,-3.4316,-3.4243,-3.4305,-3.4489,-3.4335,-3.4198,-3.4169,-3.4169,-3.3683,-3.271,-3.2724,-3.2387,-3.1689,-3.1377,-3.142,-3.1741,-3.1851,-3.1982,-3.2151,-3.2321,-3.2398,-3.2398,-3.2398,-3.2398,-3.2398,-3.2398,-3.2398,-3.2398,-3.2398,-3.2398,-3.2398,0.0,0.0,0.0,0.0,0.0,0.0,0.0,0.0,0.0,0.0,0.0,0.0,-1.2215,-1.2652,-1.3027,-1.3177,-1.305,-1.2737,-1.2226,-1.2851,-1.294,-1.2221,-1.3386,0.0,-1.3099,-1.4212,-1.4838,0.0,0.0,0.0,-1.7265,-1.8099,-1.9149,-2.0362,-1.9645,-1.9339,-1.9355,0.0,0.0,0.0,0.0,0.0,0.0,0.0,-1.7799,0.0,0.0,-2.023,-2.0125,-1.8671,-1.8176,-1.793,-1.6693,-1.6246,-1.6152,0.0,0.0,0.0,0.0,0.0,0.0,0.0,0.0,0.0,0.0,0.0,0.0,0.0,0.0,0.0,0.0,0.0,0.0,0.0,0.0,0.0,0.0,0.0,-3.3244,-3.3244,-3.3906,-3.4193,-3.3671,-3.416,-3.4286,-3.3779,-3.356,-3.3752,-3.4459,-3.3829,-3.3402,-3.3274,-3.329,-3.2634,-3.1323,-3.144,-3.1071,-3.0295,-3.1052,-3.1089,-3.0494,-3.0494,-3.0859,-3.1501,-3.2105,-3.2398,-3.2398,-3.2398,-3.2398,-3.2398,-3.2398,-3.2398,-3.2398,-3.2398,-3.2398,-3.2398,0.0,0.0,0.0,0.0,0.0,0.0,0.0,0.0,0.0,0.0,0.0,0.0,0.0,-1.2732,-1.2676,-1.3158,-1.367,-1.3882,-1.3689,-1.4164,-1.4293,-1.394,-1.478,-1.5106,-1.4786,-1.5541,0.0,0.0,0.0,-1.6292,-1.6736,-1.7596,-1.8504,-1.9441,-2.0012,-2.021,-2.0093,-1.9399,0.0,0.0,0.0,0.0,0.0,0.0,0.0,0.0,0.0,0.0,0.0,-1.7945,-1.7547,-1.7496,-1.6786,-1.6501,-1.647,-1.6549,-1.6528,0.0,0.0,0.0,0.0,0.0,0.0,0.0,0.0,0.0,0.0,0.0,0.0,0.0,0.0,0.0,0.0,0.0,0.0,0.0,0.0,0.0,-3.0785,-3.1417,-3.194,-3.2247,-3.2233,-3.2724,-3.2988,-3.2866,-3.221,-3.2009,-3.2487,-3.1641,-3.1238,-3.1409,-3.1328,-3.083,-2.9929,-2.9536,-2.9465,-2.969,-2.9894,-3.035,-3.1028,-3.0586,-3.1012,-3.2013,-3.1828,-3.1982,-3.2398,-3.2398,-3.2398,-3.2398,-3.2398,-3.2398,-3.2398,-3.2398,-3.2398,-3.2398,0.0,0.0,0.0,0.0,0.0,0.0,0.0,0.0,0.0,0.0,0.0,0.0,0.0,0.0,-1.3329,-1.3884,-1.4268,-1.4549,-1.4667,-1.5117,-1.5228,-1.4907,-1.5714,-1.6015,-1.5706,-1.6285,0.0,0.0,0.0,0.0,0.0,-1.7273,-1.8051,-1.8771,-1.9705,-2.0327,0.0,0.0,0.0,-1.8362,0.0,0.0,-1.7822,0.0,0.0,0.0,0.0,0.0,0.0,0.0,-1.7838,-1.788,-1.7184,-1.6902,-1.6873,-1.7047,0.0,0.0,0.0,0.0,0.0,0.0,0.0,0.0,0.0,0.0,0.0,0.0,0.0,0.0,0.0,0.0,0.0,0.0,0.0,0.0,0.0,0.0,0.0,-2.9669,-3.0472,-3.1013,-3.0994,-3.1512,-3.191,-3.1977,-3.1011,0.0,-3.1054,-3.0175,-2.9747,-2.9919,-2.9358,-2.8982,-2.8884,-2.8146,-2.821,-2.9048,-2.8958,-2.9444,-3.0366,-2.9935,-3.0351,-3.1382,-3.1151,-3.1567,-3.2398,-3.2398,-3.2398,-3.2398,-3.2398,-3.237,-3.2342,-3.2398,-3.2315,-3.2176,0.0,0.0,0.0,0.0,0.0,0.0,0.0,0.0,0.0,-1.3589,0.0,0.0,0.0,0.0,0.0,-1.5396,-1.4892,-1.4699,-1.5054,-1.563,-1.5672,-1.501,-1.6104,-1.6428,-1.5767,-1.6323,0.0,0.0,0.0,0.0,0.0,0.0,-1.7937,-1.8553,-1.872,-1.9544,-2.0834,0.0,-2.0594,-1.9633,0.0,-1.9923,-1.9327,0.0,0.0,0.0,-2.1519,-2.1157,0.0,-1.9321,0.0,0.0,0.0,0.0,0.0,0.0,0.0,0.0,0.0,0.0,0.0,0.0,0.0,0.0,0.0,0.0,0.0,0.0,0.0,0.0,0.0,0.0,0.0,0.0,0.0,0.0,0.0,0.0,0.0,-2.8479,-2.9907,-3.0745,-3.025,-3.0785,-3.1151,-3.1163,-3.0027,-2.9643,-3.0279,-2.9547,-2.9043,-2.892,-2.7542,-2.7252,-2.8171,-2.7433,-2.7481,-2.8387,-2.8411,-2.8411,-2.8427,-2.8411,-2.8781,-2.9448,-3.0094,-3.1136,-3.2336,-3.2382,-3.2398,-3.2398,-3.2398,-3.233,-3.2191,-3.2342,-3.2092,-3.1739,0.0,0.0,0.0,0.0,0.0,0.0,0.0,0.0,-1.5352,0.0,0.0,0.0,-1.5588,-1.525,-1.5196,-1.5787,-1.5852,-1.6114,-1.6703,-1.7126,-1.7222,-1.6942,-1.7286,-1.7344,-1.7011,-1.7173,0.0,0.0,0.0,0.0,0.0,0.0,0.0,0.0,-1.8014,-1.8537,-1.8852,-1.9702,0.0,0.0,-2.0007,-1.9957,0.0,0.0,0.0,0.0,0.0,-2.0492,-2.0452,0.0,-1.9433,-1.9653,0.0,0.0,0.0,0.0,0.0,0.0,-1.7437,0.0,0.0,0.0,0.0,0.0,0.0,0.0,0.0,0.0,0.0,0.0,0.0,0.0,0.0,0.0,0.0,0.0,0.0,0.0,0.0,-2.9079,-2.9332,-2.9722,-3.0278,-3.0409,-3.0317,0.0,-2.8867,-2.8233,-2.8227,-2.7376,-2.7009,-2.7249,-2.6962,-2.717,-2.7915,-2.7866,-2.8003,-2.8259,-2.8348,-2.8658,-2.9095,-2.8627,-2.9042,-3.0109,-2.9802,-3.0156,-3.1043,-3.1997,-3.2342,-3.2247,-3.215,-3.201,-3.1824,-3.1781,-3.1724,-3.171,0.0,0.0,0.0,0.0,0.0,0.0,0.0,0.0,-1.5749,0.0,0.0,0.0,-1.6381,-1.6129,-1.6093,-1.6549,-1.6756,-1.7064,-1.7532,-1.7749,-1.7816,-1.7749,-1.7789,-1.7755,-1.7618,-1.7607,0.0,0.0,0.0,0.0,0.0,0.0,0.0,0.0,0.0,0.0,0.0,0.0,0.0,0.0,-1.9828,0.0,0.0,-2.0872,-2.1091,0.0,0.0,0.0,-2.0872,-1.9934,-1.9577,0.0,0.0,0.0,0.0,0.0,0.0,0.0,0.0,0.0,0.0,0.0,0.0,0.0,-1.7666,-1.7907,-1.8254,0.0,0.0,0.0,0.0,0.0,0.0,0.0,0.0,0.0,0.0,0.0,0.0,-2.7226,-2.7487,-2.768,-2.7745,-2.7966,-2.8048,-2.8029,-2.7211,-2.6717,-2.6741,-2.6198,-2.599,-2.6168,-2.5961,-2.6189,-2.6889,-2.6819,-2.7098,-2.771,-2.7893,-2.8334,-2.8956,-2.8581,-2.8842,-2.9597,-2.9927,-3.0297,-3.0706,-3.1681,-3.1879,-3.1609,-3.1711,-3.179,-3.1861,-3.2152,-3.216,-3.2076,0.0,0.0,0.0,0.0,0.0,0.0,0.0,0.0,0.0,0.0,-1.6278,-1.6559,-1.6991,-1.7322,-1.753,-1.7484,-1.7699,-1.7883,-1.7974,-1.807,-1.807,-1.7963,-1.7963,-1.7918,-1.7811,-1.7749,0.0,0.0,0.0,0.0,0.0,0.0,0.0,0.0,0.0,0.0,0.0,0.0,0.0,-1.9578,-1.9641,-2.0376,0.0,0.0,-2.1939,-2.1441,-2.1914,-2.1707,-2.1142,-2.0539,-1.9781,0.0,0.0,0.0,0.0,0.0,-1.8173,0.0,0.0,0.0,0.0,0.0,0.0,0.0,-1.8156,-1.843,-1.8682,-1.9171,0.0,0.0,0.0,0.0,0.0,0.0,0.0,0.0,0.0,0.0,0.0,0.0,-2.5168,-2.5318,-2.4316,-2.4743,-2.5255,-2.5712,-2.526,-2.5111,-2.5432,-2.5499,-2.5528,-2.5486,-2.4842,-2.4857,-2.56,-2.5183,-2.5667,-2.702,-2.7342,-2.7829,-2.8468,-2.8493,-2.8517,-2.8602,-3.0101,-3.0757,-3.0779,-3.1192,-3.1171,-3.0912,-3.1226,-3.1564,-3.1961,-3.2867,-3.2958,-3.2614,-1.4374,0.0,0.0,0.0,0.0,0.0,0.0,0.0,-1.6403,-1.7101,-1.7816,-1.8341,-1.8478,-1.9154,-1.9173,-1.8057,-1.9156,-1.9694,-1.9202,-1.9721,-1.9739,-1.9046,-1.9011,-1.8653,-1.79,-1.7805,-1.7789,0.0,0.0,0.0,0.0,0.0,0.0,0.0,0.0,0.0,0.0,0.0,0.0,-1.9445,-1.9515,0.0,-2.1582,-2.0982,-2.0942,-2.1198,-2.0819,-2.0786,-2.0884,-2.0674,-2.0371,-2.0093,0.0,0.0,0.0,0.0,0.0,0.0,0.0,0.0,0.0,0.0,0.0,0.0,-1.7819,-1.8277,-1.8766,0.0,0.0,0.0,0.0,0.0,0.0,0.0,0.0,0.0,0.0,0.0,0.0,0.0,-2.4637,-2.4649,-2.4946,-2.5011,-2.4633,-2.369,-2.3492,-2.3353,-2.3135,-2.3708,-2.4231,-2.47,-2.4573,-2.4902,-2.5755,-2.5978,-2.645,-2.7177,-2.7861,-2.8404,-2.8803,-2.9129,-2.9305,-2.9282,-2.9297,-2.9249,-2.9177,-2.9633,-3.0408,-3.1272,-3.1133,-3.1043,-3.1092,-3.2163,-3.259,-3.2586,-1.4661,0.0,0.0,0.0,0.0,0.0,0.0,0.0,-1.7045,-1.7451,-1.8313,-1.9094,-1.964,-2.0064,-2.0049,-1.9394,-2.0079,-2.042,-2.0065,-2.0362,-2.0362,-1.9924,-1.9872,-1.9642,-1.9161,-1.915,-1.9127,0.0,0.0,0.0,0.0,0.0,0.0,0.0,0.0,0.0,0.0,0.0,-1.907,-2.0502,-1.9953,0.0,-2.1184,-2.0548,-2.0477,-2.0712,-2.0424,-2.0407,-2.064,-2.1122,-2.1046,0.0,0.0,-2.129,-2.1211,0.0,-2.0462,-2.0079,0.0,0.0,0.0,-1.8277,0.0,0.0,0.0,-1.836,-1.8542,-1.8706,-1.86,0.0,0.0,0.0,0.0,0.0,0.0,0.0,0.0,0.0,0.0,0.0,-2.2836,-2.2475,-2.2495,-2.2455,-2.2264,-2.1931,-2.2218,-2.247,-2.259,-2.2945,-2.3424,-2.403,-2.4045,-2.4253,-2.465,-2.5516,-2.6245,-2.6803,-2.7895,-2.8678,-2.922,-2.9403,-2.9493,-2.9509,-2.9777,-2.9851,-2.9798,-2.984,-3.0253,-3.0901,-3.1431,-3.1535,-3.1487,-3.2772,-3.3298,-3.3351,-1.5026,0.0,0.0,0.0,0.0,0.0,0.0,0.0,-1.7594,-1.7779,-1.864,-1.9542,-2.036,-2.0689,-2.0771,-2.0576,-2.0871,-2.0999,-2.0883,-2.0947,-2.0876,-2.0661,-2.0637,-2.0549,-2.0347,-2.0423,-2.0476,-2.0447,0.0,0.0,0.0,0.0,0.0,0.0,0.0,0.0,0.0,0.0,0.0,-2.1521,0.0,-2.0687,-2.1067,-2.0645,-2.0481,-2.0477,-2.051,-2.0529,-2.0691,-2.1546,-2.1649,-2.1472,-2.1826,-2.2225,0.0,0.0,0.0,0.0,0.0,0.0,0.0,0.0,0.0,-1.8749,0.0,0.0,0.0,-1.8966,0.0,0.0,0.0,0.0,0.0,0.0,0.0,0.0,0.0,0.0,0.0,0.0,-2.1011,-2.0354,-1.9876,-1.9725,-1.9926,-2.0553,-2.1235,-2.1868,-2.2425,-2.2581,-2.2917,-2.3486,-2.3501,-2.3533,-2.3575,-2.4725,-2.5604,-2.6258,-2.7503,-2.848,-2.9181,-2.9247,-2.9355,-2.95,-3.0063,-3.0425,-3.0623,-3.0293,-3.0138,-3.0219,-3.1401,-3.1772,-3.1829,-3.3364,-3.3906,-3.3922,-1.5942,-1.615,0.0,0.0,0.0,0.0,0.0,0.0,-1.7985,-1.8807,-1.9597,-2.0103,0.0,0.0,0.0,0.0,0.0,0.0,-2.1867,0.0,-2.2265,-2.125,-2.1431,-2.1108,-2.0152,-2.0316,-2.0464,-2.0582,0.0,0.0,0.0,0.0,0.0,0.0,-1.8965,0.0,0.0,0.0,-2.0493,0.0,-2.1729,-2.2069,0.0,-2.1452,-2.1161,-2.1119,-2.1229,-2.1399,-2.1552,0.0,-2.1888,-2.2167,0.0,-2.2799,-2.3484,0.0,0.0,0.0,0.0,0.0,0.0,0.0,-2.1201,0.0,0.0,0.0,-1.9958,-1.8668,0.0,0.0,0.0,0.0,0.0,0.0,0.0,0.0,0.0,0.0,0.0,-2.0654,-2.0347,-1.9957,-1.9893,-1.9463,-1.939,-1.9881,-2.06,-2.1154,-2.1535,-2.2164,-2.2736,-2.3148,-2.3163,-2.3354,-2.376,-2.4265,-2.4906,-2.57,-2.6579,-2.7335,-2.8013,-2.8369,-2.8854,-2.9358,-2.8469,-2.871,-2.9746,-2.9627,-2.9514,-2.948,-3.0093,-3.0347,-3.0537,-3.2498,-3.3194,-3.3291,-1.6706,-1.6845,0.0,0.0,0.0,0.0,0.0,0.0,0.0,-1.9098,-1.9596,0.0,0.0,0.0,0.0,0.0,0.0,-2.365,0.0,0.0,0.0,-2.2924,-2.2595,0.0,-2.1796,-2.1751,-2.1776,-2.1876,-2.1888,0.0,0.0,0.0,0.0,0.0,-1.9471,0.0,-1.9383,0.0,0.0,0.0,0.0,0.0,0.0,-2.1448,-2.1213,-2.1354,-2.1627,-2.1688,-2.1642,0.0,-2.2615,0.0,0.0,0.0,0.0,0.0,0.0,0.0,0.0,0.0,0.0,0.0,0.0,0.0,-2.094,0.0,-1.9785,0.0,0.0,0.0,0.0,0.0,0.0,0.0,-1.8216,0.0,0.0,0.0,0.0,0.0,0.0,0.0,-1.9293,-1.9262,-1.9308,-1.955,-2.0023,-2.0599,-2.1259,-2.1696,-2.2403,-2.3472,-2.344,-2.3665,-2.4266,-2.5152,-2.5823,-2.6194,-2.7238,-2.7904,-2.8204,-2.8262,-2.8447,-2.8672,-2.8061,-2.8371,-2.9227,-2.914,-2.9317,-2.9675,-2.9904,-3.0211,-3.078,-3.2474,-3.308,-3.3194,-1.7539,0.0,0.0,0.0,0.0,0.0,0.0,0.0,0.0,0.0,0.0,0.0,-2.2279,-2.3042,0.0,0.0,-2.4455,-2.4597,0.0,0.0,-2.3423,0.0,0.0,0.0,0.0,0.0,-2.2906,-2.2919,0.0,0.0,0.0,0.0,0.0,0.0,0.0,-1.976,-1.9719,0.0,0.0,-2.1963,-2.2063,-2.2183,-2.2213,-2.1502,-2.1368,-2.1645,-2.2231,-2.2195,-2.1957,-2.2651,-2.3311,0.0,-2.412,0.0,0.0,0.0,0.0,0.0,-2.3218,0.0,0.0,0.0,0.0,0.0,0.0,0.0,0.0,0.0,0.0,0.0,0.0,0.0,0.0,0.0,0.0,-1.8521,0.0,0.0,0.0,0.0,0.0,0.0,0.0,-1.9045,-1.9262,-1.9413,-1.976,-2.0294,-2.1068,-2.1407,-2.2107,-2.3309,-2.3283,-2.3594,-2.4313,-2.5259,-2.5908,-2.6315,-2.7232,-2.7741,-2.7892,-2.7744,-2.7767,-2.7891,-2.7794,-2.8232,-2.9007,-2.8937,-2.9318,-2.9918,-2.9973,-3.032,-3.0894,-3.2302,-3.2789,-3.2919,-1.854,-1.8353,0.0,0.0,0.0,0.0,0.0,0.0,0.0,0.0,0.0,0.0,0.0,0.0,0.0,0.0,0.0,-2.5125,-2.5237,0.0,-2.347,0.0,0.0,-2.2977,0.0,0.0,0.0,0.0,0.0,0.0,0.0,0.0,0.0,0.0,0.0,-1.9639,-2.0683,-2.1026,-2.1601,-2.2296,-2.2362,-2.2241,-2.1986,0.0,-2.1926,-2.2111,-2.3172,0.0,0.0,-2.3621,-2.3788,0.0,0.0,0.0,0.0,0.0,0.0,0.0,0.0,0.0,0.0,-2.3981,0.0,0.0,0.0,0.0,-2.1578,0.0,0.0,0.0,0.0,0.0,0.0,-1.8047,0.0,0.0,0.0,0.0,0.0,0.0,0.0,0.0,0.0,-1.884,-1.9086,-1.9468,-1.988,-2.0334,-2.088,-2.1402,-2.1855,-2.2144,-2.2276,-2.2761,-2.3631,-2.3744,-2.4385,-2.5535,-2.5712,-2.5987,-2.6362,-2.6362,-2.6654,-2.7147,-2.7337,-2.8015,-2.9011,-2.9206,-2.9529,-2.9924,-3.0199,-3.0288,-3.046,-3.1609,-3.2044,-3.2238,0.0,0.0,0.0,0.0,0.0,0.0,0.0,-1.9685,0.0,0.0,0.0,0.0,0.0,-2.7317,-2.7741,0.0,0.0,-2.7894,-2.6519,-2.6405,0.0,0.0,0.0,-2.5324,0.0,0.0,0.0,0.0,0.0,0.0,0.0,0.0,0.0,0.0,0.0,-1.9824,0.0,0.0,0.0,0.0,0.0,-2.2769,-2.2849,0.0,-2.2115,-2.2377,-2.2746,-2.2788,0.0,-2.3159,-2.3432,-2.3679,-2.4302,-2.4699,-2.5096,-2.5891,-2.5568,-2.4993,0.0,0.0,-2.5221,-2.4587,0.0,0.0,0.0,0.0,0.0,0.0,0.0,0.0,0.0,0.0,-1.9005,-1.8733,-1.8873,0.0,0.0,0.0,0.0,0.0,0.0,0.0,0.0,0.0,0.0,-1.9165,-1.9452,-1.9776,-2.0084,-2.081,-2.1537,-2.2212,-2.2623,-2.3112,-2.3719,-2.4277,-2.4722,-2.5036,-2.558,-2.5919,-2.61,-2.5957,-2.6334,-2.7064,-2.6473,-2.7416,-2.936,-2.8804,-2.9198,-3.0199,-3.0518,-3.0497,-3.0491,-3.2034,-3.2242,-3.1924,-2.0707,0.0,0.0,0.0,0.0,0.0,0.0,0.0,0.0,0.0,-2.5389,0.0,-2.9153,0.0,-2.9914,0.0,-3.0156,-2.9799,-2.801,-2.7849,0.0,-2.6379,-2.649,0.0,0.0,0.0,0.0,0.0,0.0,-2.3336,0.0,0.0,0.0,0.0,0.0,0.0,0.0,0.0,-2.2349,0.0,0.0,-2.2849,0.0,0.0,-2.2915,-2.3258,0.0,-2.336,-2.3457,-2.3644,-2.4022,-2.4445,-2.4783,-2.5141,-2.5619,-2.6604,-2.6162,-2.5451,-2.5943,-2.5875,0.0,-2.5261,-2.5026,0.0,-2.3443,0.0,-2.2562,0.0,0.0,0.0,0.0,0.0,0.0,-1.9487,-1.9278,-1.9095,0.0,-1.9095,0.0,0.0,0.0,0.0,0.0,0.0,-1.8632,-1.8878,-1.8969,-1.9196,0.0,-2.0604,-2.1392,-2.1939,-2.2535,-2.3087,-2.3553,-2.4066,-2.4431,-2.4679,-2.532,-2.5754,-2.5895,-2.5914,-2.6259,-2.6851,-2.686,-2.7746,-2.9212,-2.9265,-2.9772,-3.0502,-3.0865,-3.0845,-3.0795,-3.2083,-3.2507,-3.2546,0.0,0.0,0.0,0.0,-2.0126,0.0,0.0,0.0,-2.6289,0.0,-2.8903,-2.9094,-3.0317,-3.0125,-3.0162,-3.0765,-3.1098,-3.08,-2.9661,-2.8651,0.0,0.0,-2.5438,-2.5037,-2.5469,0.0,0.0,0.0,0.0,0.0,0.0,0.0,0.0,0.0,-2.1575,0.0,-2.1673,-2.2194,-2.251,-2.2699,-2.2712,-2.2603,-2.2536,-2.3516,-2.4233,-2.4715,-2.4772,-2.4829,-2.4903,-2.4962,-2.5379,-2.5781,-2.5146,-2.5777,-2.6791,-2.6876,-2.6809,-2.6708,-2.6691,-2.6233,-2.5802,-2.5954,-2.5508,0.0,0.0,0.0,-2.3882,0.0,0.0,0.0,0.0,0.0,0.0,-2.0155,-1.9569,-1.9095,0.0,0.0,0.0,0.0,0.0,0.0,0.0,-1.8311,-1.8156,-1.8678,-1.8475,0.0,0.0,-2.0742,-2.1366,-2.1323,-2.2037,-2.2643,-2.3068,-2.3102,-2.3548,-2.4397,-2.4929,-2.538,-2.5741,-2.6134,-2.6381,-2.6602,-2.83,-2.8869,-2.8772,-3.0533,-3.1069,-3.0865,-3.1181,-3.1315,-3.1361,-3.1735,-3.2715,-3.3816,-2.0668,-2.0333,-2.0138,0.0,-2.0771,-2.1082,0.0,0.0,0.0,0.0,-3.0681,-3.2392,-3.3915,-3.4255,-3.418,-3.3683,-3.2926,0.0,0.0,0.0,0.0,-2.793,-2.8256,-2.7382,-2.5112,-2.6265,0.0,-2.4247,0.0,0.0,-2.3876,0.0,0.0,0.0,0.0,0.0,-2.2138,-2.243,-2.2584,-2.2655,-2.2897,-2.3497,-2.4187,0.0,-2.4859,-2.6161,-2.5098,-2.4733,-2.475,-2.4722,-2.4437,-2.43,-2.5205,-2.5344,-2.5432,-2.6553,-2.6893,-2.6842,-2.6742,-2.6656,-2.6467,-2.5903,-2.5723,-2.5296,-2.3909,0.0,0.0,0.0,0.0,0.0,0.0,0.0,0.0,0.0,0.0,0.0,0.0,0.0,0.0,-1.9822,0.0,0.0,0.0,-1.8734,-1.8669,-1.8779,-1.865,0.0,0.0,0.0,-2.1173,-2.1505,-2.2438,-2.2811,-2.2578,-2.3158,-2.3729,-2.4257,-2.4896,-2.5564,-2.6219,-2.6282,-2.6985,-2.8187,-2.8037,-2.9039,-3.0713,-3.0566,-3.0747,-3.1201,-3.1542,-3.1671,-3.167,-3.18,-3.2295,-3.2866,-2.1881,0.0,0.0,-2.2186,0.0,0.0,-2.4428,-2.5431,0.0,-3.0262,-3.1981,0.0,-3.4579,-3.5225,-3.5215,-3.4345,-3.329,0.0,-3.1585,0.0,0.0,-2.9385,-2.9078,-2.801,-2.6081,-2.6394,0.0,-2.4944,0.0,0.0,-2.4633,0.0,0.0,0.0,0.0,-2.28,0.0,-2.3155,-2.3227,-2.3185,-2.3684,-2.4216,0.0,-2.4772,-2.5459,-2.6315,-2.5835,-2.5678,-2.5659,-2.529,-2.5105,-2.512,-2.5615,-2.5701,-2.5772,-2.6655,-2.6859,-2.6792,-2.6725,-2.6758,-2.6707,-2.6249,-2.6179,-2.5953,-2.484,-2.5011,-2.5136,0.0,-2.4173,-2.4143,0.0,0.0,0.0,0.0,0.0,0.0,0.0,0.0,0.0,0.0,-1.9425,0.0,0.0,-1.8574,-1.8476,-1.8743,-1.8413,0.0,0.0,0.0,-2.0944,-2.133,-2.2765,-2.3301,-2.2803,-2.3615,-2.4081,-2.4206,-2.4836,-2.552,-2.6267,-2.6404,-2.7045,-2.8048,-2.7945,-2.8917,-3.0564,-3.0463,-3.0838,-3.1542,-3.1744,-3.18,-3.18,-3.1838,-3.219,-3.2637,0.0,0.0,0.0,0.0,0.0,0.0,0.0,-2.7486,0.0,-3.2347,0.0,-3.3439,-3.3959,-3.4597,-3.4665,-3.3873,0.0,-3.2162,-3.171,-3.099,-3.0535,-3.0455,-2.8778,-2.7679,-2.7304,-2.6144,0.0,0.0,0.0,0.0,0.0,0.0,0.0,0.0,0.0,0.0,0.0,-2.4063,-2.4125,-2.4008,-2.4632,-2.4829,-2.4786,-2.5693,-2.5958,-2.5926,-2.6621,-2.6909,-2.6889,-2.6225,-2.6378,-2.6719,-2.6207,-2.6346,-2.6757,-2.6859,-2.6809,-2.6691,-2.6691,-2.6691,-2.6691,-2.6691,-2.6708,-2.6556,-2.5896,-2.5761,-2.5761,-2.5744,-2.522,-2.5043,-2.5887,0.0,0.0,0.0,0.0,0.0,0.0,0.0,0.0,0.0,0.0,0.0,0.0,0.0,0.0,0.0,0.0,0.0,0.0,0.0,-2.0802,-2.1107,-2.3084,-2.3941,-2.3517,-2.4224,-2.4577,-2.458,-2.4885,-2.5481,-2.6266,-2.6601,-2.6942,-2.7324,-2.8027,-2.8732,-2.9489,-3.0368,-3.1145,-3.18,-3.18,-3.18,-3.1818,-3.1875,-3.2215,-3.2666,0.0,0.0,0.0,0.0,0.0,-2.7214,-3.0764,-3.1994,-3.2659,-3.3151,-3.4619,-3.548,-3.5166,-3.5009,-3.4782,-3.4401,-3.296,0.0,0.0,0.0,0.0,-2.9696,-2.8696,-2.7543,-2.6287,-2.6613,-2.645,0.0,0.0,0.0,0.0,0.0,0.0,0.0,0.0,0.0,-2.4101,-2.4343,0.0,-2.4718,-2.4838,-2.5242,-2.5733,-2.57,-2.6046,-2.6539,-2.6691,-2.6809,-2.6875,-2.6639,-2.625,-2.5945,-2.6536,-2.6316,-2.5963,-2.6689,-2.6809,-2.6691,-2.6691,-2.6691,-2.6691,-2.6691,-2.6792,-2.6808,-2.6556,-2.6589,-2.6639,-2.6522,-2.6387,-2.6183,-2.5775,-2.415,0.0,0.0,0.0,0.0,0.0,0.0,0.0,0.0,0.0,-2.055,0.0,0.0,0.0,0.0,0.0,0.0,0.0,0.0,-2.1213,0.0,-2.3415,-2.4462,0.0,0.0,-2.5231,-2.6582,-2.5672,-2.588,-2.7092,-2.7051,-2.7446,-2.8179,-2.8383,-2.8883,-2.9626,-3.0456,-3.1181,-3.18,-3.18,-3.18,-3.18,-3.1801,-3.1869,-3.1971,0.0,0.0,0.0,0.0,0.0,0.0,0.0,-3.433,-3.4638,-3.3682,-3.4369,-3.4682,-3.3974,-3.411,-3.4099,-3.3656,-3.2243,-3.155,-3.1966,-3.0628,-3.0023,-3.0535,-2.9454,0.0,-2.7171,-2.7056,-2.6614,-2.5861,0.0,0.0,0.0,0.0,0.0,0.0,0.0,-2.4296,0.0,0.0,0.0,-2.5498,-2.574,-2.6053,-2.6345,-2.6216,-2.6387,-2.6691,-2.6691,-2.6742,-2.6792,-2.6725,-2.6454,-2.6251,-2.6657,-2.6505,-2.6251,-2.6657,-2.6742,-2.6691,-2.6691,-2.6691,-2.6691,-2.6691,-2.6742,-2.6792,-2.6708,-2.6742,-2.6792,-2.6708,-2.6691,-2.6402,-2.5377,-2.462,0.0,0.0,0.0,0.0,0.0,0.0,0.0,0.0,0.0,0.0,0.0,0.0,0.0,0.0,0.0,0.0,0.0,0.0,-2.1316,0.0,0.0,0.0,-2.5244,0.0,-2.591,-2.7338,-2.6414,-2.644,-2.7299,-2.7233,-2.7455,-2.7881,-2.793,-2.836,-2.9173,-3.0318,-3.101,-3.1357,-3.1681,-3.1819,-3.1856,-3.1801,-3.1819,-3.1839,0.0,-2.7643,0.0,0.0,-3.1209,0.0,-3.4887,-3.5673,-3.5568,-3.4428,-3.4134,-3.3768,-3.307,-3.3304,-3.3291,-3.2691,-3.1649,-3.1133,-3.1427,-3.0716,-3.0526,-3.1082,-2.9984,-2.8973,-2.8185,-2.735,-2.6668,0.0,0.0,0.0,0.0,0.0,0.0,0.0,0.0,0.0,0.0,0.0,-2.6084,-2.626,-2.657,-2.6725,-2.6775,-2.6725,-2.6741,-2.6791,-2.6808,-2.6841,-2.689,-2.6923,-2.6874,-2.6825,-2.6873,-2.6857,-2.6808,-2.6808,-2.6758,-2.6691,-2.6691,-2.6725,-2.6742,-2.6708,-2.6725,-2.6758,-2.6708,-2.6725,-2.6742,-2.6708,-2.6691,-2.6402,-2.5434,-2.5284,-2.5136,0.0,0.0,0.0,0.0,0.0,0.0,0.0,0.0,0.0,-1.9606,0.0,0.0,0.0,0.0,0.0,-2.0141,0.0,0.0,0.0,0.0,-2.4662,-2.5469,0.0,-2.6486,-2.7718,-2.6973,-2.6821,-2.7266,-2.7454,-2.7484,-2.7425,-2.7721,-2.8307,-2.9152,-3.0318,-3.0924,-3.115,-3.1613,-3.1838,-3.1875,-3.1819,-3.1838,-3.1875,0.0,0.0,0.0,0.0,0.0,0.0,-3.6682,-3.6404,-3.588,-3.5792,-3.5211,-3.4784,-3.4677,-3.3596,-3.2693,-3.2211,-3.1876,-3.1324,-3.0411,-3.1028,-3.0971,-2.9918,-2.9454,-2.8834,-2.8049,-2.7333,-2.6874,0.0,0.0,-2.5773,0.0,0.0,0.0,0.0,0.0,0.0,-2.5868,-2.596,-2.6396,-2.6984,-2.6774,-2.6841,-2.7054,-2.6791,-2.6841,-2.7069,-2.7133,-2.7322,-2.7537,-2.7597,-2.7398,-2.7213,-2.7504,-2.7398,-2.7149,-2.7149,-2.694,-2.6691,-2.6691,-2.6792,-2.6842,-2.6742,-2.6842,-2.6908,-2.6741,-2.6792,-2.6842,-2.6742,-2.6691,-2.6691,-2.6689,-2.6315,-2.5955,0.0,0.0,0.0,0.0,0.0,0.0,0.0,0.0,0.0,0.0,-2.0056,0.0,0.0,-1.9579,0.0,0.0,0.0,0.0,-2.2065,-2.325,-2.4363,-2.5402,-2.5779,-2.6699,-2.8132,-2.7086,-2.6775,-2.7153,-2.7939,-2.7968,-2.7457,-2.8811,-2.9851,-3.0595,-3.0751,-3.1147,-3.1715,-3.1784,-3.18,-3.1818,-3.18,-3.18,-3.1818,0.0,0.0,0.0,0.0,0.0,0.0,0.0,-3.7184,-3.6449,-3.6253,-3.5475,-3.4582,-3.3736,-3.3142,-3.2552,-3.1963,-3.1838,-3.1615,-3.1202,-3.1025,-3.0879,-3.0796,-2.9741,-2.8966,-2.8606,-2.7861,-2.7301,0.0,0.0,0.0,0.0,0.0,0.0,0.0,-2.5691,-2.5826,-2.6033,-2.6464,-2.6827,-2.7103,-2.6972,-2.7005,-2.7103,-2.6972,-2.7021,-2.7181,-2.7384,-2.7519,-2.7683,-2.7883,-2.7739,-2.7522,-2.7612,-2.7446,-2.7228,-2.74,-2.7101,-2.6741,-2.694,-2.6891,-2.6758,-2.6708,-2.6758,-2.6792,-2.6725,-2.6742,-2.6758,-2.6708,-2.6691,-2.6775,-2.7022,-2.6798,-2.655,-2.6467,0.0,0.0,0.0,0.0,0.0,0.0,0.0,0.0,0.0,0.0,0.0,0.0,0.0,0.0,0.0,0.0,0.0,-2.2688,0.0,-2.5057,-2.6417,-2.5941,-2.6584,-2.8302,-2.7442,-2.7321,-2.7888,-2.8231,-2.8521,-2.8776,-2.9415,-2.99,-3.023,-3.063,-3.0976,-3.1306,-3.1881,-3.2002,-3.1893,-3.2179,-3.2197,-3.2071,-3.7358,0.0,-3.7003,0.0,-3.7327,-3.7398,-3.8365,-3.7694,-3.6841,-3.6171,-3.5457,-3.4514,-3.3208,-3.2902,-3.2466,-3.1632,-3.168,-3.1629,-3.1341,-3.0781,-3.0601,-3.0945,-2.955,0.0,-2.8654,-2.7962,-2.7452,-2.7117,-2.7282,0.0,0.0,0.0,-2.6667,-2.6914,-2.6772,-2.6745,-2.6859,-2.7379,-2.7483,-2.7307,-2.7246,-2.7244,-2.7307,-2.726,-2.7336,-2.7487,-2.7681,-2.784,-2.8014,-2.8188,-2.8124,-2.7943,-2.789,-2.7683,-2.7487,-2.7669,-2.7288,-2.6907,-2.7133,-2.6972,-2.6742,-2.6708,-2.6742,-2.6742,-2.6708,-2.6691,-2.6691,-2.6691,-2.6691,-2.6808,-2.7133,-2.707,-2.6938,-2.6854,0.0,0.0,0.0,-2.5204,0.0,0.0,-2.419,-2.3347,-2.179,-2.2284,0.0,0.0,0.0,0.0,0.0,0.0,0.0,0.0,0.0,0.0,-2.6414,-2.5928,-2.6529,-2.8185,-2.7588,-2.7726,-2.8482,-2.8643,-2.9332,-3.0386,-3.0177,-3.0213,-3.0439,-3.1011,-3.1202,-3.1237,-3.2004,-3.2301,-3.2332,-3.2651,-3.2686,-3.2616,-3.9094,-3.9444,-3.9742,-3.9763,-3.9424,-3.8975,-3.8384,-3.7844,-3.697,-3.5501,-3.5304,-3.4872,-3.3792,-3.3171,-3.2316,-3.1115,-3.137,-3.1218,-3.0282,-3.0335,-3.0174,0.0,0.0,-2.7946,-2.7824,-2.7432,-2.7197,-2.7197,0.0,0.0,-2.8183,-2.7911,-2.8784,-3.0467,-2.9012,-2.851,-2.878,-2.878,-2.8403,-2.7774,-2.7569,-2.7615,-2.7774,-2.7639,-2.7797,-2.8102,-2.8102,-2.8347,-2.8669,-2.8612,-2.8587,-2.8574,-2.8505,-2.8299,-2.8075,-2.801,-2.7607,-2.7197,-2.7197,-2.7055,-2.6859,-2.6742,-2.6792,-2.6859,-2.6742,-2.6691,-2.6691,-2.6691,-2.6691,-2.6808,-2.7133,-2.7197,-2.7135,-2.6929,0.0,0.0,0.0,-2.5018,0.0,-2.5021,-2.3116,-2.2296,-2.3719,-2.3045,0.0,0.0,0.0,0.0,0.0,0.0,0.0,-2.4026,-2.3771,0.0,-2.4809,-2.5674,-2.6648,-2.7719,-2.7421,-2.7787,-2.8703,-2.9244,-3.0491,-3.2213,-3.122,-3.1165,-3.1802,-3.2127,-3.2091,-3.1819,-3.2162,-3.2669,-3.3169,-3.3187,-3.3333,-3.3494,-3.9517,-4.0645,-4.1336,-4.0453,-4.0076,-3.9842,-3.9751,-3.867,-3.7577,-3.6881,-3.6677,-3.6211,-3.5246,-3.3738,-3.2466,0.0,-3.1411,-3.1376,0.0,-3.125,-3.118,-3.1445,-3.0155,-2.9147,-2.8559,-2.8376,-2.8117,-2.7745,0.0,0.0,-2.9715,-2.9751,-2.9899,-3.0088,-2.9354,-2.9018,-2.8988,-2.8667,-2.8403,-2.8197,-2.8129,-2.8143,-2.8197,-2.817,-2.8156,-2.8183,-2.8383,-2.8466,-2.851,-2.8637,-2.8675,-2.8669,-2.8743,-2.8451,-2.8129,-2.8286,-2.78,-2.7289,-2.7692,-2.7532,-2.7227,-2.7228,-2.7305,-2.7334,-2.7214,-2.7321,-2.7411,-2.726,-2.7398,-2.756,-2.771,-2.7639,-2.7518,-2.7459,-2.751,0.0,-2.6993,0.0,-2.5371,-2.5613,-2.4891,-2.445,-2.4689,-2.4155,0.0,0.0,0.0,0.0,0.0,0.0,0.0,0.0,-2.5122,0.0,-2.6356,-2.6459,-2.6916,-2.7701,-2.7615,-2.8388,-2.9869,-3.0598,-3.1532,-3.2553,-3.2288,-3.2273,-3.2486,-3.2602,-3.2436,-3.2197,-3.2765,-3.2762,-3.251,-3.3127,-3.316,-3.2947,-4.0906,-4.1868,-4.2406,-4.1234,-4.0963,-4.0745,-4.0219,-3.9293,-3.848,-3.7966,-3.7614,-3.711,-3.6237,-3.4898,0.0,-3.2649,-3.2054,-3.1925,-3.2334,-3.176,-3.1579,-3.2011,-3.0875,-2.994,-2.9387,-2.9216,-2.9098,-2.9012,-3.0413,-3.1278,-3.1565,-3.125,-3.1192,-3.1341,-3.0683,-3.0208,-2.9907,-2.9605,-2.907,-2.8425,-2.8451,-2.8469,-2.8425,-2.8417,-2.8399,-2.8438,-2.8582,-2.8625,-2.8612,-2.8761,-2.8822,-2.8834,-2.8917,-2.8713,-2.8469,-2.8619,-2.8188,-2.7762,-2.8152,-2.7942,-2.7646,-2.7678,-2.7718,-2.7727,-2.7648,-2.7747,-2.7848,-2.7707,-2.7783,-2.7911,-2.8051,-2.7926,-2.7836,-2.7901,-2.8024,-2.7902,-2.7308,0.0,-2.5722,0.0,0.0,-2.4826,0.0,-2.5217,-2.5143,0.0,0.0,0.0,0.0,0.0,-2.4497,-2.4382,-2.5727,-2.6686,-2.7105,-2.692,-2.7246,-2.8041,-2.8632,-2.9679,-3.1112,-3.1757,-3.2364,-3.2908,-3.2844,-3.2795,-3.2795,-3.2892,-3.2718,-3.2471,-3.3001,-3.3057,-3.2878,-3.3424,-3.3456,-3.3268,-4.2794,-4.3014,-4.2923,-4.2086,-4.2028,-4.1583,-4.0099,-3.9825,-3.9495,-3.8693,-3.8152,-3.7572,-3.6904,-3.6503,-3.5669,-3.4178,0.0,0.0,-3.2829,-3.1983,-3.1558,-3.1724,-3.0972,-3.0448,-3.0264,-3.0016,-3.0215,-3.0876,-3.1872,-3.2736,-3.3444,-3.2415,-3.2596,-3.3743,-3.2712,-3.1914,-3.1327,-3.1272,-3.0201,-2.8556,-2.8625,-2.8594,-2.8531,-2.8484,-2.8594,-2.8803,-2.8731,-2.8798,-2.8893,-2.897,-2.8994,-2.9023,-2.909,-2.909,-2.909,-2.8947,-2.8719,-2.8516,-2.8529,-2.8301,-2.804,-2.804,-2.804,-2.8058,-2.8058,-2.8054,-2.8067,-2.8054,-2.797,-2.795,-2.8197,-2.8147,-2.8134,-2.8298,-2.8559,-2.8318,-2.7163,-2.5976,-2.5529,0.0,0.0,-2.4039,-2.5467,-2.6206,-2.5897,0.0,0.0,0.0,0.0,0.0,-2.4736,-2.502,-2.5799,-2.6525,-2.7173,-2.7173,-2.7686,-2.871,-3.0152,-3.1324,-3.224,-3.2619,-3.2978,-3.3291,-3.2986,-3.2842,-3.286,-3.305,-3.2928,-3.2638,-3.3006,-3.3454,-3.392,-3.3953,-3.4085,-3.4231,-4.1711,-4.2533,-4.3013,-4.2398,-4.2149,-4.1935,-4.1655,-4.049,-3.9597,-3.9443,-3.8747,-3.8211,-3.8093,-3.7446,-3.689,-3.6492,-3.4495,-3.3184,-3.305,-3.2574,-3.2542,-3.302,-3.2377,-3.1706,-3.1048,-3.1519,-3.2009,-3.2541,-3.2784,-3.3013,-3.3193,-3.3187,-3.3348,-3.362,-3.306,-3.2324,-3.1489,-3.0928,-3.0067,-2.9119,-2.9067,-2.9055,-2.9026,-2.9021,-2.8945,-2.8863,-2.887,-2.8767,-2.87,-2.887,-2.8929,-2.9062,-2.9826,-3.0097,-2.9991,-2.9212,-2.8755,-2.8554,-2.8809,-2.8713,-2.8548,-2.8602,-2.8565,-2.8527,-2.8527,-2.8694,-2.8803,-2.8639,-2.8707,-2.8761,-2.8663,-2.8663,-2.87,-2.8749,-2.8304,-2.7482,-2.6127,-2.5736,-2.5466,0.0,-2.5842,-2.6687,-2.7595,-2.7074,-2.6589,0.0,0.0,-2.5541,-2.5029,-2.6746,-2.7014,-2.5422,-2.6632,-2.7502,-2.7866,-2.7866,-2.8416,-2.9513,-3.0086,-3.1055,-3.2365,-3.2557,-3.292,-3.3375,-3.3401,-3.3357,-3.3271,-3.3301,-3.3135,-3.285,-3.3196,-3.3304,-3.3277,-3.3527,-3.3676,-3.3749,-4.2392,-4.301,-4.3402,-4.3026,-4.2869,-4.2691,-4.2343,-4.1205,-4.0265,-3.9976,-3.916,-3.8634,-3.868,-3.8282,-3.783,-3.7463,-3.5403,-3.4101,-3.3986,-3.3451,-3.3295,-3.3611,-3.3318,-3.2905,-3.2399,-3.2525,-3.2657,-3.2828,-3.319,-3.3368,-3.3386,-3.3559,-3.3684,-3.3757,-3.3549,-3.2778,-3.1579,-3.117,-3.0268,-2.9119,-2.91,-2.9089,-2.9055,-2.898,-2.8934,-2.8905,-2.8905,-2.8834,-2.8773,-2.8975,-2.9044,-2.9203,-3.0123,-3.0179,-2.9932,-3.0143,-2.9818,-2.9367,-2.9188,-2.906,-2.8978,-2.906,-2.9055,-2.9021,-2.9021,-2.91,-2.9163,-2.9055,-2.9021,-2.8975,-2.887,-2.8846,-2.8742,-2.8446,-2.7797,-2.6847,-2.5437,-2.5263,-2.5268,-2.5203,-2.6089,-2.7083,-2.8072,-2.7716,-2.7288,-2.6916,-2.6833,0.0,-2.6379,-2.7967,-2.8245,-2.6832,-2.7795,-2.8666,-2.9335,-2.9587,-3.0194,-3.1174,-3.1391,-3.2066,-3.312,-3.3198,-3.3398,-3.3671,-3.3753,-3.3739,-3.3671,-3.3619,-3.3433,-3.3211,-3.3477,-3.3448,-3.3232,-3.3158,-3.3305,-3.3439,-4.3649,-4.3765,-4.3832,-4.3666,-4.3625,-4.3347,-4.2529,-4.1688,-4.0914,-4.0289,-3.9453,-3.8925,-3.8921,-3.8848,-3.8545,-3.7864,-3.6323,-3.5349,-3.5206,-3.4417,-3.399,-3.399,-3.3929,-3.3842,-3.3712,-3.3206,-3.2856,-3.2684,-3.3355,-3.3684,-3.3684,-3.3698,-3.3788,-3.3985,-3.3869,-3.2982,-3.1597,-3.1585,-3.0624,-2.9123,-2.9159,-2.9147,-2.907,-2.8834,-2.8822,-2.8917,-2.8917,-2.8917,-2.894,-2.9112,-2.9167,-2.9333,-3.0252,-3.0005,-2.9658,-3.1149,-3.1055,-3.0317,-2.9661,-2.9384,-2.9302,-2.9365,-2.9376,-2.9376,-2.9376,-2.9334,-2.9272,-2.9272,-2.9108,-2.894,-2.894,-2.8893,-2.8642,-2.7974,-2.7249,-2.6303,-2.4978,-2.4778,-2.5077,-2.5862,-2.6291,-2.698,-2.8162,-2.8494,-2.8207,-2.7182,-2.8049,-2.8466,-2.8084,-2.9014,-2.938,-2.8979,-2.9261,-2.9901,-3.0902,-3.1372,-3.1997,-3.2785,-3.2895,-3.3321,-3.3985,-3.3998,-3.3985,-3.3959,-3.3972,-3.3959,-3.3934,-3.3775,-3.3629,-3.352,-3.3657,-3.3643,-3.3518,-3.3049,-3.3166,-3.3362,-4.3753,-4.3786,-4.3804,-4.3769,-4.3178,-4.2661,-4.2516,-4.1286,-4.033,-4.0215,-3.9478,-3.9007,-3.9059,-3.8964,-3.884,-3.8711,-3.779,-3.6889,-3.6138,-3.5279,-3.4821,-3.4821,-3.4241,-3.3855,-3.3793,-3.3692,-3.3583,-3.3437,-3.3546,-3.3619,-3.3619,-3.3671,-3.378,-3.3889,-3.3271,-3.2465,-3.1604,-3.1549,-3.0961,-3.0079,-3.002,-3.0014,-2.991,-2.9227,-2.897,-2.8975,-2.8975,-2.8975,-2.8994,-2.9028,-2.904,-2.9297,-3.0778,-3.0722,-3.0298,-3.1158,-3.0918,-3.0314,-3.0249,-2.9736,-2.9229,-2.924,-2.9222,-2.9222,-2.9222,-2.9211,-2.9229,-2.9229,-2.9152,-2.9067,-2.9067,-2.91,-2.8926,-2.825,-2.6975,-2.5758,-2.4919,-2.4695,-2.5153,-2.6561,-2.7959,-2.9113,-2.9935,-3.0098,-3.0075,-2.988,-3.0057,-3.0439,-3.1087,-3.1752,-3.2083,-3.2007,-3.1266,-3.1042,-3.1397,-3.1531,-3.1973,-3.2729,-3.2754,-3.3159,-3.3908,-3.3972,-3.3908,-3.3753,-3.382,-3.3766,-3.3643,-3.3397,-3.3415,-3.3577,-3.3368,-3.3526,-3.3829,-3.3734,-3.3776,-3.3792,-4.3667,-4.3684,-4.3684,-4.3684,-4.3002,-4.2302,-4.1907,-4.0914,-4.0063,-3.9662,-3.9286,-3.9078,-3.9101,-3.9021,-3.895,-3.895,-3.8516,-3.8092,-3.7662,-3.6423,-3.5481,-3.5023,-3.4706,-3.4328,-3.386,-3.3815,-3.378,-3.3712,-3.3712,-3.3712,-3.3712,-3.3739,-3.3793,-3.3823,-3.3482,-3.2888,-3.2151,-3.2108,-3.1379,-3.0276,-3.0681,-3.0338,-2.9555,-2.961,-2.9372,-2.9005,-2.9005,-2.9005,-2.9005,-2.9005,-2.9005,-2.9207,-3.0375,-3.0233,-2.9841,-3.1048,-3.057,-2.9653,-2.9694,-2.9451,-2.92,-2.92,-2.9544,-2.9898,-2.9898,-2.9898,-3.0028,-3.0454,-3.015,-2.9779,-2.9745,-2.9832,-2.9613,-2.8775,-2.7438,-2.6353,-2.5973,-2.6219,-2.672,-2.7457,-2.9326,-3.0648,-3.0912,-3.1032,-3.109,-3.109,-3.1055,-3.1429,-3.2332,-3.2613,-3.2957,-3.3381,-3.2805,-3.2363,-3.209,-3.2613,-3.3302,-3.4113,-3.3691,-3.3925,-3.4681,-3.4239,-3.4023,-3.3972,-3.3998,-3.3985,-3.3908,-3.3797,-3.3743,-3.3766,-3.3743,-3.3797,-3.3852,-3.3586,-3.3641,-3.3779,-4.3565,-4.3565,-4.3565,-4.3565,-4.2919,-4.2216,-4.1636,-4.0769,-4.0003,-3.943,-3.9185,-3.9073,-3.9101,-3.905,-3.8993,-3.8993,-3.8896,-3.8822,-3.8807,-3.7577,-3.6486,-3.561,-3.5262,-3.4714,-3.3939,-3.3842,-3.3807,-3.3807,-3.3807,-3.3807,-3.3807,-3.3807,-3.3807,-3.3788,-3.3605,-3.3183,-3.2601,-3.2601,-3.1885,-3.0815,-3.1421,-3.0944,-2.9867,-3.0106,-2.9824,-2.9244,-2.9078,-2.9005,-2.9005,-2.9005,-2.9005,-2.9133,-2.9941,-2.9647,-2.928,-3.0705,-3.0294,-2.9384,-2.9384,-2.9569,-2.9773,-2.9773,-3.0257,-3.0772,-3.0772,-3.0772,-3.0939,-3.155,-3.1145,-3.0655,-3.0609,-3.0685,-3.0461,-2.9532,-2.8366,-2.7605,-2.7736,-2.8079,-2.8505,-2.9076,-3.0741,-3.1783,-3.169,-3.1931,-3.2029,-3.1863,-3.1961,-3.236,-3.3075,-3.3068,-3.324,-3.3677,-3.3697,-3.3455,-3.2936,-3.3633,-3.4441,-3.5296,-3.4512,-3.4574,-3.5356,-3.4494,-3.4124,-3.4173,-3.4197,-3.4197,-3.4197,-3.4148,-3.4074,-3.3985,-3.4086,-3.4061,-3.3924,-3.3516,-3.3481,-3.351,-4.3515,-4.3515,-4.3515,-4.3515,-4.2886,-4.2368,-4.2329,-4.1108,-4.0178,-4.0137,-3.947,-3.9036,-3.9087,-3.905,-3.8993,-3.8993,-3.8921,-3.8881,-3.8807,-3.8624,-3.8157,-3.7345,-3.5826,-3.4687,-3.4004,-3.3855,-3.3807,-3.3807,-3.3807,-3.3807,-3.3807,-3.3807,-3.3807,-3.377,-3.3023,-3.2656,-3.2601,-3.2601,-3.2528,-3.2436,-3.2491,-3.2436,-3.2179,-3.073,-3.0173,-3.0008,-2.9262,-2.9005,-2.9005,-2.9005,-2.9005,-2.9133,-2.9941,-2.9647,-2.917,-3.0026,-3.0257,-3.0206,-3.0206,-3.0805,-3.1418,-3.1418,-3.1473,-3.151,-3.151,-3.151,-3.154,-3.1596,-3.1565,-3.151,-3.151,-3.1517,-3.1309,-3.0675,-2.9811,-2.9483,-3.0217,-2.9675,-2.9978,-3.2022,-3.2425,-3.2522,-3.2509,-3.3183,-3.3324,-3.2577,-3.3201,-3.3655,-3.3742,-3.3728,-3.3443,-3.2827,-3.3623,-3.3999,-3.3893,-3.3979,-3.4441,-3.5296,-3.4371,-3.4408,-3.5291,-3.4468,-3.4099,-3.4111,-3.4173,-3.4197,-3.4185,-3.3998,-3.4023,-3.4161,-3.3985,-3.4023,-3.4166,-3.4123,-3.358,-3.2963,-4.3515,-4.3515,-4.3515,-4.3515,-4.2886,-4.2386,-4.2386,-4.1541,-4.0729,-4.027,-3.9937,-3.9577,-3.9143,-3.9073,-3.905,-3.8993,-3.8935,-3.8881,-3.8807,-3.8735,-3.837,-3.7603,-3.5913,-3.4917,-3.475,-3.4118,-3.3807,-3.3807,-3.3807,-3.3807,-3.3807,-3.3807,-3.3807,-3.3788,-3.3476,-3.3348,-3.3348,-3.3348,-3.3073,-3.2638,-3.3146,-3.2742,-3.1843,-3.172,-3.106,-3.0173,-2.9861,-2.9427,-2.9005,-2.9005,-2.9005,-2.906,-2.9354,-2.9244,-2.906,-2.9372,-2.9871,-3.042,-3.0964,-3.1339,-3.1602,-3.1602,-3.2014,-3.2408,-3.2408,-3.2444,-3.2616,-3.3116,-3.2765,-3.2396,-3.2348,-3.2336,-3.2244,-3.1917,-3.1231,-3.0972,-3.1727,-3.1519,-3.1605,-3.2504,-3.3002,-3.3308,-3.3401,-3.3671,-3.3745,-3.3432,-3.369,-3.3842,-3.3788,-3.3829,-3.3739,-3.3453,-3.3819,-3.3771,-3.3196,-3.3694,-3.4331,-3.5106,-3.4246,-3.4328,-3.521,-3.4404,-3.4061,-3.4099,-3.4173,-3.4197,-3.4197,-3.4124,-3.4136,-3.4197,-3.4124,-3.4136,-3.4209,-3.4245,-3.4011,-3.3654,-4.341,-4.341,-4.341,-4.341,-4.2987,-4.2655,-4.2655,-4.2024,-4.1293,-4.0609,-4.0303,-3.99,-3.918,-3.9101,-3.9073,-3.9011,-3.8935,-3.8881,-3.8807,-3.8735,-3.837,-3.7632,-3.6438,-3.5597,-3.5188,-3.4513,-3.4064,-3.3807,-3.3807,-3.3807,-3.3788,-3.3532,-3.3568,-3.3788,-3.3532,-3.3568,-3.382,-3.3881,-3.3607,-3.3159,-3.3771,-3.3358,-3.2378,-3.2355,-3.1666,-3.0623,-3.0031,-2.9464,-2.9005,-2.9005,-2.9005,-2.9042,-2.9322,-2.9572,-2.9774,-2.9751,-3.0368,-3.1182,-3.1783,-3.2151,-3.236,-3.2384,-3.2822,-3.3259,-3.3259,-3.3277,-3.3468,-3.4025,-3.3654,-3.3216,-3.3198,-3.316,-3.3123,-3.302,-3.2573,-3.2395,-3.2908,-3.3193,-3.3266,-3.3005,-3.367,-3.41,-3.3892,-3.3881,-3.3895,-3.3895,-3.3895,-3.3868,-3.3829,-3.3895,-3.3934,-3.3959,-3.4023,-3.3815,-3.3272,-3.3985,-3.4718,-3.5487,-3.4998,-3.5217,-3.6051,-3.5013,-3.4569,-3.4587,-3.4369,-3.4293,-3.4333,-3.4333,-3.4367,-3.4413,-3.4413,-3.4413,-3.4424,-3.4469,-3.4274,-3.3956,-4.3214,-4.3214,-4.3214,-4.3214,-4.3214,-4.3214,-4.3196,-4.2574,-4.1873,-4.1284,-4.0551,-3.9826,-3.918,-3.9101,-3.9073,-3.8993,-3.8939,-3.8881,-3.8807,-3.8735,-3.837,-3.7632,-3.7555,-3.675,-3.5138,-3.5032,-3.4619,-3.3807,-3.3807,-3.3807,-3.377,-3.2981,-3.3036,-3.3752,-3.2963,-3.3054,-3.3815,-3.4086,-3.4209,-3.4221,-3.4409,-3.4508,-3.4298,-3.2501,-3.1797,-3.1541,-2.9678,-2.9005,-2.9005,-2.9005,-2.9005,-2.9163,-3.0035,-3.085,-3.1483,-3.144,-3.2022,-3.2698,-3.2716,-3.3357,-3.4005,-3.4086,-3.4049,-3.3998,-3.3998,-3.3998,-3.3998,-3.3998,-3.4029,-3.4029,-3.4029,-3.3965,-3.3926,-3.3926,-3.386,-3.382,-3.382,-3.4604,-3.4852,-3.3912,-3.4623,-3.482,-3.3894,-3.3855,-3.3895,-3.3895,-3.3913,-3.3913,-3.3913,-3.3978,-3.4055,-3.4117,-3.4191,-3.4323,-3.4525,-3.5027,-3.5732,-3.6586,-3.6719,-3.7205,-3.7932,-3.6407,-3.5716,-3.5649,-3.4794,-3.4498,-3.4612,-3.4612,-3.4723,-3.4908,-3.4908,-3.4908,-3.4908,-3.4908,-3.4311,-3.3599,-4.3214,-4.3214,-4.3214,-4.3214,-4.3214,-4.3032,-4.2573,-4.2298,-4.1725,-4.0512,-4.0173,-3.9755,-3.9042,-3.8921,-3.8877,-3.8848,-3.881,-3.875,-3.8719,-3.8093,-3.7879,-3.8221,-3.7756,-3.7272,-3.6791,-3.5605,-3.494,-3.4775,-3.4181,-3.3868,-3.385,-3.3046,-3.3075,-3.3765,-3.3167,-3.3327,-3.4099,-3.4314,-3.4398,-3.4428,-3.4475,-3.4428,-3.4174,-3.3073,-3.2173,-3.1378,-3.0252,-2.9482,-2.9005,-2.9005,-2.9407,-3.0053,-3.0934,-3.1382,-3.1701,-3.2351,-3.2319,-3.2495,-3.4416,-3.4213,-3.3538,-3.3926,-3.4011,-3.3998,-3.3998,-3.4587,-3.5112,-3.5112,-3.568,-3.6185,-3.6176,-3.6115,-3.5885,-3.5254,-3.5191,-3.4997,-3.4389,-3.4531,-3.4598,-3.4314,-3.4414,-3.4427,-3.4228,-3.4074,-3.3985,-3.4036,-3.4552,-3.513,-3.5684,-3.5912,-3.6037,-3.6062,-3.6264,-3.64,-3.6462,-3.5315,-3.5198,-3.611,-3.61,-3.6512,-3.7289,-3.6919,-3.6746,-3.6738,-3.6523,-3.6454,-3.644,-3.5895,-3.569,-3.5693,-3.5126,-3.4908,-3.4889,-3.4908,-3.4593,-3.4097,-4.3105,-4.3123,-4.3142,-4.3087,-4.3214,-4.314,-4.2558,-4.2404,-4.1989,-4.0932,-4.0331,-3.9817,-3.9304,-3.8973,-3.8792,-3.8747,-3.867,-3.8673,-3.878,-3.8117,-3.8028,-3.8703,-3.8269,-3.7823,-3.7387,-3.6102,-3.5471,-3.5564,-3.4439,-3.4079,-3.4392,-3.3364,-3.326,-3.3974,-3.3371,-3.3568,-3.4325,-3.4569,-3.4663,-3.4663,-3.4735,-3.4704,-3.4505,-3.3623,-3.2608,-3.1596,-3.1048,-3.0249,-2.9519,-2.9831,-3.0604,-3.1561,-3.2451,-3.298,-3.3443,-3.4314,-3.4232,-3.4222,-3.5882,-3.554,-3.4772,-3.5106,-3.486,-3.4642,-3.5013,-3.5597,-3.6191,-3.6585,-3.6878,-3.7171,-3.7513,-3.7269,-3.6833,-3.6299,-3.6246,-3.61,-3.5562,-3.5517,-3.5393,-3.5063,-3.5214,-3.5231,-3.4989,-3.4758,-3.4649,-3.4686,-3.5572,-3.6286,-3.6746,-3.6955,-3.72,-3.7519,-3.7381,-3.7499,-3.7892,-3.6458,-3.6132,-3.6925,-3.7292,-3.7729,-3.8191,-3.7942,-3.7842,-3.7823,-3.749,-3.736,-3.7364,-3.6587,-3.6293,-3.6252,-3.5458,-3.4905,-3.4586,-3.4573,-3.4215,-3.3589,-4.2959,-4.3051,-4.3142,-4.2941,-4.3193,-4.3332,-4.2978,-4.2702,-4.24,-4.2058,-4.0829,-3.9964,-3.9856,-3.9203,-3.8762,-3.8689,-3.8504,-3.853,-3.8862,-3.8533,-3.8542,-3.9087,-3.8921,-3.833,-3.7277,-3.6604,-3.6241,-3.6168,-3.476,-3.4513,-3.5329,-3.3893,-3.3657,-3.4403,-3.3733,-3.3845,-3.4551,-3.4831,-3.4936,-3.4936,-3.5124,-3.5193,-3.5073,-3.408,-3.3082,-3.2162,-3.1918,-3.1202,-3.0483,-3.1305,-3.2321,-3.34,-3.4337,-3.524,-3.6081,-3.6904,-3.711,-3.7107,-3.7261,-3.7189,-3.7103,-3.7254,-3.6496,-3.5932,-3.6746,-3.6939,-3.7249,-3.8251,-3.7845,-3.7536,-3.835,-3.7841,-3.7283,-3.7208,-3.7208,-3.717,-3.7095,-3.7144,-3.688,-3.6083,-3.6658,-3.6828,-3.6039,-3.5833,-3.5771,-3.5846,-3.6825,-3.7414,-3.7426,-3.75,-3.7891,-3.8617,-3.7945,-3.801,-3.8918,-3.8213,-3.808,-3.8564,-3.949,-3.997,-3.9998,-3.9184,-3.8833,-3.8766,-3.7822,-3.7538,-3.7678,-3.692,-3.6679,-3.6703,-3.5811,-3.4906,-3.4081,-3.4005,-3.3341,-3.2458,-4.2844,-4.3401,-4.3774,-4.2962,-4.301,-4.318,-4.3151,-4.2436,-4.1918,-4.1983,-4.083,-4.0028,-4.0119,-3.929,-3.8658,-3.8541,-3.7896,-3.7866,-3.8752,-3.8077,-3.8074,-3.905,-3.9003,-3.8557,-3.7678,-3.7622,-3.7307,-3.6727,-3.5836,-3.5815,-3.6583,-3.5012,-3.4678,-3.5364,-3.4747,-3.4613,-3.4831,-3.5035,-3.5132,-3.5132,-3.5174,-3.5107,-3.4878,-3.4016,-3.3422,-3.2951,-3.2282,-3.1885,-3.1825,-3.2681,-3.3545,-3.4441,-3.5321,-3.6239,-3.7146,-3.8052,-3.7965,-3.787,-3.9276,-3.8691,-3.8002,-3.9259,-3.8861,-3.8117,-3.7999,-3.8139,-3.855,-3.9454,-3.9643,-3.9726,-3.9906,-3.9836,-3.9527,-3.8833,-3.8725,-3.8493,-3.7868,-3.774,-3.7657,-3.7477,-3.7478,-3.7414,-3.7223,-3.7043,-3.7189,-3.7819,-3.809,-3.8508,-3.9127,-3.9329,-3.9499,-3.9669,-3.967,-3.9748,-3.9967,-3.9805,-3.9461,-3.8975,-3.9193,-3.9623,-4.0215,-3.9356,-3.8965,-3.8907,-3.803,-3.8039,-3.863,-3.7799,-3.7453,-3.7334,-3.5851,-3.476,-3.3941,-3.3261,-3.2719,-3.223,-4.3557,-4.3929,-4.4158,-4.361,-4.3386,-4.3253,-4.3117,-4.2542,-4.2197,-4.2364,-4.1249,-4.0533,-4.0785,-3.9659,-3.8851,-3.8781,-3.8354,-3.8339,-3.9013,-3.8496,-3.8526,-3.9343,-3.8859,-3.8257,-3.7585,-3.8015,-3.7959,-3.738,-3.6286,-3.6171,-3.6972,-3.5875,-3.5344,-3.5304,-3.5078,-3.5228,-3.5627,-3.5725,-3.5768,-3.5768,-3.5768,-3.5477,-3.5008,-3.4579,-3.4035,-3.3478,-3.3401,-3.3343,-3.3445,-3.4365,-3.5011,-3.5656,-3.7005,-3.7757,-3.8328,-3.9241,-3.9265,-3.9188,-4.0191,-3.9811,-3.9331,-4.0183,-4.0024,-3.9585,-3.9327,-3.9336,-3.9691,-4.0652,-4.0635,-4.0567,-4.0987,-4.0761,-4.0354,-3.9888,-3.9792,-3.9631,-3.9196,-3.8754,-3.8473,-3.8473,-3.838,-3.8276,-3.8137,-3.8518,-3.8726,-3.8612,-3.9095,-3.9594,-4.0013,-4.012,-4.0205,-4.0232,-4.0342,-4.037,-4.0307,-4.0325,-4.0096,-3.9612,-3.9613,-3.9852,-4.0234,-3.9748,-3.93,-3.889,-3.8413,-3.826,-3.826,-3.743,-3.6856,-3.6377,-3.5125,-3.3829,-3.2653,-3.2203,-3.1694,-3.117,-4.4327,-4.4423,-4.4531,-4.4308,-4.381,-4.3399,-4.3253,-4.2868,-4.2704,-4.3002,-4.1895,-4.1237,-4.1633,-4.0155,-3.9165,-3.9173,-3.9082,-3.9096,-3.9311,-3.9151,-3.9277,-3.9722,-3.8869,-3.8059,-3.7377,-3.8126,-3.8232,-3.7598,-3.6515,-3.6355,-3.7068,-3.6615,-3.6026,-3.5325,-3.551,-3.5954,-3.6566,-3.6423,-3.6366,-3.6366,-3.6366,-3.5886,-3.5185,-3.5185,-3.4662,-3.4025,-3.4652,-3.4926,-3.5095,-3.5923,-3.6461,-3.7054,-3.861,-3.9216,-3.9479,-4.0213,-4.0438,-4.0489,-4.0546,-4.0534,-4.0534,-4.0534,-4.0534,-4.0504,-4.0394,-4.0309,-4.0532,-4.158,-4.1104,-4.0727,-4.1466,-4.0993,-4.0519,-4.0519,-4.0462,-4.0438,-4.0438,-3.981,-3.9355,-3.9355,-3.9347,-3.9252,-3.9033,-3.985,-4.0011,-3.9051,-3.9869,-4.0405,-4.0408,-4.0397,-4.0438,-4.0488,-4.0485,-4.0438,-4.0317,-4.0236,-4.0204,-4.0224,-4.0072,-4.0063,-4.0186,-3.9832,-3.9355,-3.8775,-3.8356,-3.8033,-3.7738,-3.6785,-3.5983,-3.5295,-3.432,-3.2866,-3.1321,-3.1325,-3.091,-3.0333,-4.416,-4.4755,-4.5151,-4.4285,-4.3645,-4.3431,-4.4027,-4.3254,-4.2946,-4.3884,-4.2746,-4.1976,-4.2333,-4.0563,-3.9414,-3.9517,-3.921,-3.9114,-3.9363,-3.935,-3.9526,-3.9933,-3.9701,-3.8929,-3.7585,-3.8233,-3.7883,-3.6419,-3.6921,-3.7234,-3.7339,-3.7265,-3.7172,-3.7058,-3.7078,-3.7164,-3.7221,-3.6521,-3.6236,-3.6236,-3.6236,-3.5779,-3.511,-3.511,-3.5025,-3.494,-3.5147,-3.5744,-3.6431,-3.6562,-3.7551,-3.878,-3.9031,-3.966,-4.0327,-4.0458,-4.0605,-4.0739,-4.0765,-4.0726,-4.0668,-4.0668,-4.0662,-4.0673,-4.0647,-4.0492,-4.0628,-4.1607,-4.1104,-4.0558,-4.074,-4.067,-4.06,-4.06,-4.0574,-4.0566,-4.0566,-4.0472,-4.0411,-4.0411,-4.035,-4.031,-4.0268,-4.0345,-4.0341,-4.0172,-4.0313,-4.0388,-4.0396,-4.04,-4.0406,-4.0403,-4.0473,-4.0454,-4.0397,-3.9706,-3.9701,-4.037,-3.9552,-3.9526,-4.0158,-3.8633,-3.8242,-3.8679,-3.6539,-3.6767,-3.8527,-3.6958,-3.6245,-3.5989,-3.4376,-3.2786,-3.1386,-3.1458,-3.1403,-3.1423,-4.4959,-4.5254,-4.5462,-4.5015,-4.4308,-4.3769,-4.3646,-4.3205,-4.3049,-4.3462,-4.2967,-4.2578,-4.2609,-4.0961,-3.984,-3.9819,-3.9709,-3.9652,-3.9736,-3.9769,-3.9876,-4.004,-3.9603,-3.8842,-3.7733,-3.8413,-3.7766,-3.5694,-3.6805,-3.7409,-3.7509,-3.747,-3.7222,-3.6805,-3.729,-3.7734,-3.81,-3.7823,-3.7424,-3.6986,-3.7059,-3.6349,-3.5212,-3.5254,-3.5231,-3.5278,-3.5836,-3.6627,-3.7495,-3.7909,-3.8597,-3.9354,-3.9804,-4.0227,-4.0569,-4.0557,-4.0626,-4.07,-4.07,-4.0681,-4.0642,-4.0642,-4.0648,-4.0647,-4.0646,-4.0954,-4.1224,-4.1147,-4.0826,-4.0552,-4.0588,-4.0595,-4.0595,-4.0595,-4.0593,-4.0598,-4.0598,-4.0561,-4.0539,-4.0539,-4.0527,-4.0495,-4.0444,-4.0452,-4.0636,-4.1091,-4.0705,-4.0688,-4.1216,-4.0785,-4.0531,-4.0576,-4.0564,-4.0515,-4.0465,-4.0135,-4.0122,-4.0396,-3.9976,-3.9952,-4.0233,-3.9414,-3.9004,-3.8861,-3.7754,-3.7373,-3.7459,-3.6717,-3.5573,-3.4266,-3.3971,-3.2886,-3.1393,-3.0982,-3.0849,-3.0943]},{"header":{"parameterUnit":"m.s-1","parameterCategory":1,"la1":30.6,"la2":28.766,"lo1":-90.7593,"lo2":-88.6598,"dy":0.0162,"dx":0.0183,"nx":116,"ny":114,"refTime":"2023-08-12T12:00:00:Z","depth":0,"parameterNumber":3,"parameterNumberName":"V-component_of_WINDS"},"data":[0.0,0.0,0.0,0.0,0.0,0.0,0.0,0.0,0.0,0.0,0.0,0.0,0.0,0.0,0.0,0.0,0.0,0.0,0.0,0.0,0.0,0.0,0.0,0.0,0.0,0.0,0.0,0.0,0.0,0.0,0.0,0.0,0.0,0.0,0.0,0.0,0.0,0.0,0.0,0.0,0.0,0.0,0.0,0.0,0.0,0.0,0.0,0.0,0.0,0.0,0.0,0.0,0.0,0.0,0.0,0.0,0.0,0.0,0.0,0.0,0.0,0.0,0.0,0.0,0.0,0.0,0.0,0.0,0.0,0.0,0.0,0.0,0.0,0.0,0.0,0.0,0.0,0.0,0.0,0.0,0.0,0.0,0.0,0.0,0.0,0.0,0.0,0.0,0.0,0.0,0.0,0.0,0.0,0.0,0.0,0.0,0.0,0.0,0.0,0.0,0.0,0.0,0.0,0.0,0.0,0.0,0.0,0.0,0.0,0.0,0.0,0.0,0.0,0.0,0.0,0.0,0.0,0.0,0.0,0.0,0.0,0.0,0.0,0.0,0.0,0.0,0.0,0.0,0.0,0.0,0.0,0.0,0.0,0.0,0.0,0.0,0.0,0.0,0.0,0.0,0.0,0.0,0.0,0.0,0.0,0.0,0.0,0.0,0.0,0.0,0.0,0.0,0.0,0.0,0.0,0.0,0.0,0.0,0.0,0.0,0.0,0.0,0.0,0.0,0.0,0.0,0.0,0.0,0.0,0.0,0.0,0.0,0.0,0.0,0.0,0.0,0.0,0.0,0.0,0.0,0.0,0.0,0.0,0.0,0.0,0.0,0.0,0.0,0.0,0.0,0.0,0.0,0.0,0.0,0.0,0.0,0.0,0.0,0.0,0.0,0.0,0.0,0.0,0.0,0.0,0.0,0.0,0.0,0.0,0.0,0.0,0.0,0.0,0.0,0.0,0.0,0.0,0.0,0.0,0.0,0.0,0.0,0.0,0.0,0.0,0.0,0.0,0.0,0.0,0.0,0.0,0.0,0.0,0.0,0.0,0.0,0.0,0.0,0.0,0.0,0.0,0.0,0.0,0.0,0.0,0.0,0.0,0.0,0.0,0.0,0.0,0.0,0.0,0.0,0.0,0.0,0.0,0.0,0.0,0.0,0.0,0.0,0.0,0.0,0.0,0.0,0.0,0.0,0.0,0.0,0.0,0.0,0.0,0.0,0.0,0.0,0.0,0.0,0.0,0.0,0.0,0.0,0.0,0.0,0.0,0.0,0.0,0.0,0.0,0.0,0.0,0.0,0.0,0.0,0.0,0.0,0.0,0.0,0.0,0.0,0.0,0.0,0.0,0.0,0.0,0.0,0.0,0.0,0.0,0.0,0.0,0.0,0.0,0.0,0.0,0.0,0.0,0.0,0.0,0.0,0.0,0.0,0.0,0.0,0.0,0.0,0.0,0.0,0.0,0.0,0.0,0.0,0.0,0.0,0.0,0.0,0.0,0.0,0.0,0.0,0.0,0.0,0.0,0.0,0.0,0.0,0.0,0.0,0.0,0.0,0.0,0.0,0.0,0.0,0.0,0.0,0.0,0.0,0.0,0.0,0.0,0.0,0.0,0.0,0.0,0.0,0.0,0.0,0.0,0.0,0.0,0.0,0.0,0.0,0.0,0.0,0.0,0.0,0.0,0.0,0.0,0.0,0.0,0.0,0.0,0.0,0.0,0.0,0.0,0.0,0.0,0.0,0.0,0.0,0.0,0.0,0.0,0.0,0.0,0.0,0.0,0.0,0.0,0.0,0.0,0.0,0.0,0.0,0.0,0.0,0.0,0.0,0.0,0.0,0.0,0.0,0.0,0.0,0.0,0.0,0.0,0.0,0.0,0.0,0.0,0.0,0.0,0.0,0.0,0.0,0.0,0.0,0.0,0.0,0.0,0.0,0.0,0.0,0.0,0.0,0.0,0.0,0.0,0.0,0.0,0.0,0.0,0.0,0.0,0.0,0.0,0.0,0.0,0.0,0.0,0.0,0.0,0.0,0.0,0.0,0.0,0.0,0.0,0.0,0.0,0.0,0.0,0.0,0.0,0.0,0.0,0.0,0.0,0.0,0.0,0.0,0.0,0.0,0.0,0.0,0.0,0.0,0.0,0.0,0.0,0.0,0.0,0.0,0.0,0.0,0.0,0.0,0.0,0.0,0.0,0.0,0.0,0.0,0.0,0.0,0.0,0.0,0.0,0.0,0.0,0.0,0.0,0.0,0.0,0.0,0.0,0.0,0.0,0.0,0.0,0.0,0.0,0.0,0.0,0.0,0.0,0.0,0.0,0.0,0.0,0.0,0.0,0.0,0.0,0.0,0.0,0.0,0.0,0.0,0.0,0.0,0.0,0.0,0.0,0.0,0.0,0.0,0.0,0.0,0.0,0.0,0.0,0.0,0.0,0.0,0.0,0.0,0.0,0.0,0.0,0.0,0.0,0.0,0.0,0.0,0.0,0.0,0.0,0.0,0.0,0.0,0.0,0.0,0.0,0.0,0.0,0.0,0.0,0.0,0.0,0.0,0.0,0.0,0.0,0.0,0.0,0.0,0.0,0.0,0.0,0.0,0.0,0.0,0.0,0.0,0.0,0.0,0.0,0.0,0.0,0.0,0.0,0.0,0.0,0.0,0.0,0.0,0.0,0.0,0.0,0.0,0.0,0.0,0.0,0.0,0.0,0.0,0.0,0.0,0.0,0.0,0.0,0.0,0.0,0.0,0.0,0.0,0.0,0.0,0.0,0.0,0.0,0.0,0.0,0.0,0.0,0.0,0.0,0.0,0.0,0.0,0.0,0.0,0.0,0.0,0.0,0.0,0.0,0.0,0.0,0.0,0.0,0.0,0.0,0.0,0.0,0.0,0.0,0.0,0.0,0.0,0.0,0.0,0.0,0.0,0.0,0.0,0.0,0.0,0.0,0.0,0.0,0.0,0.0,0.0,0.0,0.0,0.0,0.0,0.0,0.0,0.0,0.0,0.0,0.0,0.0,0.0,0.0,0.0,0.0,0.0,0.0,0.0,0.0,0.0,0.0,0.0,0.0,0.0,0.0,0.0,0.0,0.0,0.0,0.0,0.0,0.0,0.0,0.0,0.0,0.0,0.0,0.0,0.0,0.0,0.0,0.0,0.0,0.0,0.0,0.0,0.0,0.0,0.0,0.0,0.0,0.0,0.0,0.0,0.0,0.0,0.0,0.0,0.0,0.0,0.0,0.0,0.0,0.0,0.0,0.0,0.0,0.0,0.0,0.0,0.0,0.0,0.0,0.0,0.0,0.0,0.0,0.0,0.0,0.0,0.0,0.0,0.0,0.0,0.0,0.0,0.0,0.0,0.0,0.0,0.0,0.0,0.0,0.0,0.0,0.0,0.0,0.0,0.0,0.0,0.0,0.0,0.0,0.0,0.0,0.0,0.0,0.0,0.0,0.0,0.0,0.0,0.0,0.0,0.0,0.0,0.0,0.0,0.0,0.0,0.0,0.0,0.0,0.0,0.0,0.0,0.0,0.0,0.0,0.0,0.0,0.0,0.0,0.0,0.0,0.0,0.0,0.0,0.0,0.0,0.0,0.0,0.0,0.0,0.0,0.0,0.0,0.0,0.0,0.0,0.0,0.0,0.0,0.0,0.0,0.0,0.0,0.0,0.0,0.0,0.0,0.0,0.0,0.0,0.0,0.0,0.0,0.0,0.0,0.0,0.0,0.0,0.0,0.0,0.0,0.0,0.0,0.0,0.0,0.0,0.0,0.0,0.0,0.0,0.0,0.0,0.0,0.0,0.0,0.0,0.0,0.0,0.0,0.0,0.0,0.0,0.0,0.0,0.0,0.0,0.0,0.0,0.0,0.0,0.0,0.0,0.0,0.0,0.0,0.0,0.0,0.0,0.0,0.0,0.0,0.0,0.0,0.0,0.0,0.0,0.0,0.0,0.0,0.0,0.0,0.0,0.0,0.0,0.0,0.0,0.0,0.0,0.0,0.0,0.0,0.0,0.0,0.0,0.0,0.0,0.0,0.0,0.0,0.0,0.0,0.0,0.0,0.0,0.0,0.0,0.0,0.0,0.0,0.0,0.0,0.0,0.0,0.0,0.0,0.0,0.0,0.0,0.0,0.0,0.0,0.0,0.0,0.0,0.0,0.0,0.0,0.0,0.0,0.0,0.0,0.0,0.0,0.0,0.0,0.0,0.0,0.0,0.0,0.0,0.0,0.0,0.0,0.0,0.0,0.0,0.0,0.0,0.0,0.0,0.0,0.0,0.0,0.0,0.0,0.0,0.0,0.0,0.0,0.0,0.0,0.0,0.0,0.0,0.0,0.0,0.0,0.0,0.0,0.0,0.0,0.0,0.0,0.0,0.0,0.0,0.0,0.0,0.0,0.0,0.0,0.0,0.0,0.0,0.0,0.0,0.0,0.0,0.0,0.0,0.0,0.0,0.0,0.0,0.0,0.0,0.0,0.0,0.0,0.0,0.0,0.0,0.0,0.0,0.0,0.0,0.0,0.0,0.0,0.0,0.0,0.0,0.0,0.0,0.0,0.0,0.0,0.0,0.0,0.0,0.0,0.0,0.0,0.0,0.0,0.0,0.0,0.0,0.0,0.0,0.0,0.0,0.0,0.0,0.0,0.0,0.0,0.0,0.0,0.0,0.0,0.0,0.0,0.0,0.0,0.0,0.0,0.0,0.0,0.0,0.0,0.0,0.0,0.0,0.0,0.0,0.0,0.0,0.0,0.0,0.0,0.0,0.0,0.0,0.0,0.0,0.0,0.0,0.0,0.0,0.0,0.0,0.0,0.0,0.0,0.0,0.0,0.0,0.0,0.0,0.0,0.0,0.0,0.0,0.0,0.0,0.0,0.0,0.0,0.0,0.0,0.0,0.0,0.0,0.0,0.0,0.0,0.0,0.0,0.0,0.0,0.0,0.0,0.0,0.0,0.0,0.0,0.0,0.0,0.0,0.0,0.0,0.0,0.0,0.0,0.0,0.0,0.0,0.0,0.0,0.0,0.0,0.0,0.0,0.0,0.0,0.0,0.0,0.0,0.0,0.0,0.0,0.0,0.0,0.0,0.0,0.0,0.0,0.0,0.0,0.0,0.0,0.0,0.0,0.0,0.0,0.0,0.0,0.0,0.0,0.0,0.0,0.0,0.0,0.0,0.0,0.0,0.0,0.0,0.0,0.0,0.0,0.0,0.0,0.0,0.0,0.0,0.0,0.0,0.0,0.0,0.0,0.0,0.0,0.0,0.0,0.0,0.0,0.0,0.0,0.0,0.0,0.0,0.0,0.0,0.0,0.0,0.0,0.0,0.0,0.0,0.0,0.0,0.0,0.0,0.0,0.0,0.0,0.0,0.0,0.0,0.0,0.0,0.0,0.0,0.0,0.0,0.0,0.0,0.0,0.0,0.0,0.0,0.0,0.0,0.0,0.0,0.0,0.0,0.0,0.0,0.0,0.0,0.0,0.0,0.0,0.0,0.0,0.0,0.0,0.0,0.0,0.0,0.0,0.0,0.0,0.0,0.0,0.0,0.0,0.0,0.0,0.0,0.0,0.0,0.0,0.0,0.0,0.0,0.0,0.0,0.0,0.0,0.0,0.0,0.0,0.0,0.0,0.0,0.0,0.0,0.0,0.0,0.0,0.0,0.0,0.0,0.0,0.0,0.0,0.0,0.0,0.0,0.0,0.0,0.0,0.0,0.0,0.0,0.0,0.0,0.0,0.0,0.0,0.0,0.0,0.0,0.0,0.0,0.0,0.0,0.0,0.0,0.0,0.0,0.0,0.0,0.0,0.0,0.0,0.0,0.0,0.0,0.0,0.0,0.0,0.0,0.0,0.0,0.0,0.0,0.0,0.0,0.0,0.0,0.0,0.0,0.0,0.0,0.0,0.0,0.0,0.0,0.0,0.0,0.0,0.0,0.0,0.0,0.0,0.0,0.0,0.0,0.0,0.0,0.0,0.0,0.0,0.0,0.0,0.0,0.0,0.0,0.0,0.0,0.0,0.0,0.0,0.0,0.0,0.0,0.0,0.0,0.0,0.0,0.0,0.0,0.0,0.0,0.0,0.0,0.0,0.0,0.0,0.0,0.0,-1.9737,0.0,0.0,0.0,0.0,0.0,0.0,0.0,0.0,0.0,0.0,0.0,0.0,0.0,0.0,0.0,0.0,0.0,0.0,0.0,0.0,0.0,0.0,0.0,0.0,0.0,0.0,0.0,0.0,0.0,0.0,0.0,0.0,0.0,0.0,0.0,0.0,0.0,0.0,0.0,0.0,0.0,0.0,0.0,0.0,0.0,0.0,0.0,0.0,0.0,0.0,0.0,0.0,0.0,0.0,0.0,0.0,0.0,0.0,0.0,0.0,0.0,0.0,0.0,0.0,0.0,0.0,0.0,0.0,0.0,0.0,0.0,0.0,0.0,0.0,0.0,0.0,0.0,0.0,0.0,0.0,0.0,0.0,0.0,0.0,0.0,0.0,0.0,0.0,0.0,0.0,0.0,0.0,0.0,0.0,0.0,0.0,0.0,0.0,0.0,0.0,0.0,0.0,0.0,0.0,0.0,0.0,0.0,0.0,0.0,0.0,0.0,0.0,0.0,0.0,0.0,0.0,-2.0763,0.0,0.0,0.0,0.0,0.0,0.0,0.0,0.0,0.0,0.0,0.0,0.0,0.0,0.0,0.0,0.0,0.0,0.0,0.0,0.0,0.0,0.0,0.0,0.0,0.0,0.0,0.0,0.0,0.0,0.0,0.0,0.0,0.0,0.0,0.0,0.0,0.0,0.0,0.0,0.0,0.0,0.0,0.0,0.0,0.0,0.0,0.0,0.0,0.0,0.0,0.0,0.0,0.0,0.0,0.0,0.0,0.0,0.0,0.0,0.0,0.0,0.0,0.0,0.0,0.0,0.0,0.0,0.0,0.0,0.0,0.0,0.0,0.0,0.0,0.0,0.0,0.0,0.0,0.0,0.0,0.0,0.0,0.0,0.0,0.0,0.0,0.0,0.0,0.0,0.0,0.0,0.0,0.0,0.0,0.0,0.0,0.0,0.0,0.0,0.0,0.0,0.0,0.0,0.0,0.0,0.0,0.0,0.0,-2.9089,-2.9416,-2.9013,-2.9312,-2.9074,-2.8334,-2.6889,-2.576,-2.4815,-2.3219,0.0,0.0,0.0,0.0,0.0,0.0,0.0,0.0,0.0,0.0,0.0,0.0,0.0,0.0,0.0,0.0,0.0,0.0,0.0,0.0,0.0,0.0,0.0,0.0,0.0,0.0,0.0,0.0,0.0,0.0,0.0,0.0,0.0,0.0,0.0,0.0,0.0,0.0,-2.4555,-2.4395,-2.5473,-2.738,0.0,0.0,0.0,0.0,0.0,0.0,0.0,0.0,0.0,0.0,0.0,0.0,0.0,0.0,0.0,0.0,0.0,0.0,0.0,0.0,0.0,0.0,0.0,0.0,0.0,0.0,0.0,0.0,0.0,0.0,0.0,0.0,0.0,0.0,0.0,0.0,0.0,0.0,0.0,0.0,0.0,0.0,0.0,0.0,-1.8902,-1.9601,0.0,0.0,0.0,0.0,0.0,0.0,0.0,0.0,0.0,0.0,0.0,0.0,0.0,-2.666,-2.7215,-3.2133,-3.396,-3.2676,-3.7194,-3.8515,-3.7016,-3.7379,-3.7732,-3.7896,-3.4966,0.0,-2.7433,-2.7585,0.0,0.0,0.0,0.0,0.0,0.0,0.0,0.0,0.0,0.0,0.0,0.0,0.0,0.0,0.0,0.0,0.0,0.0,0.0,0.0,0.0,0.0,0.0,0.0,0.0,0.0,0.0,0.0,0.0,0.0,0.0,0.0,0.0,0.0,0.0,0.0,-2.301,-2.4801,-2.8151,-2.7176,-2.8221,-3.0882,-2.9157,-2.8043,-2.746,-2.6066,0.0,0.0,0.0,0.0,0.0,0.0,0.0,0.0,0.0,0.0,0.0,0.0,0.0,0.0,0.0,0.0,0.0,0.0,0.0,0.0,0.0,0.0,0.0,0.0,0.0,0.0,0.0,0.0,0.0,0.0,0.0,0.0,0.0,0.0,0.0,0.0,0.0,0.0,0.0,-1.863,-2.0099,-1.9853,-2.0959,-2.1011,0.0,0.0,0.0,0.0,0.0,0.0,0.0,0.0,0.0,-2.7793,-2.9903,-3.1292,-3.1974,-3.6119,-3.8001,-3.7628,-4.0234,-4.1076,-4.0287,-4.0494,-4.0586,-4.0577,-3.9557,-3.7294,-3.4208,-3.1306,-2.969,-2.8705,0.0,0.0,0.0,0.0,-2.3623,-2.4351,0.0,0.0,0.0,0.0,0.0,0.0,0.0,0.0,0.0,0.0,0.0,0.0,0.0,0.0,0.0,-2.107,0.0,0.0,0.0,0.0,0.0,0.0,0.0,0.0,0.0,0.0,0.0,0.0,-2.5628,-2.7773,-3.153,-3.0484,-3.135,-3.3783,-3.3525,-3.2337,-3.0423,-2.9157,-2.7332,0.0,0.0,0.0,0.0,0.0,0.0,0.0,0.0,0.0,0.0,0.0,0.0,0.0,0.0,0.0,0.0,0.0,0.0,0.0,0.0,0.0,0.0,0.0,0.0,0.0,0.0,0.0,0.0,0.0,0.0,0.0,0.0,0.0,0.0,0.0,0.0,0.0,0.0,-2.0486,-2.2144,-2.1225,-2.3502,-2.4198,0.0,0.0,0.0,0.0,0.0,0.0,-2.8377,-3.0156,-3.1557,-3.2442,-3.4797,-3.6292,-3.6805,-3.9678,-4.1357,-4.1811,-4.2305,-4.2577,-4.2586,-4.2408,-4.2221,-4.2006,-4.2316,-4.1619,-3.9917,-3.5106,-3.2898,-3.2237,-2.9496,-2.8276,-2.8062,-2.7968,-2.8378,-2.9115,0.0,0.0,0.0,0.0,0.0,0.0,0.0,0.0,0.0,0.0,0.0,0.0,0.0,0.0,-2.261,-2.2675,-2.4863,-2.4846,0.0,0.0,0.0,0.0,0.0,0.0,0.0,0.0,0.0,-2.6421,-2.9321,-3.1707,-3.3564,-3.4242,-3.5363,-3.6803,-3.7108,-3.5981,-3.3719,-3.15,-3.0012,-2.8806,0.0,0.0,0.0,0.0,0.0,0.0,0.0,0.0,0.0,0.0,0.0,0.0,0.0,0.0,0.0,0.0,0.0,0.0,0.0,0.0,0.0,0.0,0.0,0.0,0.0,0.0,0.0,0.0,0.0,0.0,0.0,0.0,0.0,0.0,0.0,0.0,0.0,0.0,0.0,-2.5526,-3.0166,0.0,0.0,0.0,0.0,-2.9593,-2.979,-3.1317,-3.4398,-3.5214,-3.6991,-4.014,-4.1659,-4.2285,-4.1946,-4.3621,-4.4481,-4.4512,-4.4724,-4.4901,-4.4989,-4.4351,-4.414,-4.4192,-4.3403,-4.2823,-4.2232,-3.9336,-3.7735,-3.686,-3.3933,-3.2926,-3.2961,-3.1529,-3.1842,-3.2867,0.0,0.0,0.0,0.0,0.0,0.0,0.0,0.0,0.0,0.0,0.0,0.0,0.0,-2.2873,-2.5207,-2.6725,-2.9193,-2.9467,-2.6607,0.0,0.0,0.0,0.0,0.0,0.0,0.0,-2.7351,-2.9717,-3.1854,-3.3826,-3.5632,-3.578,-3.6247,-3.6949,-3.7343,-3.7095,-3.6323,-3.4989,-3.3202,-3.1011,-2.8194,-2.5643,0.0,0.0,0.0,0.0,0.0,0.0,0.0,0.0,0.0,0.0,0.0,0.0,0.0,0.0,0.0,0.0,0.0,0.0,0.0,0.0,0.0,0.0,0.0,0.0,0.0,0.0,0.0,0.0,0.0,0.0,0.0,0.0,0.0,0.0,0.0,0.0,0.0,-3.0026,-3.3183,0.0,-3.4342,-3.4864,-3.5012,-3.4477,-3.6727,-3.8821,-4.0446,-4.1645,-4.2821,-4.3979,-4.4164,-4.3941,-4.335,-4.3993,-4.4316,-4.429,-4.4391,-4.4439,-4.4425,-4.4346,-4.4308,-4.4315,-4.4143,-4.375,-4.3193,-4.2171,-4.0847,-3.9198,-3.6843,-3.6258,-3.6651,-3.6115,-3.6046,-3.6243,0.0,0.0,0.0,0.0,0.0,0.0,0.0,0.0,0.0,0.0,0.0,-1.9359,-2.1289,-2.4799,-2.7875,-3.0023,-3.2051,-3.1738,-2.8271,0.0,0.0,0.0,0.0,0.0,0.0,-2.7028,-3.0018,-3.2466,-3.432,-3.5848,-3.7077,-3.7182,-3.7178,-3.7105,-3.7638,-3.7818,-3.7664,-3.7415,-3.578,-3.3212,-3.0851,-2.8415,-2.5791,0.0,0.0,0.0,0.0,0.0,0.0,0.0,0.0,0.0,0.0,0.0,0.0,0.0,0.0,0.0,0.0,0.0,0.0,0.0,0.0,0.0,0.0,0.0,0.0,0.0,0.0,0.0,0.0,0.0,0.0,0.0,0.0,0.0,0.0,0.0,-3.1316,-3.3609,-3.6978,-3.8906,-3.842,-3.9563,-4.0237,-3.9962,-4.2638,-4.4417,-4.4757,-4.5696,-4.6026,-4.5619,-4.5244,-4.4722,-4.3961,-4.405,-4.4131,-4.418,-4.3942,-4.3922,-4.4109,-4.4127,-4.3812,-4.3305,-4.422,-4.3813,-4.2615,-4.3297,-4.2509,-4.0755,-3.9416,-3.9016,-3.9152,-3.9152,-3.9017,-3.8766,0.0,0.0,0.0,0.0,0.0,0.0,0.0,0.0,0.0,0.0,-1.8047,-2.0458,-2.2149,-2.6795,-3.0504,-3.2283,-3.3002,-3.1237,-2.6257,-2.5462,0.0,0.0,0.0,0.0,-2.699,-3.0704,-3.3231,-3.4476,-3.674,-3.7836,-3.7862,-3.8599,-3.8438,-3.7584,-3.829,-3.8264,-3.7762,-3.8494,-3.7593,-3.5471,-3.2999,-3.0537,-2.7967,0.0,0.0,0.0,0.0,0.0,0.0,0.0,0.0,0.0,0.0,0.0,0.0,0.0,0.0,0.0,0.0,0.0,0.0,0.0,0.0,0.0,0.0,0.0,0.0,0.0,0.0,0.0,0.0,0.0,0.0,0.0,0.0,0.0,-2.5803,-3.2311,-3.6987,-3.6364,-4.1822,-4.4857,-4.285,-4.5412,-4.6849,-4.607,-4.706,-4.7571,-4.7181,-4.7067,-4.6437,-4.5243,-4.5179,-4.4809,-4.407,-4.4118,-4.4193,-4.4412,-4.3717,-4.3713,-4.4335,-4.3866,-4.2802,-4.1436,-4.3663,-4.3113,-4.0768,-4.279,-4.2854,-4.1632,-4.1617,-4.1155,-4.0489,-4.0474,-4.0443,-4.0159,0.0,0.0,0.0,0.0,0.0,0.0,0.0,0.0,0.0,0.0,-1.8088,-2.0979,-2.256,-2.6738,-3.0451,-3.299,-3.2743,-3.1425,-2.8996,0.0,0.0,0.0,0.0,0.0,-2.9712,-3.2073,-3.4313,-3.6429,-3.7885,-3.8758,-3.9057,-3.9632,-3.9394,-3.8455,-3.875,-3.8624,-3.824,-3.864,-3.8461,-3.7724,-3.5595,-3.39,-3.2293,0.0,0.0,0.0,0.0,0.0,0.0,0.0,0.0,0.0,0.0,0.0,0.0,0.0,0.0,0.0,0.0,0.0,0.0,0.0,0.0,0.0,0.0,0.0,0.0,0.0,0.0,0.0,0.0,0.0,0.0,0.0,0.0,-3.4378,-3.3473,-3.6823,-4.0326,-4.2953,-4.5407,-4.7191,-4.7889,-4.8762,-4.9038,-4.8477,-4.8293,-4.8307,-4.8546,-4.6039,-4.4912,-4.5528,-4.4378,-4.3568,-4.3173,-4.4008,-4.4468,-4.4558,-4.483,-4.4979,-4.5039,-4.5033,-4.4734,-4.4202,-4.4465,-4.4173,-4.3531,-4.4103,-4.3525,-4.2279,-4.1786,-4.1155,-4.0428,-3.9936,-3.9493,-3.8729,0.0,0.0,0.0,0.0,0.0,0.0,0.0,0.0,0.0,0.0,-1.7932,-2.0976,-2.1982,-2.6319,-2.9757,-3.1194,-3.1347,-3.0141,-2.7247,0.0,0.0,0.0,0.0,-2.9403,-3.2424,-3.4233,-3.5963,-3.7655,-3.8628,-3.9268,-3.9593,-4.0109,-3.9833,-3.898,-3.8996,-3.8985,-3.8959,-3.9236,-3.9566,-3.9786,-3.8705,-3.7185,-3.5335,-3.2709,-3.082,-2.9349,-2.7761,-2.7381,-2.7272,-2.5083,0.0,0.0,0.0,0.0,0.0,0.0,0.0,0.0,0.0,0.0,0.0,0.0,0.0,0.0,0.0,0.0,0.0,0.0,0.0,0.0,0.0,0.0,0.0,0.0,-3.5605,-4.0066,-4.1231,-4.27,-4.4484,-4.6662,-4.8321,-4.9272,-4.9392,-5.0142,-5.0265,-4.9354,-4.9293,-4.9158,-4.8887,-4.6786,-4.5452,-4.511,-4.4437,-4.3725,-4.3029,-4.4071,-4.461,-4.461,-4.4972,-4.5233,-4.533,-4.551,-4.5146,-4.4425,-4.455,-4.4289,-4.3731,-4.4065,-4.3541,0.0,0.0,0.0,0.0,0.0,-3.9228,-3.8606,0.0,0.0,0.0,0.0,0.0,0.0,0.0,0.0,0.0,0.0,0.0,-2.0546,-2.0782,-2.5324,-2.8287,-2.8185,-2.9006,-2.7691,0.0,0.0,0.0,-2.8357,-3.1301,-3.3554,-3.4973,-3.6572,-3.7707,-3.8307,-3.8936,-3.9377,-3.968,-4.0062,-3.9885,-3.9222,-3.9188,-3.935,-3.965,-4.0106,-4.0682,-4.1324,-4.1721,-4.0233,-3.7671,-3.6502,-3.4876,-3.2944,-3.1279,-2.9891,-2.8704,-2.7729,0.0,0.0,0.0,0.0,0.0,0.0,0.0,0.0,0.0,0.0,0.0,0.0,0.0,0.0,0.0,0.0,0.0,0.0,0.0,0.0,0.0,0.0,0.0,0.0,-3.9837,-4.4313,-4.7982,-4.8628,-4.8644,-4.8363,-5.0209,-5.0703,-4.8691,-5.0127,-5.0596,-4.9215,-4.9808,-4.9732,-4.8639,0.0,0.0,0.0,0.0,-4.4633,-4.3502,-4.4388,-4.4841,-4.4841,-4.4918,-4.5156,-4.5559,-4.574,-4.4989,-4.3613,-4.4388,-4.393,-4.2666,-4.3409,-4.3264,-4.2586,-4.2432,-4.1524,-4.0197,-3.953,-3.9253,-3.8992,0.0,0.0,0.0,0.0,0.0,0.0,0.0,0.0,0.0,-1.4576,-1.7477,-1.9596,-1.969,-2.2458,-2.5161,-2.7232,-2.5764,-2.4494,0.0,0.0,-2.5196,-3.0761,-3.1719,-3.3613,-3.6821,-3.7232,-3.7727,-3.8373,-3.8254,-3.8664,-3.953,-3.935,-3.927,-3.9305,-3.9989,-3.9816,-3.917,-4.0729,-4.1075,-4.0717,-4.2277,-4.2083,-4.0752,-3.9927,-3.8914,-3.788,-3.7027,-3.6912,-3.6746,-3.3858,-3.2803,-3.2459,-3.1001,0.0,0.0,0.0,0.0,0.0,0.0,0.0,0.0,0.0,0.0,0.0,0.0,0.0,0.0,0.0,0.0,0.0,0.0,0.0,0.0,-4.0331,-4.396,-4.709,-4.9436,-4.9961,-4.9872,-4.9167,-4.9431,-4.9557,-4.9229,-4.9555,-4.963,-4.9219,-4.8874,-4.8549,-4.8363,-4.6088,-4.5059,-4.5641,-4.493,-4.4564,-4.4667,-4.5708,-4.6203,-4.6219,0.0,0.0,-4.7138,-4.7219,-4.6754,-4.592,-4.554,-4.4657,-4.3438,-4.4119,-4.3679,-4.2494,-4.1335,-4.0059,-3.8811,-3.8205,-3.7843,-3.7414,0.0,0.0,0.0,0.0,0.0,0.0,0.0,0.0,0.0,0.0,-1.6454,-1.841,-1.9119,-2.0761,-2.2331,-2.3687,-2.2469,0.0,0.0,-2.5093,-2.7512,-3.1869,-3.3142,-3.4802,-3.7055,-3.7129,-3.7228,-3.7399,-3.8122,-3.869,-3.9061,-3.9353,-3.9596,-3.9764,-3.9879,-3.984,-3.9783,-4.0887,-4.147,-4.1699,-4.2791,-4.3208,-4.3099,-4.2629,-4.141,-3.998,-4.0114,-3.9594,-3.8605,-3.7019,-3.5976,-3.5224,-3.4473,-3.2138,-2.9132,0.0,0.0,0.0,0.0,0.0,0.0,0.0,0.0,0.0,0.0,0.0,0.0,0.0,0.0,-3.3238,0.0,0.0,-4.0621,-4.3907,-4.5973,-4.797,-5.0281,-5.0252,-4.9839,-4.9376,-4.9655,-4.9604,-4.9011,-4.9274,-4.9308,-4.8928,-4.8593,-4.8399,-4.8438,-4.7002,-4.6148,-4.6148,-4.5908,-4.5572,-4.5142,-4.6091,-4.6603,-4.6603,-4.6942,-4.7281,-4.7604,-4.7604,-4.7419,-4.705,-4.6034,-4.5203,-4.4594,-4.4255,-4.3494,-4.254,-4.1848,-4.0324,-3.8475,-3.8162,-3.7964,-3.7682,0.0,0.0,0.0,0.0,0.0,0.0,0.0,0.0,0.0,0.0,0.0,-1.6972,-1.8054,-1.885,-1.9353,0.0,0.0,0.0,0.0,-2.7141,-2.9861,-3.2678,-3.4575,-3.5854,-3.6563,-3.6901,-3.6908,-3.6558,-3.8105,-3.8822,-3.8802,-3.9285,-3.9823,-4.0403,-3.979,-3.9919,-4.0578,-4.1087,-4.1741,-4.2505,-4.2956,-4.3538,-4.4136,-4.3989,-4.2657,-4.0953,-4.1352,-3.9931,-3.7875,-3.8212,-3.7328,-3.6115,-3.6504,-3.5735,-3.3738,-2.8895,-2.8229,0.0,0.0,0.0,0.0,0.0,0.0,0.0,0.0,0.0,-3.2163,-3.4583,-3.6308,-3.8214,-4.0823,-4.2405,-4.405,-4.6429,-4.7155,-4.8082,-5.0143,-4.9802,-4.927,-4.9088,-4.9808,-4.9836,-4.8654,-4.9068,-4.9178,-4.8661,-4.862,-4.862,-4.862,-4.8453,-4.788,-4.6793,-4.7283,-4.7038,-4.5951,-4.6631,-4.6988,-4.6988,-4.6988,-4.7281,-4.7804,-4.7804,-4.765,-4.7327,-4.5834,-4.528,-4.528,-4.3978,-4.3079,-4.2602,-4.2602,-4.0924,-3.8539,-3.88,-3.8613,-3.8181,0.0,0.0,0.0,0.0,0.0,0.0,0.0,0.0,0.0,0.0,0.0,0.0,0.0,0.0,0.0,0.0,0.0,0.0,-2.5079,-2.7353,-3.0269,-3.3998,-3.4923,-3.5459,-3.5732,-3.7078,-3.7582,-3.7119,-3.7678,-3.8437,-3.9376,-3.8309,-3.9029,-4.1224,-4.0634,-4.0483,-4.0753,-4.1907,-4.1946,-4.1294,-4.2205,-4.2547,-4.2481,-4.2585,-4.2339,-4.1765,-4.0565,-3.8581,-3.6601,-3.7228,-3.6919,-3.6484,-3.7744,-3.7669,-3.64,-3.2705,0.0,-2.8046,-2.3125,-2.1007,-2.119,-2.5315,-2.7338,-2.9752,0.0,0.0,-4.1893,-4.2406,-4.5306,-4.767,-4.7538,-4.7901,-4.8162,-4.8034,-4.8232,-4.8331,-4.8026,-4.8403,-4.8486,-4.7868,-4.8934,-4.9405,-4.8677,-4.8641,-4.8702,-4.862,-4.862,-4.862,-4.862,-4.8578,-4.8501,-4.8347,-4.8424,-4.8394,-4.824,-4.8317,-4.8389,-4.8389,-4.8389,-4.8435,-4.8496,-4.8496,-4.785,-4.6603,-4.4671,-4.4178,-4.4625,-4.3264,-4.2679,-4.2602,-4.2602,-4.0924,-3.8662,-3.9828,-3.9039,-3.7436,0.0,0.0,0.0,0.0,0.0,0.0,0.0,0.0,0.0,0.0,0.0,0.0,0.0,0.0,0.0,0.0,0.0,0.0,-2.3376,-2.5959,-2.8735,-3.1782,-3.2768,-3.3528,-3.4137,-3.5253,-3.585,-3.5974,-3.7269,-3.8042,-3.8268,-3.798,-3.8771,-4.0375,-3.9771,-3.99,-4.06,-4.1158,-4.1304,-4.1227,-4.1706,-4.1881,-4.1703,-4.0945,-3.9895,-3.8685,-3.7569,-3.6117,0.0,0.0,-3.3788,-3.372,-3.6034,-3.5479,-3.3518,-3.1274,-2.9767,0.0,-2.6887,-2.636,0.0,0.0,-3.3723,-3.6746,-4.0248,-4.3192,-4.5467,-4.6614,-4.8547,-5.0055,-5.0101,-4.9013,-4.8185,0.0,-4.7434,-4.6914,-4.7502,-4.7511,-4.7342,-4.705,-4.6652,-4.6474,-4.6659,-4.7138,-4.724,-4.6735,-4.7507,-4.8019,-4.8019,-4.8404,-4.862,-4.862,-4.862,-4.862,-4.862,-4.862,-4.8419,-4.8035,-4.8419,-4.8419,-4.8019,-4.8019,-4.7296,-4.5942,-4.4733,-4.4132,-4.3978,-4.3387,-4.294,-4.2648,-4.3017,-4.1811,-3.9828,-3.9912,-3.8842,-3.7488,0.0,0.0,0.0,0.0,0.0,0.0,0.0,0.0,0.0,0.0,0.0,0.0,0.0,0.0,0.0,0.0,0.0,0.0,0.0,-2.4342,-2.6956,-2.9388,-3.0747,0.0,-3.3014,-3.4013,-3.4785,-3.536,-3.692,-3.7622,-3.7538,-3.7744,-3.8533,-3.9751,-3.8935,-3.9249,-4.0405,-4.0081,-4.0251,-4.0712,-4.069,-4.0515,-4.0178,-3.8821,-3.7004,-3.5109,-3.4315,-3.3071,0.0,0.0,-3.0071,-3.0342,-3.2505,-3.2212,-3.0751,-2.9285,-2.8153,-2.7668,-2.8919,0.0,0.0,-3.514,-3.8828,-4.1994,-4.3889,-4.5866,-4.7695,-4.9028,-4.9854,-5.0323,-5.0318,-4.8679,-4.735,-4.7457,-4.6307,-4.5769,-4.6871,-4.6619,-4.6111,-4.5503,-4.4182,-4.3274,-4.316,-4.4825,-4.5923,-4.5944,-4.6969,-4.7681,-4.7881,-4.8358,-4.862,-4.862,-4.862,-4.862,-4.862,-4.8435,-4.8081,-4.7604,-4.7912,-4.7804,-4.7327,-4.7127,-4.6511,-4.5541,-4.4902,-4.424,-4.3593,-4.3408,-4.2925,-4.2402,-4.3048,-4.2191,-4.0504,-4.0211,-3.9283,-3.8172,0.0,0.0,0.0,0.0,0.0,0.0,0.0,0.0,0.0,0.0,0.0,0.0,0.0,0.0,0.0,0.0,0.0,0.0,0.0,-2.2806,-2.544,-2.7866,-2.9681,-3.1342,-3.2879,-3.4338,-3.537,-3.597,-3.6545,-3.7194,-3.7883,-3.7431,-3.8204,-3.9918,-3.8607,-3.8825,-4.0145,-3.9046,-3.8839,-3.921,-3.8782,-3.8073,-3.7191,-3.5992,-3.4048,-3.1876,-3.1333,0.0,0.0,0.0,-2.6268,-2.6873,-2.7098,-2.8527,0.0,-2.7994,-2.5983,0.0,0.0,0.0,-3.0513,-3.6516,-4.0305,-4.3248,-4.5984,-4.8155,-4.965,-4.9851,-4.9842,-4.9421,-4.8152,-4.7326,-4.6349,-4.4946,-4.5226,-4.5603,-4.5649,-4.5634,-4.4841,-4.2695,-4.1816,-4.0411,0.0,-4.163,-4.5114,-4.7363,-4.7588,-4.7896,-4.8543,-4.8604,-4.862,-4.862,-4.862,-4.862,-4.862,-4.7958,-4.7635,-4.7588,-4.6957,-4.665,-4.6603,-4.5957,-4.5634,-4.5541,-4.4902,-4.424,-4.3562,-4.2894,-4.2248,-4.1694,-4.2371,-4.1476,-3.9962,-4.1264,-4.0892,-3.9588,0.0,0.0,0.0,0.0,0.0,0.0,0.0,0.0,0.0,0.0,0.0,0.0,0.0,0.0,0.0,0.0,0.0,0.0,0.0,-2.0561,-2.2496,-2.4575,-2.6984,-2.8808,-2.995,-3.1949,-3.3077,-3.3277,-3.4431,-3.4608,-3.3864,-3.4203,-3.5159,-3.6607,-3.5988,-3.6551,-3.7857,-3.7372,-3.7522,-3.7979,-3.7032,-3.6461,-3.5865,-3.2602,-3.0083,-2.7859,0.0,0.0,0.0,0.0,-2.1786,-2.223,-2.3667,0.0,0.0,-2.2518,-2.43,-2.6994,0.0,0.0,-3.6662,-4.0875,-4.4051,-4.652,-4.8128,-4.9312,-4.9683,-4.8209,-4.6719,-4.5215,-4.3645,-4.1701,-4.0797,-4.2046,-4.2432,-4.3302,-4.548,-4.4688,-4.3761,-4.3399,-4.1515,0.0,0.0,0.0,0.0,-4.3054,-4.5469,-4.7034,-4.7265,-4.8127,-4.862,-4.862,-4.862,-4.8404,-4.7942,-4.7711,-4.7157,-4.6265,-4.6034,-4.5926,-4.5911,-4.5695,-4.5341,-4.4918,-4.424,-4.3578,-4.291,-4.2694,-4.2479,-4.234,-4.2987,-4.2926,-4.2452,-4.2376,-4.1546,-4.0365,0.0,0.0,0.0,0.0,0.0,0.0,0.0,0.0,0.0,0.0,0.0,0.0,0.0,0.0,0.0,0.0,0.0,0.0,0.0,0.0,-1.9179,-2.112,-2.3299,-2.5275,-2.6994,-2.8676,-2.9681,-2.9971,-3.1262,-3.134,-3.0345,-3.1103,-3.1872,-3.273,-3.2784,-3.3413,-3.4423,-3.4351,-3.4568,-3.486,-3.362,-3.2798,-3.194,-2.8473,-2.5889,0.0,0.0,0.0,0.0,0.0,0.0,0.0,0.0,-2.0361,-2.0239,-2.1603,-2.4865,-2.8824,-3.2479,-3.6881,-4.1198,-4.4281,-4.6766,-4.8502,-4.8674,-4.8727,-4.8169,-4.6235,-4.4039,-4.1785,-3.9462,-3.7216,-3.6468,-3.8751,-3.9215,-4.0587,-4.4257,-4.3681,-4.2904,-4.2952,-4.1377,-4.0446,0.0,0.0,0.0,-4.0956,-4.4076,-4.5915,-4.5767,-4.695,-4.7969,-4.8563,-4.862,-4.8404,-4.7973,-4.7481,-4.6573,-4.5218,-4.5218,-4.5218,-4.5234,-4.5156,-4.4534,-4.3495,-4.3424,-4.2615,-4.1431,-4.1836,-4.1878,-4.1725,-4.242,-4.2811,-4.2963,-4.2684,-4.1851,-4.0706,0.0,0.0,0.0,0.0,0.0,0.0,0.0,0.0,0.0,0.0,0.0,0.0,0.0,0.0,0.0,0.0,0.0,0.0,0.0,0.0,0.0,-1.7774,-1.9015,-2.1073,-2.4138,-2.4852,-2.5552,-2.6304,-2.7188,-2.7552,-2.7361,-2.8093,-2.8451,-2.8537,-2.9033,-2.9577,-3.0104,-3.0079,-3.0109,-3.0043,-2.8755,-2.7396,-2.5891,-2.3866,0.0,0.0,0.0,0.0,0.0,0.0,0.0,0.0,0.0,0.0,-2.1712,-2.5138,-2.7677,-3.0625,-3.6434,-4.0679,-4.4077,-4.665,-4.8411,-4.918,-4.7814,-4.6623,-4.537,-4.3898,-4.1677,-3.8964,0.0,0.0,-3.3383,-3.5167,-3.5861,-3.7715,-4.2138,-4.2659,-4.2314,0.0,0.0,0.0,0.0,0.0,0.0,-4.1287,0.0,-4.4792,-4.4372,-4.546,-4.6858,-4.8547,-4.8578,-4.8547,-4.8512,-4.7173,-4.5849,-4.461,-4.461,-4.4572,-4.4587,-4.4396,-4.3335,-4.1663,-4.2569,-4.161,-3.9427,-4.0544,-4.0648,-4.0178,-4.0846,-4.1305,-4.1653,-4.2371,-4.1866,-4.0672,0.0,0.0,0.0,0.0,0.0,0.0,0.0,0.0,0.0,0.0,0.0,0.0,0.0,0.0,0.0,0.0,0.0,0.0,0.0,0.0,0.0,0.0,0.0,0.0,0.0,0.0,0.0,0.0,0.0,-2.3677,-2.2712,-2.3259,-2.3921,-2.4626,-2.4727,-2.5232,-2.601,-2.596,-2.6209,-2.6586,0.0,-2.4901,-2.4673,0.0,0.0,0.0,0.0,0.0,0.0,0.0,0.0,0.0,0.0,0.0,-2.717,-2.7936,-3.2288,-3.7279,-3.9226,-4.4042,-4.8728,-4.9506,-4.9733,-4.9335,-4.7826,-4.6003,-4.3583,-3.9975,-3.6122,-3.2492,0.0,0.0,0.0,-3.2935,-3.4896,0.0,-4.1344,-4.2481,0.0,-4.2335,0.0,-4.3478,-4.3385,-4.4619,0.0,0.0,-4.4193,-4.6026,-4.6712,-4.7221,-4.7851,-4.8563,-4.8453,-4.7978,-4.7127,-4.5772,-4.4964,-4.461,-4.461,-4.4534,-4.4396,-4.4473,-4.4083,-4.3349,-4.2741,-4.2012,-4.1254,-4.1082,-4.1195,-4.1559,-4.2227,-4.2545,-4.2672,-4.2989,-4.1996,-4.0405,0.0,0.0,0.0,0.0,0.0,0.0,0.0,0.0,0.0,0.0,0.0,0.0,0.0,0.0,0.0,0.0,0.0,0.0,0.0,0.0,0.0,0.0,0.0,0.0,0.0,0.0,0.0,0.0,0.0,0.0,0.0,-1.9189,-1.9619,-2.0487,-2.0482,-2.1123,-2.2217,0.0,0.0,0.0,0.0,0.0,0.0,0.0,0.0,0.0,0.0,0.0,0.0,0.0,0.0,-2.4331,-2.7604,-2.9908,-3.1902,-3.4431,0.0,-4.1794,-4.3388,-4.7578,-5.1145,-4.9643,-4.9382,-4.8567,-4.5076,-4.2563,-3.9663,-3.4962,-3.1508,0.0,0.0,0.0,0.0,0.0,0.0,0.0,-4.0439,-4.175,-4.2533,0.0,-4.4083,0.0,-4.581,-4.6349,-4.6103,0.0,-4.5559,-4.5936,-4.5833,-4.6656,-4.7504,-4.8313,-4.8412,-4.785,-4.6603,-4.5479,-4.4765,-4.4473,-4.4396,-4.432,-4.4281,-4.432,-4.3792,-4.2894,0.0,-4.165,-4.0766,-4.0513,-4.0661,-4.1055,-4.1625,-4.1919,-4.2024,-4.2462,-4.1745,-4.0517,0.0,0.0,0.0,0.0,0.0,0.0,0.0,0.0,0.0,0.0,0.0,0.0,0.0,0.0,0.0,0.0,0.0,0.0,0.0,0.0,0.0,0.0,0.0,0.0,0.0,0.0,0.0,0.0,0.0,0.0,0.0,0.0,0.0,0.0,0.0,0.0,0.0,0.0,0.0,0.0,0.0,0.0,0.0,0.0,0.0,0.0,0.0,0.0,0.0,0.0,-2.5438,-2.704,-3.2707,-3.4991,-3.6576,-4.1747,-4.3798,-4.4929,-4.7296,-5.0183,-5.1745,-4.8527,-4.813,-4.7077,-4.1607,-3.8263,-3.4949,-3.0021,0.0,-2.5194,-2.1451,0.0,-2.458,-2.7937,0.0,-3.3758,-3.9125,-4.076,-4.2086,-4.3808,-4.4613,-4.5748,-4.7522,-4.6978,-4.708,-4.8407,-4.7105,-4.5675,-4.4294,-4.5513,-4.6761,-4.7855,-4.8064,-4.7609,-4.6441,-4.5607,-4.4862,-4.4243,-4.4011,-4.4011,-4.4205,-4.3972,-4.3051,-4.1708,-4.1964,-4.1069,-3.9483,-3.9661,-3.9754,-3.9832,-4.027,-4.0591,-4.0872,-4.1497,-4.1375,-4.0731,0.0,0.0,0.0,0.0,0.0,0.0,0.0,0.0,0.0,0.0,-1.0685,-1.0968,0.0,0.0,0.0,0.0,0.0,0.0,0.0,0.0,0.0,0.0,0.0,0.0,0.0,0.0,0.0,0.0,0.0,0.0,0.0,0.0,0.0,0.0,0.0,0.0,0.0,0.0,0.0,0.0,0.0,0.0,0.0,0.0,0.0,0.0,0.0,0.0,0.0,0.0,-2.9272,-3.2355,-3.6729,-4.0247,-4.2902,-4.3397,-4.5479,-4.745,-4.6729,-4.8481,-5.0171,-4.8855,-4.6965,-4.4716,-4.1834,-3.7168,0.0,0.0,0.0,-2.1467,-2.0291,-2.1588,0.0,-2.8246,0.0,0.0,0.0,0.0,-4.2203,0.0,0.0,0.0,0.0,0.0,0.0,0.0,0.0,-4.7576,-4.7475,-4.7604,-4.757,-4.7435,-4.6416,-4.5767,-4.5537,-4.4825,-4.4327,-4.4065,-4.363,-4.3566,-4.3808,-4.3369,-4.3021,-4.2743,-4.2625,0.0,-4.0665,-4.0224,-4.0143,-4.0303,-4.0628,-4.094,-4.1295,-4.1581,-4.1316,-4.057,0.0,0.0,0.0,0.0,0.0,0.0,0.0,-1.0598,-1.0717,-1.0635,-1.0775,-1.0856,-1.0706,-1.096,0.0,0.0,0.0,0.0,0.0,0.0,0.0,0.0,0.0,0.0,0.0,0.0,0.0,0.0,0.0,0.0,0.0,0.0,0.0,0.0,0.0,0.0,0.0,0.0,0.0,0.0,0.0,0.0,0.0,0.0,0.0,0.0,0.0,0.0,0.0,0.0,-2.721,-3.1499,-3.8722,-4.2964,-4.5241,-4.5047,-4.6879,-4.877,-4.7753,-4.9509,-5.1078,-4.8844,-4.6761,-4.3896,-3.859,0.0,0.0,0.0,0.0,-1.8953,-1.7947,0.0,0.0,0.0,0.0,0.0,0.0,0.0,0.0,0.0,0.0,0.0,0.0,0.0,0.0,0.0,0.0,-4.6786,-4.7876,-4.7434,-4.6978,-4.6625,-4.5651,-4.5133,-4.5133,-4.4478,-4.3934,-4.3488,-4.3155,-4.2915,-4.2795,-4.285,-4.282,-4.2776,-4.247,-4.1405,-3.9958,-4.0397,-3.9997,-3.9275,-4.0598,-4.1246,-4.1391,-4.1072,-4.0503,-3.9681,0.0,0.0,0.0,0.0,0.0,0.0,0.0,-1.036,-1.0587,-1.0697,-1.0847,-1.077,-1.03,-1.0647,-1.0956,0.0,0.0,0.0,0.0,0.0,0.0,0.0,0.0,0.0,0.0,0.0,0.0,0.0,0.0,0.0,0.0,0.0,0.0,0.0,0.0,0.0,0.0,0.0,0.0,0.0,0.0,0.0,0.0,0.0,0.0,0.0,0.0,0.0,0.0,0.0,-2.3986,-2.8188,-3.686,-4.1702,-4.4344,-4.4888,-4.6714,-4.8521,-4.8461,-5.0169,-5.1251,-4.8382,-4.6142,-4.2782,-3.5618,-3.0314,0.0,0.0,-1.8141,-1.7225,-1.6608,0.0,0.0,0.0,0.0,0.0,0.0,0.0,0.0,0.0,0.0,0.0,0.0,0.0,0.0,0.0,0.0,0.0,-4.7621,-4.6659,-4.6067,-4.5991,-4.5147,-4.4722,-4.4722,-4.4089,-4.3488,-4.2915,-4.2607,-4.2266,-4.1964,-4.2184,-4.2266,-4.2234,-4.2033,-4.0665,-3.8664,-4.0222,-3.9446,-3.7524,-3.9747,-4.0502,-4.029,-3.9793,-3.923,-3.8517,0.0,0.0,0.0,0.0,0.0,0.0,0.0,-1.0475,-1.0393,-0.9566,-1.0415,-1.0658,-0.9526,-1.0358,-1.0897,0.0,0.0,0.0,0.0,0.0,0.0,0.0,0.0,0.0,0.0,0.0,0.0,0.0,0.0,0.0,0.0,0.0,0.0,0.0,0.0,0.0,0.0,0.0,0.0,0.0,0.0,0.0,0.0,0.0,0.0,0.0,0.0,0.0,0.0,0.0,0.0,-2.409,-2.7963,-3.3607,-3.9112,-4.0602,0.0,0.0,-4.7267,-4.7892,-4.7919,-4.7113,-4.3871,-3.9866,-3.5878,0.0,0.0,0.0,-1.772,-1.6398,-1.8349,-1.9446,-2.1364,0.0,0.0,0.0,0.0,0.0,0.0,0.0,0.0,0.0,0.0,0.0,0.0,0.0,0.0,0.0,-4.7964,-4.6334,-4.5571,-4.5976,-4.4588,-4.382,-4.382,-4.3319,-4.2955,-4.2729,-4.1924,-4.1591,-4.1688,-4.1156,-4.0972,-4.1156,-4.1547,-4.0096,0.0,-3.9628,-3.8293,-3.5223,-3.7304,-3.7648,-3.6988,-3.7356,-3.745,-3.7243,0.0,0.0,0.0,0.0,0.0,0.0,-0.8925,-1.0029,-1.0672,-1.0422,-1.0866,-1.0948,-1.022,-1.0767,-1.1085,0.0,0.0,0.0,0.0,0.0,0.0,0.0,0.0,0.0,0.0,0.0,0.0,0.0,0.0,0.0,0.0,0.0,0.0,0.0,0.0,0.0,0.0,0.0,0.0,0.0,0.0,0.0,0.0,0.0,0.0,0.0,0.0,0.0,0.0,0.0,0.0,0.0,-2.0619,-2.4177,0.0,0.0,-3.8537,-4.2383,-4.4311,-4.6483,-4.7962,-4.6947,-4.3944,-3.9802,-3.4293,0.0,0.0,-1.95,-1.7073,-1.6009,-1.6909,-1.779,-1.9165,0.0,0.0,0.0,0.0,0.0,0.0,0.0,0.0,0.0,0.0,0.0,0.0,0.0,0.0,0.0,-4.6951,-4.5923,-4.5192,-4.4965,-4.4157,-4.3518,-4.3105,-4.3036,-4.2633,-4.1924,-4.1564,-4.1227,-4.093,-4.0787,-4.0645,-4.0603,-4.0774,-3.8906,0.0,-3.9215,-3.8173,-3.4727,-3.7189,-3.8061,-3.7785,-3.6927,-3.6543,-3.6387,0.0,0.0,0.0,0.0,0.0,-0.7966,-0.8438,-0.9804,-1.0806,-1.08,-1.103,-1.1026,-1.0541,-1.077,-1.0886,-1.0692,0.0,0.0,0.0,0.0,0.0,0.0,0.0,0.0,0.0,0.0,0.0,-1.1725,0.0,0.0,0.0,0.0,0.0,0.0,0.0,0.0,0.0,0.0,0.0,0.0,0.0,0.0,0.0,0.0,0.0,0.0,0.0,0.0,0.0,0.0,0.0,0.0,0.0,0.0,0.0,0.0,-3.3836,-3.8721,-4.1003,-4.4354,-4.6993,-4.6044,-4.268,-3.8184,0.0,0.0,-2.2454,-1.8569,-1.6667,-1.5771,-1.5936,-1.6699,-1.7782,0.0,0.0,0.0,0.0,0.0,0.0,0.0,0.0,0.0,0.0,0.0,0.0,0.0,0.0,0.0,-4.6294,-4.5553,-4.4881,-4.4332,-4.3728,-4.3185,-4.2688,-4.2592,-4.2102,-4.1297,-4.1142,-4.0575,-3.9631,-4.0158,-4.0073,-3.9475,-3.9929,-3.8065,0.0,-3.8427,-3.7286,-3.3553,-3.6019,-3.6882,-3.6585,-3.5474,-3.4908,-3.4672,0.0,0.0,0.0,0.0,0.0,0.0,-0.8862,-1.0023,-1.0631,-1.0169,-1.0627,-1.0754,-1.0081,-1.0126,-1.0132,-0.9936,0.0,0.0,0.0,0.0,0.0,0.0,0.0,0.0,0.0,0.0,-1.174,-1.1805,-1.1805,-1.167,0.0,0.0,0.0,0.0,0.0,0.0,0.0,0.0,0.0,0.0,0.0,0.0,0.0,0.0,0.0,0.0,0.0,0.0,0.0,0.0,0.0,0.0,0.0,0.0,0.0,0.0,-2.9086,-3.4691,-3.7652,-4.1156,-4.3951,-4.3997,-3.9156,-3.3864,0.0,0.0,-1.9968,-1.8248,-1.6621,-1.5698,-1.6285,-1.6895,-1.7908,-1.9798,-2.104,0.0,0.0,0.0,0.0,0.0,0.0,0.0,0.0,0.0,0.0,0.0,0.0,0.0,-4.6309,-4.5272,-4.4563,-4.4291,-4.3271,-4.2688,-4.2688,-4.1841,-4.1297,-4.1001,-4.0587,-3.9488,-3.7886,-3.9135,-3.8861,-3.7515,-3.9017,-3.782,0.0,-3.6994,-3.5132,-3.122,-3.2972,-3.2899,-3.1817,-3.2269,-3.2087,-3.1734,0.0,0.0,0.0,0.0,0.0,0.0,0.0,-0.9649,-0.998,-0.9419,-0.964,-0.9692,-0.9288,-0.9415,-0.9451,-0.9299,0.0,0.0,0.0,0.0,0.0,0.0,0.0,0.0,0.0,0.0,-1.1725,-1.1805,-1.1805,-1.1941,-1.2212,-1.1803,-1.1753,0.0,0.0,0.0,0.0,0.0,0.0,0.0,0.0,0.0,0.0,0.0,0.0,0.0,0.0,0.0,0.0,0.0,0.0,0.0,0.0,0.0,0.0,0.0,0.0,0.0,-3.0256,-3.259,-3.4301,-3.3852,-3.1107,-2.7923,-2.5711,-2.2082,-1.8723,-1.7131,-1.574,-1.4931,-1.5316,-1.5679,-1.68,-1.9469,-2.0616,0.0,0.0,0.0,0.0,0.0,0.0,0.0,0.0,0.0,0.0,0.0,0.0,0.0,-4.323,-4.3163,-4.3369,-4.3853,-4.2793,-4.2102,-4.18,-4.1564,-4.1142,-4.0587,-4.0471,-3.9619,-3.8252,-3.8947,-3.8614,-3.7486,-3.7661,-3.6428,-3.4434,-3.5679,-3.4473,-3.1926,-3.314,-3.317,-3.2587,-3.2463,-3.2074,-3.1716,0.0,0.0,0.0,0.0,0.0,0.0,0.0,-0.9445,-0.9507,-0.9325,-0.9189,-0.9061,-0.8911,-0.8763,-0.8642,-0.8584,0.0,0.0,0.0,0.0,0.0,0.0,0.0,0.0,0.0,-1.1612,-1.1674,-1.1718,-1.1751,-1.206,-1.2594,-1.2236,-1.2243,-1.2519,-1.1968,0.0,0.0,0.0,0.0,0.0,0.0,0.0,-1.188,0.0,0.0,0.0,0.0,0.0,0.0,0.0,0.0,0.0,0.0,0.0,0.0,0.0,-1.8081,0.0,0.0,-2.7034,-2.8556,-2.8047,-2.5895,0.0,0.0,-1.9398,-1.6971,-1.629,-1.564,-1.5065,-1.4669,-1.5419,-1.6549,-1.7957,-1.9997,0.0,0.0,0.0,0.0,0.0,0.0,0.0,0.0,0.0,0.0,0.0,0.0,-4.2596,-4.2175,-4.2314,-4.2455,-4.2573,-4.1645,-4.1152,-4.1128,-4.0958,-4.063,-4.0138,-4.0138,-3.9388,-3.8021,-3.8655,-3.8265,-3.7053,-3.687,-3.5848,0.0,-3.4658,-3.3712,-3.2097,-3.2673,-3.2721,-3.25,-3.2232,-3.1815,-3.1431,0.0,0.0,0.0,0.0,0.0,0.0,0.0,0.0,-0.9094,-0.9543,-0.9044,-0.8678,-0.8739,-0.814,-0.7757,-0.7809,0.0,0.0,0.0,0.0,0.0,0.0,0.0,0.0,0.0,-1.1604,-1.1604,-1.1604,-1.1708,-1.2074,-1.2667,-1.2728,-1.2728,-1.2667,-1.25,-1.2106,-1.1582,-1.1439,-1.1477,-1.1569,-1.1324,-1.1474,0.0,0.0,0.0,0.0,0.0,0.0,0.0,0.0,0.0,0.0,0.0,0.0,0.0,0.0,0.0,0.0,0.0,0.0,0.0,0.0,0.0,0.0,0.0,-1.738,0.0,-1.5712,-1.6053,-1.58,-1.4517,-1.6023,-1.7084,-1.5992,-1.9469,0.0,0.0,0.0,0.0,0.0,0.0,0.0,0.0,0.0,0.0,0.0,0.0,-4.2707,-4.2495,-4.231,-4.1682,-4.0546,-3.9985,-3.9999,-4.0645,-4.0213,-3.9837,-3.9519,-3.9659,-3.8807,-3.7202,-3.8128,-3.7695,0.0,-3.645,-3.5738,-3.4364,-3.3721,-3.2816,-3.1808,-3.1719,-3.1705,-3.1705,-3.1705,-3.138,-3.0922,0.0,0.0,0.0,0.0,0.0,0.0,0.0,0.0,0.0,0.0,-0.7398,-0.7204,-0.7209,-0.7057,-0.6962,0.0,0.0,0.0,0.0,0.0,0.0,0.0,0.0,0.0,-1.1523,-1.1619,-1.1641,-1.1604,-1.2123,-1.2694,-1.33,-1.3418,-1.3433,-1.334,-1.2848,-1.2211,-1.1552,-1.2024,-1.1956,-1.1508,-1.1399,-1.1382,0.0,0.0,0.0,0.0,-1.3429,-1.3909,0.0,0.0,0.0,0.0,0.0,0.0,0.0,0.0,-1.3885,-1.3965,-1.5755,0.0,-1.6613,-1.5567,0.0,0.0,0.0,0.0,0.0,0.0,0.0,0.0,0.0,-1.6992,-1.8039,-1.8812,-2.1472,0.0,0.0,0.0,0.0,0.0,0.0,0.0,0.0,0.0,0.0,0.0,0.0,-4.1298,-4.0323,-4.0351,-3.9901,-3.881,-3.8449,-3.8891,-4.017,-4.0039,-3.918,-3.7647,-3.903,-3.8114,-3.525,-3.6634,-3.6455,-3.5015,-3.4251,-3.3695,-3.328,-3.2491,-3.1962,-3.17,-3.1701,-3.1705,-3.1705,-3.1705,-3.138,-3.097,0.0,0.0,0.0,0.0,0.0,0.0,0.0,0.0,0.0,0.0,0.0,0.0,0.0,0.0,0.0,0.0,0.0,0.0,0.0,0.0,0.0,0.0,0.0,-1.1281,-1.1541,-1.1619,-1.1641,-1.1656,-1.2007,-1.2668,-1.3638,-1.3744,-1.3759,-1.3649,-1.2645,-1.1943,-1.1529,-1.1925,-1.1786,-1.1319,-1.1376,0.0,0.0,0.0,0.0,0.0,-1.3877,-1.4201,0.0,-1.4466,-1.4231,-1.3827,0.0,0.0,0.0,0.0,-1.3647,-1.3249,-1.3726,-1.3809,-1.3808,-1.4007,-1.3031,-1.2443,0.0,0.0,0.0,0.0,0.0,0.0,0.0,0.0,0.0,0.0,0.0,0.0,0.0,0.0,0.0,0.0,0.0,0.0,0.0,0.0,0.0,0.0,-4.107,-4.0605,-3.9508,-3.9676,-3.9313,-3.8214,-3.8145,-3.8406,-3.8968,-3.8982,-3.8118,-3.6418,-3.788,-3.7187,-3.4634,-3.5765,-3.5657,-3.4473,-3.2887,-3.2377,-3.2683,-3.1392,-3.1212,-3.1705,-3.1705,-3.1705,-3.1705,-3.1705,-3.138,-3.0958,0.0,0.0,0.0,0.0,0.0,0.0,0.0,0.0,0.0,0.0,0.0,0.0,0.0,0.0,0.0,0.0,0.0,0.0,0.0,0.0,0.0,0.0,0.0,-1.1021,-1.1579,-1.1612,-1.163,-1.1703,-1.1911,-1.2674,-1.3959,-1.4221,-1.418,-1.3848,-1.2296,-1.1553,-1.1481,-1.1684,-1.1519,-1.1157,-1.1385,0.0,0.0,0.0,0.0,0.0,0.0,0.0,0.0,-1.4182,-1.425,-1.4189,-1.3104,0.0,0.0,0.0,0.0,0.0,-1.3174,-1.3472,-1.4069,-1.5548,-1.4381,-1.3399,0.0,0.0,0.0,0.0,0.0,0.0,0.0,0.0,0.0,0.0,0.0,0.0,0.0,0.0,0.0,0.0,0.0,0.0,0.0,0.0,0.0,-4.0421,-4.0421,-4.0097,-3.9368,-3.9508,-3.9145,-3.82,-3.8269,-3.809,-3.7592,-3.7729,-3.7037,-3.5582,-3.6643,-3.6232,-3.4474,-3.5074,-3.4946,-3.408,0.0,0.0,-3.2253,-3.0693,-3.0687,-3.1705,-3.1621,-3.1633,-3.1705,-3.1705,-3.1428,-3.1019,0.0,0.0,0.0,0.0,0.0,0.0,0.0,0.0,0.0,0.0,0.0,0.0,0.0,0.0,0.0,0.0,0.0,0.0,0.0,0.0,0.0,-1.1289,-1.1413,-1.149,-1.1601,-1.1597,-1.1626,-1.1703,-1.2847,-1.3846,-1.4743,-1.5798,-1.5593,-1.4299,-1.2429,-1.1493,-1.1382,-1.2188,-1.203,-1.1316,-1.1735,0.0,0.0,0.0,0.0,0.0,0.0,0.0,0.0,-1.362,-1.3394,-1.3186,-1.2389,0.0,0.0,0.0,0.0,0.0,-1.3057,-1.3764,-1.4091,-1.3381,-1.292,-1.2981,0.0,0.0,0.0,0.0,0.0,0.0,0.0,0.0,0.0,0.0,0.0,0.0,0.0,0.0,0.0,0.0,0.0,0.0,0.0,0.0,-3.9283,-3.9184,-3.9197,-3.91,-3.8961,-3.8796,-3.8461,-3.794,-3.7671,-3.7192,-3.6641,-3.7401,-3.6834,-3.4931,-3.6065,-3.5522,-3.3442,-3.3768,-3.3677,-3.3158,0.0,-3.1713,-3.1789,-3.1033,-3.1136,-3.1657,-3.1211,-3.1308,-3.1705,-3.1705,-3.1657,-3.1452,0.0,0.0,0.0,0.0,0.0,0.0,0.0,0.0,0.0,0.0,0.0,0.0,0.0,0.0,0.0,0.0,0.0,0.0,0.0,0.0,0.0,-1.0821,-1.1333,-1.1597,-1.1597,-1.1593,-1.1626,-1.1648,-1.2478,-1.3094,-1.3504,-1.4052,-1.4226,-1.3986,-1.222,-1.1821,-1.2421,-1.2291,-1.2154,-1.2058,0.0,0.0,0.0,0.0,0.0,0.0,0.0,0.0,0.0,0.0,-1.3791,-1.4112,-1.2745,0.0,0.0,0.0,0.0,0.0,-1.2256,-1.2879,-1.357,-1.3694,-1.3759,-1.4548,-1.7464,0.0,0.0,0.0,0.0,0.0,0.0,0.0,0.0,0.0,0.0,0.0,0.0,0.0,0.0,0.0,0.0,0.0,0.0,0.0,-3.8189,-3.8131,-3.7971,-3.7607,-3.697,-3.7193,-3.6948,-3.6082,-3.6241,-3.5959,-3.5168,-3.5575,-3.529,-3.4336,-3.5077,-3.4401,-3.2494,-3.2846,-3.2587,-3.1786,0.0,-3.0493,-3.0795,-3.0188,-3.0446,-3.1284,-3.1332,-3.1488,-3.1669,-3.138,-3.1103,-3.0699,0.0,0.0,0.0,0.0,0.0,0.0,0.0,0.0,0.0,0.0,0.0,0.0,0.0,0.0,0.0,0.0,0.0,0.0,0.0,0.0,-1.0296,-1.0502,-1.1213,-1.1593,-1.159,-1.1774,-1.1774,-1.1626,-1.2224,-1.264,-1.2835,-1.2652,-1.2916,-1.3521,-1.1973,-1.1923,-1.2926,-1.2297,-1.2264,-1.2566,0.0,0.0,0.0,0.0,0.0,0.0,0.0,0.0,0.0,0.0,0.0,0.0,0.0,0.0,0.0,-1.3516,-1.2988,-1.223,-1.16,-1.204,-1.2917,-1.3878,0.0,-1.5364,-2.05,0.0,0.0,0.0,0.0,0.0,0.0,0.0,0.0,0.0,0.0,0.0,0.0,0.0,0.0,0.0,0.0,0.0,0.0,-3.6713,-3.6794,-3.6744,-3.6403,-3.5791,-3.4926,-3.5256,-3.5103,-3.4336,-3.4623,-3.4492,-3.3927,-3.386,-3.3845,-3.3853,-3.3887,-3.3189,-3.1933,-3.2074,-3.1601,-3.0675,-2.9993,-2.9877,-3.0056,-2.9697,-3.0067,-3.0958,-3.1368,-3.1597,-3.1633,-3.097,-3.0434,-3.0013,0.0,0.0,0.0,0.0,0.0,0.0,0.0,0.0,0.0,0.0,0.0,0.0,0.0,0.0,0.0,0.0,0.0,0.0,0.0,0.0,-1.0292,-1.1105,-1.1426,-1.1612,-1.159,-1.2269,-1.2319,-1.1692,-1.291,-1.3826,-1.4415,-1.3664,-1.3286,-1.3182,-1.188,-1.1426,-1.1695,-1.2483,-1.2595,-1.228,-1.2754,0.0,0.0,0.0,0.0,0.0,0.0,0.0,0.0,0.0,0.0,0.0,0.0,0.0,-1.3053,-1.3116,-1.2566,-1.1868,-1.1566,-1.1914,-1.233,-1.2366,0.0,0.0,-2.0782,0.0,0.0,0.0,0.0,0.0,0.0,0.0,0.0,0.0,0.0,0.0,0.0,0.0,0.0,0.0,0.0,0.0,-3.5588,-3.525,-3.4916,-3.4559,-3.4061,-3.3706,-3.3615,-3.3251,-3.3264,-3.3729,-3.304,-3.2883,-3.3432,-3.3126,-3.3219,-3.3691,-3.26,-3.2012,-3.1896,-3.1284,-3.0687,-3.0194,-3.1144,-3.0987,-3.0122,-3.0572,-3.0843,-3.0922,-3.0958,-3.1271,-3.1585,-3.0518,-3.0122,-3.0013,0.0,0.0,0.0,0.0,0.0,0.0,0.0,0.0,0.0,0.0,0.0,0.0,0.0,0.0,0.0,0.0,0.0,0.0,0.0,-1.006,-1.0309,-1.1034,-1.1376,-1.1523,-1.1474,-1.1592,-1.1496,-1.1199,-1.1561,-1.2058,-1.266,-1.2107,-1.2361,-1.326,-1.199,-1.2222,-1.3522,-1.2957,-1.2876,-1.3124,-1.3135,-1.3127,0.0,0.0,0.0,0.0,0.0,0.0,0.0,0.0,-1.4123,-1.4231,0.0,-1.2981,-1.3019,-1.2886,-1.2255,-1.1521,-1.1204,-1.1424,-1.2064,-1.3429,0.0,0.0,0.0,0.0,0.0,0.0,0.0,0.0,0.0,0.0,0.0,0.0,0.0,0.0,0.0,0.0,0.0,0.0,0.0,-3.5103,-3.4296,-3.3407,-3.2814,-3.251,-3.2131,-3.1972,-3.21,-3.2186,-3.2395,-3.2752,-3.2692,-3.2549,-3.2411,-3.2297,-3.2309,-3.2481,-3.2401,-3.2388,-3.2388,-3.1709,-3.1115,-3.0603,-3.1043,-3.0802,-3.0122,-3.0694,-3.0922,-3.0946,-3.1284,-3.1332,-3.1163,-3.0766,-3.0158,-2.9569,0.0,0.0,0.0,0.0,0.0,0.0,0.0,0.0,0.0,0.0,0.0,0.0,0.0,0.0,0.0,0.0,0.0,0.0,-1.0356,-1.029,-1.0423,-1.0942,-1.1215,-1.1247,-1.1059,-1.0772,-1.0712,-1.0897,-1.0668,-1.0772,-1.1199,-1.0907,-1.146,-1.2669,-1.179,-1.2411,-1.4038,-1.3037,-1.2951,-1.3514,-1.3301,-1.3163,0.0,0.0,0.0,0.0,0.0,0.0,0.0,0.0,-1.3965,0.0,0.0,0.0,0.0,0.0,-1.2148,-1.1572,-1.1188,-1.1261,-1.1841,0.0,0.0,0.0,0.0,0.0,0.0,0.0,0.0,0.0,0.0,0.0,0.0,0.0,0.0,0.0,0.0,0.0,0.0,0.0,0.0,-3.3245,-3.2857,-3.1843,-3.1156,-3.1013,-3.062,-3.0458,-3.0675,-3.0939,-3.1253,-3.166,-3.1706,-3.1709,-3.1785,-3.1319,-3.1253,-3.154,-3.1847,-3.2031,-3.2105,-3.1458,-3.1007,-3.0639,-3.085,-3.0621,-3.0146,-3.0874,-3.1163,-3.1187,-3.138,-3.1235,-3.0874,-3.0494,-2.9917,-2.928,0.0,0.0,0.0,0.0,0.0,0.0,0.0,0.0,0.0,0.0,0.0,0.0,0.0,0.0,0.0,0.0,0.0,0.0,-1.0335,-1.0523,-1.0668,-1.0873,-1.0956,-1.0775,-1.031,-0.997,-1.016,-1.0885,-1.0556,-1.0458,-1.0597,-1.0523,-1.0766,-1.1202,-1.1228,-1.1754,-1.2612,-1.2612,-1.2846,-1.3198,-1.3198,-1.3163,-1.3107,0.0,0.0,0.0,0.0,0.0,0.0,0.0,-1.3682,0.0,0.0,0.0,0.0,0.0,-1.2312,-1.2094,-1.1635,-1.1512,0.0,0.0,0.0,0.0,0.0,0.0,0.0,0.0,0.0,0.0,0.0,0.0,0.0,0.0,0.0,0.0,0.0,0.0,0.0,0.0,-3.2342,-3.1377,-3.1377,-3.058,-3.0074,-3.0074,-2.9593,-2.9292,-2.9292,-2.9292,-2.9699,-3.057,-2.978,-3.009,-3.1655,-3.0322,-3.0129,-3.1174,-3.0634,-3.0586,-3.0898,-3.0326,-3.0086,-3.0122,-3.0694,-3.0579,-3.0182,-3.1271,-3.1705,-3.1657,-3.1127,-3.0922,-3.0735,-2.9689,-2.9304,-2.922,0.0,0.0,0.0,0.0,0.0,0.0,0.0,0.0,0.0,0.0,0.0,0.0,0.0,0.0,0.0,0.0,0.0,0.0,-0.9855,-1.0085,-1.0173,-1.0198,-1.0261,-1.0261,-1.016,-0.988,-0.9724,-0.9711,-1.0021,-1.0148,-1.0059,-1.0691,-1.1348,-1.2015,-1.3156,-1.3547,-1.3431,-1.4235,-1.404,-1.3198,-1.3198,-1.3112,-1.2978,0.0,0.0,0.0,0.0,0.0,0.0,0.0,0.0,0.0,0.0,0.0,0.0,-1.3529,-1.2762,-1.1889,-1.2696,0.0,0.0,0.0,0.0,0.0,0.0,0.0,0.0,0.0,0.0,0.0,0.0,0.0,0.0,0.0,0.0,0.0,0.0,0.0,0.0,0.0,-3.1358,-3.0611,-3.0,-2.9346,-2.8979,-2.8979,-2.8835,-2.8967,-2.9537,-2.9548,-2.9877,-3.0716,-3.0461,-3.0499,-3.0989,-3.0581,-3.046,-3.0664,-3.0476,-3.0586,-3.0898,-3.0326,-3.029,-3.0694,-3.085,-3.1043,-3.1259,-3.1585,-3.1705,-3.1657,-3.1127,-3.0694,-3.0242,-2.9556,-2.9063,-2.8727,0.0,0.0,0.0,0.0,0.0,0.0,0.0,0.0,0.0,0.0,0.0,0.0,0.0,0.0,0.0,0.0,0.0,0.0,0.0,-0.9841,-0.9893,-0.9905,-0.9893,-0.9828,-0.9699,-0.9567,-0.938,-0.9162,-0.9606,-0.9777,-0.9736,-1.0524,-1.1222,-1.1929,-1.3411,-1.3845,-1.3518,-1.447,-1.4232,-1.3198,-1.3198,-1.3218,-1.3232,0.0,0.0,0.0,0.0,0.0,0.0,0.0,0.0,0.0,0.0,0.0,0.0,-1.3511,-1.3067,-1.2676,-1.3512,0.0,0.0,0.0,0.0,0.0,0.0,0.0,0.0,0.0,0.0,0.0,0.0,0.0,0.0,0.0,0.0,0.0,0.0,0.0,0.0,0.0,-3.0102,-2.9558,-2.902,-2.851,-2.8198,-2.8198,-2.8198,-2.8382,-2.8903,-2.9272,-2.9808,-3.0451,-3.0331,-3.0478,-3.0976,-3.0474,-3.0323,-3.0558,-3.0089,-2.9917,-2.9929,-2.9821,-2.9941,-3.0254,-3.0157,-3.038,-3.0747,-3.0877,-3.1004,-3.1067,-3.0958,-3.0718,-3.0362,-3.0037,-2.946,-2.8823,0.0,0.0,0.0,0.0,0.0,0.0,0.0,0.0,0.0,0.0,0.0,0.0,0.0,0.0,0.0,0.0,0.0,0.0,0.0,0.0,-0.9699,-0.9828,-0.9725,-0.9513,-0.9191,-0.9213,-0.9226,-0.9205,-0.9338,-0.9485,-0.9689,-1.0272,-1.0845,-1.1451,-1.278,-1.3323,-1.3241,-1.3943,-1.3829,-1.3198,-1.3181,-1.3399,-1.3705,-1.3779,0.0,0.0,0.0,0.0,0.0,0.0,0.0,0.0,0.0,0.0,-1.3709,-1.2836,-1.3227,-1.3974,0.0,0.0,0.0,0.0,0.0,0.0,0.0,0.0,0.0,0.0,0.0,0.0,0.0,0.0,0.0,0.0,0.0,0.0,0.0,0.0,0.0,-2.9201,-2.8782,-2.8438,-2.8438,-2.7957,-2.7669,-2.7678,-2.7678,-2.7678,-2.7678,-2.8631,-2.9339,-2.9717,-2.9609,-3.0031,-3.1044,-2.9934,-2.9722,-3.047,-2.9512,-2.8797,-2.8378,-2.8919,-2.916,-2.916,-2.9039,-2.9128,-2.934,-2.9684,-2.9905,-3.0062,-3.0543,-3.0699,-3.0663,-3.0663,-3.005,-2.9232,0.0,0.0,0.0,0.0,0.0,0.0,0.0,0.0,0.0,0.0,0.0,0.0,0.0,0.0,0.0,0.0,0.0,0.0,0.0,0.0,-0.9299,-0.9271,-0.9341,-0.9544,-0.9874,-0.9592,-0.9636,-1.0044,-0.9612,-0.969,-1.0248,-1.125,-1.214,-1.2923,-1.4681,-1.487,-1.3945,-1.4776,-1.4377,-1.3198,-1.3141,-1.3346,-1.3656,-1.3257,-1.3392,0.0,0.0,0.0,0.0,0.0,0.0,0.0,-1.2745,-1.2858,-1.3073,-1.3116,-1.3365,-1.3686,0.0,0.0,0.0,0.0,0.0,0.0,0.0,0.0,0.0,0.0,0.0,0.0,0.0,0.0,0.0,0.0,0.0,0.0,0.0,-2.8059,-2.8394,-2.8089,-2.7963,-2.7858,-2.7858,-2.7378,-2.7234,-2.7654,-2.7678,-2.7678,-2.7678,-2.8077,-2.812,-2.7822,-2.8493,-2.8784,-2.8575,-2.885,-2.8736,-2.8221,-2.8546,-2.8182,-2.7246,-2.7813,-2.8026,-2.8114,-2.8891,-2.9263,-2.934,-2.9827,-2.9803,-2.9484,-2.9593,-2.9388,-2.9027,-2.9027,-2.8871,-2.8739,0.0,0.0,0.0,0.0,0.0,0.0,0.0,0.0,0.0,0.0,0.0,0.0,0.0,0.0,0.0,0.0,0.0,0.0,0.0,0.0,-0.9286,-0.9245,-0.9301,-0.9485,-0.9797,-0.9924,-1.01,-1.0353,-1.0355,-1.0369,-1.0418,-1.153,-1.2304,-1.2856,-1.4601,-1.4727,-1.3697,-1.4747,-1.4428,-1.3198,-1.3232,-1.3435,-1.3705,-1.3643,-1.3897,-1.4212,-1.3744,0.0,0.0,0.0,0.0,0.0,0.0,0.0,-1.3369,-1.3092,-1.3419,-1.3926,0.0,0.0,0.0,0.0,0.0,0.0,0.0,0.0,0.0,0.0,0.0,0.0,0.0,0.0,0.0,0.0,0.0,0.0,0.0,-2.7366,-2.7618,-2.7342,-2.7522,-2.7678,-2.7678,-2.7438,-2.739,-2.7666,-2.7678,-2.7678,-2.7678,-2.8023,-2.8152,-2.7977,-2.8476,-2.868,-2.8574,-2.8936,-2.8735,-2.7876,-2.826,-2.7814,-2.6661,-2.6864,-2.7054,-2.733,-2.7541,-2.766,-2.7813,-2.8223,-2.8335,-2.8198,-2.845,-2.8534,-2.851,-2.851,-2.8354,-2.8174,0.0,0.0,0.0,0.0,0.0,0.0,0.0,0.0,0.0,0.0,0.0,0.0,0.0,0.0,0.0,0.0,0.0,0.0,0.0,0.0,0.0,-0.9421,-0.9421,-0.9482,-0.9656,-1.0218,-1.0542,-1.0568,-1.1222,0.0,0.0,0.0,-1.2564,-1.291,-1.4144,-1.4156,-1.3328,-1.4255,-1.4097,-1.3215,-1.3323,-1.3511,-1.3772,-1.415,-1.4522,-1.4809,-1.4418,-1.4517,-1.4632,-1.3269,0.0,0.0,0.0,0.0,-1.3693,-1.2671,-1.3176,-1.3997,0.0,0.0,0.0,0.0,0.0,0.0,0.0,0.0,0.0,0.0,0.0,0.0,0.0,0.0,0.0,0.0,0.0,0.0,0.0,0.0,-2.6994,-2.691,-2.7366,-2.7642,-2.7519,-2.7546,-2.7546,-2.7507,-2.763,-2.7678,-2.7678,-2.8138,-2.8397,-2.8524,-2.8648,-2.8768,-2.8919,-2.9096,-2.8757,-2.7973,-2.7923,-2.7383,-2.6396,-2.6082,-2.6214,-2.6635,-2.609,-2.5971,-2.6142,-2.6508,-2.6687,-2.6813,-2.7342,-2.7801,-2.8102,-2.821,-2.7957,-2.7596,0.0,0.0,0.0,0.0,0.0,0.0,0.0,0.0,0.0,0.0,0.0,0.0,0.0,0.0,0.0,0.0,0.0,0.0,-1.008,0.0,0.0,-0.9472,-0.9485,-0.9741,-1.027,-1.0485,-1.0813,-1.1262,0.0,0.0,0.0,0.0,0.0,-1.5475,0.0,-1.4626,-1.3941,-1.3526,-1.3283,-1.3198,-1.3215,-1.3501,-1.3871,-1.3809,-1.4004,-1.4297,-1.4245,-1.4177,-1.4049,-1.3493,-1.3426,0.0,0.0,0.0,-1.2723,-1.1434,-1.2059,0.0,0.0,0.0,0.0,0.0,0.0,0.0,0.0,0.0,0.0,0.0,0.0,0.0,0.0,0.0,0.0,0.0,0.0,0.0,0.0,0.0,-2.7402,-2.6958,-2.7366,-2.7459,-2.6802,-2.6918,-2.6918,-2.6766,-2.7349,-2.7678,-2.7678,-2.7789,-2.7686,-2.7429,-2.8032,-2.795,-2.7077,-2.7865,-2.7741,-2.6651,-2.6469,-2.6396,-2.6384,-2.5696,-2.5527,-2.5778,-2.5973,-2.6057,-2.6142,-2.6669,-2.6609,-2.6262,-2.6789,-2.6791,-2.6478,-2.6922,-2.7066,-2.7066,0.0,0.0,0.0,0.0,0.0,0.0,0.0,0.0,0.0,0.0,0.0,0.0,0.0,0.0,0.0,-1.0164,-0.9841,-0.9636,-0.9743,-0.9444,-0.9313,-0.9446,-0.9773,-1.0107,-1.045,-1.1184,-1.1693,-1.1958,0.0,0.0,0.0,-1.5421,-1.5639,0.0,0.0,0.0,0.0,-1.4032,-1.3725,-1.3215,-1.3284,-1.3383,-1.3474,-1.3594,-1.3914,-1.4273,-1.3924,-1.413,-1.4424,-1.3395,-1.3307,-1.3471,-1.2758,0.0,0.0,0.0,-1.1971,0.0,0.0,0.0,0.0,0.0,0.0,0.0,0.0,0.0,0.0,0.0,0.0,0.0,0.0,0.0,0.0,0.0,0.0,0.0,0.0,0.0,-2.542,-2.5192,-2.5877,-2.6237,-2.5888,-2.65,-2.6848,-2.6772,-2.7076,-2.7246,-2.7246,-2.7246,-2.7164,-2.7036,-2.7341,-2.7198,-2.6529,-2.693,-2.6747,-2.6018,-2.5584,-2.5596,-2.5946,-2.5491,-2.5347,-2.543,-2.56,-2.5661,-2.5673,-2.5925,-2.5877,-2.5685,-2.5925,-2.5877,-2.5685,-2.5937,-2.5985,-2.6021,0.0,0.0,0.0,0.0,0.0,0.0,0.0,0.0,0.0,0.0,0.0,0.0,0.0,0.0,0.0,0.0,-1.0003,-0.9711,-0.942,-0.9471,-0.947,-0.9408,-1.0123,-1.051,-1.0479,-1.1684,-1.2335,0.0,0.0,0.0,-1.5941,-1.6165,-1.6279,0.0,-1.6574,0.0,0.0,0.0,0.0,0.0,0.0,-1.3488,-1.3181,-1.3711,-1.412,-1.4403,-1.4164,-1.4553,-1.4968,-1.3621,-1.3447,-1.3634,-1.2722,-1.2591,0.0,0.0,0.0,0.0,0.0,0.0,0.0,0.0,0.0,0.0,0.0,0.0,0.0,0.0,0.0,0.0,0.0,0.0,0.0,0.0,0.0,0.0,0.0,0.0,-2.4396,-2.4396,-2.5168,-2.5625,-2.5457,-2.6333,-2.6837,-2.6631,-2.6693,-2.6741,-2.6885,-2.6765,-2.6719,-2.6756,-2.6756,-2.6553,-2.6019,-2.5971,-2.5704,-2.5263,-2.4903,-2.4881,-2.5135,-2.4997,-2.4987,-2.5119,-2.5252,-2.5312,-2.5312,-2.5312,-2.5312,-2.5312,-2.5312,-2.5312,-2.5312,-2.5312,-2.5312,-2.5312,0.0,0.0,0.0,0.0,0.0,0.0,0.0,0.0,0.0,0.0,0.0,0.0,-0.9394,-1.0041,-1.0385,-1.0226,-1.0357,-1.0154,-0.9445,-0.9817,-0.9862,-0.942,-1.0529,0.0,-1.042,-1.1715,-1.2368,0.0,0.0,0.0,-1.5443,-1.5768,-1.6464,-1.739,-1.7115,-1.6811,-1.6494,0.0,0.0,0.0,0.0,0.0,0.0,0.0,-1.464,0.0,0.0,-1.5664,-1.5513,-1.4456,-1.4233,-1.4135,-1.2896,-1.2579,-1.2478,0.0,0.0,0.0,0.0,0.0,0.0,0.0,0.0,0.0,0.0,0.0,0.0,0.0,0.0,0.0,0.0,0.0,0.0,0.0,0.0,0.0,0.0,0.0,-2.5973,-2.5973,-2.649,-2.6535,-2.5837,-2.645,-2.6607,-2.592,-2.6044,-2.637,-2.6861,-2.643,-2.6214,-2.6408,-2.6421,-2.5958,-2.4971,-2.4729,-2.444,-2.4098,-2.437,-2.429,-2.3878,-2.3878,-2.4109,-2.4556,-2.5083,-2.5312,-2.5312,-2.5312,-2.5312,-2.5312,-2.5312,-2.5312,-2.5312,-2.5312,-2.5312,-2.5312,0.0,0.0,0.0,0.0,0.0,0.0,0.0,0.0,0.0,0.0,0.0,0.0,0.0,-0.9748,-0.9948,-1.0188,-1.0418,-1.0461,-1.0199,-1.001,-0.9893,-0.9852,-1.0592,-1.0975,-1.0916,-1.1765,0.0,0.0,0.0,-1.349,-1.4774,-1.5095,-1.5595,-1.6241,-1.6867,-1.666,-1.584,-1.5396,0.0,0.0,0.0,0.0,0.0,0.0,0.0,0.0,0.0,0.0,0.0,-1.4274,-1.3833,-1.3517,-1.2449,-1.221,-1.2187,-1.1507,-1.1017,0.0,0.0,0.0,0.0,0.0,0.0,0.0,0.0,0.0,0.0,0.0,0.0,0.0,0.0,0.0,0.0,0.0,0.0,0.0,0.0,0.0,-2.4487,-2.4601,-2.5293,-2.5535,-2.5014,-2.5624,-2.5889,-2.5505,-2.466,-2.4506,-2.5324,-2.4279,-2.397,-2.4705,-2.4808,-2.4524,-2.3806,-2.3389,-2.3228,-2.3353,-2.3567,-2.3872,-2.4242,-2.395,-2.423,-2.5011,-2.4867,-2.4987,-2.5312,-2.5312,-2.5312,-2.5312,-2.5312,-2.5312,-2.5312,-2.5312,-2.5312,-2.5312,0.0,0.0,0.0,0.0,0.0,0.0,0.0,0.0,0.0,0.0,0.0,0.0,0.0,0.0,-1.0508,-1.0653,-1.063,-1.0546,-1.0414,-1.0245,-1.0151,-1.0102,-1.0825,-1.1214,-1.1177,-1.1778,0.0,0.0,0.0,0.0,0.0,-1.405,-1.4455,-1.4898,-1.5639,-1.5953,0.0,0.0,0.0,-1.4058,0.0,0.0,-1.4208,0.0,0.0,0.0,0.0,0.0,0.0,0.0,-1.4063,-1.3627,-1.26,-1.2056,-1.176,-1.1471,0.0,0.0,0.0,0.0,0.0,0.0,0.0,0.0,0.0,0.0,0.0,0.0,0.0,0.0,0.0,0.0,0.0,0.0,0.0,0.0,0.0,0.0,0.0,-2.3284,-2.4347,-2.489,-2.4379,-2.4953,-2.5269,-2.5152,-2.3849,0.0,-2.4208,-2.3206,-2.2929,-2.3692,-2.3457,-2.3208,-2.2924,-2.2439,-2.2389,-2.2746,-2.2829,-2.316,-2.3725,-2.3388,-2.3713,-2.4518,-2.4338,-2.4662,-2.5312,-2.5312,-2.5312,-2.5312,-2.5312,-2.5347,-2.5382,-2.5312,-2.5418,-2.5594,0.0,0.0,0.0,0.0,0.0,0.0,0.0,0.0,0.0,-0.9806,0.0,0.0,0.0,0.0,0.0,-1.1601,-1.0969,-1.0436,-1.0059,-1.0567,-1.0645,-1.0124,-1.1224,-1.1611,-1.1091,-1.1724,0.0,0.0,0.0,0.0,0.0,0.0,-1.3092,-1.3541,-1.3477,-1.4761,-1.6946,0.0,-1.6528,-1.6437,0.0,-1.5391,-1.5202,0.0,0.0,0.0,-1.731,-1.6981,0.0,-1.5368,0.0,0.0,0.0,0.0,0.0,0.0,0.0,0.0,0.0,0.0,0.0,0.0,0.0,0.0,0.0,0.0,0.0,0.0,0.0,0.0,0.0,0.0,0.0,0.0,0.0,0.0,0.0,0.0,0.0,-2.2301,-2.3896,-2.4786,-2.4062,-2.4487,-2.4779,-2.4733,-2.3619,-2.3159,-2.371,-2.3345,-2.3257,-2.3471,-2.2503,-2.2117,-2.2408,-2.2017,-2.1957,-2.2228,-2.2197,-2.2197,-2.2209,-2.2197,-2.2486,-2.3059,-2.3565,-2.4326,-2.5264,-2.53,-2.5312,-2.5312,-2.5312,-2.543,-2.5606,-2.5382,-2.5699,-2.6164,0.0,0.0,0.0,0.0,0.0,0.0,0.0,0.0,-0.9524,0.0,0.0,0.0,-1.049,-1.0604,-1.0715,-1.0926,-1.0517,-1.0365,-1.0641,-1.0443,-1.0322,-1.0331,-1.0593,-1.0759,-1.0811,-1.0993,0.0,0.0,0.0,0.0,0.0,0.0,0.0,0.0,-1.241,-1.289,-1.376,-1.4746,0.0,0.0,-1.5282,-1.5348,0.0,0.0,0.0,0.0,0.0,-1.6154,-1.5342,0.0,-1.4811,-1.4019,0.0,0.0,0.0,0.0,0.0,0.0,-1.0869,0.0,0.0,0.0,0.0,0.0,0.0,0.0,0.0,0.0,0.0,0.0,0.0,0.0,0.0,0.0,0.0,0.0,0.0,0.0,0.0,-2.277,-2.3489,-2.3908,-2.3869,-2.408,-2.4008,0.0,-2.2151,-2.1566,-2.2053,-2.1776,-2.192,-2.2613,-2.2225,-2.2248,-2.2757,-2.2414,-2.2274,-2.2328,-2.2247,-2.239,-2.2782,-2.2366,-2.269,-2.3577,-2.3336,-2.3613,-2.4254,-2.4999,-2.5382,-2.5535,-2.5688,-2.5863,-2.606,-2.6082,-2.6151,-2.6198,0.0,0.0,0.0,0.0,0.0,0.0,0.0,0.0,-0.9699,0.0,0.0,0.0,-1.092,-1.0701,-1.0576,-1.0773,-1.0521,-1.0431,-1.0639,-1.0351,-1.0235,-1.0351,-1.0322,-1.038,-1.0534,-1.0553,0.0,0.0,0.0,0.0,0.0,0.0,0.0,0.0,0.0,0.0,0.0,0.0,0.0,0.0,-1.4806,0.0,0.0,-1.6271,-1.6147,0.0,0.0,0.0,-1.5693,-1.5504,-1.4685,0.0,0.0,0.0,0.0,0.0,0.0,0.0,0.0,0.0,0.0,0.0,0.0,0.0,-1.1418,-1.2393,-1.3354,0.0,0.0,0.0,0.0,0.0,0.0,0.0,0.0,0.0,0.0,0.0,0.0,-2.1367,-2.2012,-2.2365,-2.1971,-2.2195,-2.2311,-2.2146,-2.1069,-2.0686,-2.1319,-2.1215,-2.1377,-2.1958,-2.1688,-2.1781,-2.2314,-2.1814,-2.1748,-2.214,-2.194,-2.2137,-2.2674,-2.233,-2.2534,-2.3123,-2.3016,-2.3143,-2.3508,-2.442,-2.4739,-2.464,-2.5111,-2.5231,-2.5173,-2.5403,-2.5581,-2.5687,0.0,0.0,0.0,0.0,0.0,0.0,0.0,0.0,0.0,0.0,-1.0723,-1.0934,-1.1623,-1.1411,-1.1087,-1.0793,-1.074,-1.0586,-1.0273,-1.0302,-1.0302,-1.0293,-1.0293,-1.0293,-1.0283,-1.0351,0.0,0.0,0.0,0.0,0.0,0.0,0.0,0.0,0.0,0.0,0.0,0.0,0.0,-1.4388,-1.4435,-1.5215,0.0,0.0,-1.6645,-1.6268,-1.6967,-1.6883,-1.637,-1.5903,-1.4738,0.0,0.0,0.0,0.0,0.0,-1.1164,0.0,0.0,0.0,0.0,0.0,0.0,0.0,-1.1595,-1.2667,-1.3761,-1.4348,0.0,0.0,0.0,0.0,0.0,0.0,0.0,0.0,0.0,0.0,0.0,0.0,-2.0065,-2.0502,-1.9472,-1.9814,-2.0269,-2.0636,-2.0138,-2.0199,-2.1011,-2.1113,-2.1231,-2.1433,-2.1077,-2.1089,-2.1481,-2.0759,-2.0878,-2.1783,-2.141,-2.1547,-2.2092,-2.2061,-2.203,-2.2047,-2.2528,-2.2759,-2.2827,-2.3612,-2.3703,-2.34,-2.4178,-2.422,-2.3921,-2.4209,-2.4611,-2.4969,-0.807,0.0,0.0,0.0,0.0,0.0,0.0,0.0,-1.0275,-1.0816,-1.0998,-1.1075,-1.1075,-1.1198,-1.0931,-1.0087,-1.0482,-1.0554,-1.0022,-1.0294,-1.0385,-1.0234,-1.0215,-1.018,-1.0127,-1.0254,-1.0322,0.0,0.0,0.0,0.0,0.0,0.0,0.0,0.0,0.0,0.0,0.0,0.0,-1.3085,-1.4244,0.0,-1.608,-1.6064,-1.5567,-1.4981,-1.5795,-1.5806,-1.5383,-1.5403,-1.5351,-1.5038,0.0,0.0,0.0,0.0,0.0,0.0,0.0,0.0,0.0,0.0,0.0,0.0,-1.0919,-1.1255,-1.1727,0.0,0.0,0.0,0.0,0.0,0.0,0.0,0.0,0.0,0.0,0.0,0.0,0.0,-1.9033,-1.9651,-1.9843,-2.0074,-1.9858,-1.9098,-1.8939,-1.908,-1.9586,-1.9937,-2.0377,-2.1002,-2.0941,-2.1035,-2.1325,-2.071,-2.0805,-2.1618,-2.0663,-2.0684,-2.1557,-2.1115,-2.0903,-2.0935,-2.1481,-2.1742,-2.1937,-2.279,-2.3544,-2.4214,-2.4709,-2.4915,-2.501,-2.5072,-2.5064,-2.5004,-0.8316,0.0,0.0,0.0,0.0,0.0,0.0,0.0,-1.0574,-1.0772,-1.0895,-1.0913,-1.0858,-1.0979,-1.0801,-1.0203,-1.0452,-1.0517,-1.0224,-1.0459,-1.0543,-1.0455,-1.0511,-1.0527,-1.0512,-1.0533,-1.0575,0.0,0.0,0.0,0.0,0.0,0.0,0.0,0.0,0.0,0.0,0.0,-1.183,-1.3219,-1.4069,0.0,-1.5568,-1.5732,-1.5536,-1.5221,-1.5637,-1.5659,-1.5448,-1.5487,-1.5326,0.0,0.0,-1.3727,-1.2935,0.0,-1.143,-1.1073,0.0,0.0,0.0,-1.0686,0.0,0.0,0.0,-1.1196,-1.1643,-1.2148,-1.2487,0.0,0.0,0.0,0.0,0.0,0.0,0.0,0.0,0.0,0.0,0.0,-1.8165,-1.824,-1.8216,-1.8265,-1.819,-1.7918,-1.8153,-1.8523,-1.9081,-1.9296,-1.9698,-2.0343,-2.0355,-2.0441,-2.0638,-2.016,-2.0275,-2.0988,-2.0221,-2.0268,-2.0987,-2.0732,-2.0603,-2.0614,-2.0947,-2.1146,-2.1255,-2.1929,-2.2488,-2.3023,-2.3846,-2.3871,-2.3512,-2.3975,-2.4082,-2.4009,-0.8544,0.0,0.0,0.0,0.0,0.0,0.0,0.0,-1.065,-1.0683,-1.0762,-1.0832,-1.0883,-1.0971,-1.0899,-1.0597,-1.0663,-1.0671,-1.0554,-1.073,-1.0867,-1.0899,-1.0944,-1.0984,-1.099,-1.0888,-1.083,-1.0843,0.0,0.0,0.0,0.0,0.0,0.0,0.0,0.0,0.0,0.0,0.0,-1.3909,0.0,-1.4586,-1.5131,-1.5734,-1.5787,-1.5536,-1.5491,-1.5434,-1.538,-1.5333,-1.4983,-1.4585,-1.5036,-1.4296,0.0,0.0,0.0,0.0,0.0,0.0,0.0,0.0,0.0,-1.0689,0.0,0.0,0.0,-1.1996,0.0,0.0,0.0,0.0,0.0,0.0,0.0,0.0,0.0,0.0,0.0,0.0,-1.6788,-1.6483,-1.5988,-1.608,-1.639,-1.698,-1.7505,-1.8026,-1.8486,-1.8573,-1.8933,-1.9533,-1.9545,-1.9659,-1.9913,-1.9492,-1.9602,-2.0194,-1.9663,-1.9665,-2.0196,-2.0101,-2.0081,-2.018,-2.0325,-2.0522,-2.0753,-2.1162,-2.1349,-2.1505,-2.2605,-2.2455,-2.1722,-2.2557,-2.287,-2.2881,-0.8746,-0.9254,0.0,0.0,0.0,0.0,0.0,0.0,-1.0489,-1.0586,-1.0975,-1.123,0.0,0.0,0.0,0.0,0.0,0.0,-1.0724,0.0,-1.1498,-1.1658,-1.1365,-1.1223,-1.1343,-1.1088,-1.0853,-1.0629,0.0,0.0,0.0,0.0,0.0,0.0,-1.0784,0.0,0.0,0.0,-1.3661,0.0,-1.5004,-1.5061,0.0,-1.6092,-1.573,-1.4617,-1.4387,-1.4097,-1.3862,0.0,-1.4419,-1.4742,0.0,-1.4006,-1.4497,0.0,0.0,0.0,0.0,0.0,0.0,0.0,-1.1422,0.0,0.0,0.0,-1.0473,-0.9822,0.0,0.0,0.0,0.0,0.0,0.0,0.0,0.0,0.0,0.0,0.0,-1.3381,-1.405,-1.44,-1.4288,-1.4867,-1.5562,-1.6352,-1.6831,-1.7016,-1.6787,-1.7123,-1.7724,-1.862,-1.8632,-1.8954,-1.963,-1.9129,-1.9068,-1.9411,-1.8396,-1.8221,-1.8718,-1.8247,-1.8249,-1.8658,-1.8843,-1.9502,-2.0444,-2.0649,-2.081,-2.1028,-2.1714,-2.1897,-2.1832,-2.2231,-2.239,-2.2455,-0.8976,-0.9652,0.0,0.0,0.0,0.0,0.0,0.0,0.0,-1.0342,-1.0364,0.0,0.0,0.0,0.0,0.0,0.0,-1.2641,0.0,0.0,0.0,-1.1966,-1.1668,0.0,-1.1468,-1.1595,-1.1548,-1.1357,-1.1334,0.0,0.0,0.0,0.0,0.0,-1.096,0.0,-1.2648,0.0,0.0,0.0,0.0,0.0,0.0,-1.537,-1.4992,-1.4201,-1.3745,-1.3684,-1.3721,0.0,-1.3858,0.0,0.0,0.0,0.0,0.0,0.0,0.0,0.0,0.0,0.0,0.0,0.0,0.0,-1.0785,0.0,-0.9999,0.0,0.0,0.0,0.0,0.0,0.0,0.0,-0.9032,0.0,0.0,0.0,0.0,0.0,0.0,0.0,-1.4704,-1.3994,-1.3964,-1.5171,-1.5261,-1.5242,-1.5164,-1.6091,-1.7036,-1.7889,-1.8027,-1.8406,-1.9001,-1.8611,-1.8419,-1.8469,-1.7943,-1.7777,-1.7925,-1.7832,-1.7905,-1.8135,-1.8398,-1.8957,-1.9714,-1.9841,-2.0102,-2.0443,-2.0697,-2.1007,-2.1353,-2.2059,-2.2313,-2.239,-0.8985,0.0,0.0,0.0,0.0,0.0,0.0,0.0,0.0,0.0,0.0,0.0,-1.2381,-1.2576,0.0,0.0,-1.3451,-1.3355,0.0,0.0,-1.1806,0.0,0.0,0.0,0.0,0.0,-1.1703,-1.1678,0.0,0.0,0.0,0.0,0.0,0.0,0.0,-1.1785,-1.2775,0.0,0.0,-1.5522,-1.5413,-1.5033,-1.4494,-1.4401,-1.4143,-1.3789,-1.3324,-1.327,-1.3324,-1.2556,-1.3256,0.0,-1.3926,0.0,0.0,0.0,0.0,0.0,-1.3103,0.0,0.0,0.0,0.0,0.0,0.0,0.0,0.0,0.0,0.0,0.0,0.0,0.0,0.0,0.0,0.0,-0.876,0.0,0.0,0.0,0.0,0.0,0.0,0.0,-1.3151,-1.2901,-1.3783,-1.3868,-1.385,-1.3747,-1.492,-1.6025,-1.6896,-1.7032,-1.7499,-1.8363,-1.81,-1.7889,-1.7708,-1.7559,-1.7377,-1.7134,-1.7336,-1.752,-1.7726,-1.7877,-1.8422,-1.9199,-1.9198,-1.9543,-2.0085,-1.9933,-2.0116,-2.0594,-2.1686,-2.2116,-2.2204,-0.8719,-0.9151,0.0,0.0,0.0,0.0,0.0,0.0,0.0,0.0,0.0,0.0,0.0,0.0,0.0,0.0,0.0,-1.294,-1.2721,0.0,-1.2479,0.0,0.0,-1.1519,0.0,0.0,0.0,0.0,0.0,0.0,0.0,0.0,0.0,0.0,0.0,-1.1568,-1.2861,-1.3917,-1.4673,-1.511,-1.5048,-1.4306,-1.3276,0.0,-1.3338,-1.322,-1.3144,0.0,0.0,-1.2362,-1.2715,0.0,0.0,0.0,0.0,0.0,0.0,0.0,0.0,0.0,0.0,-1.2684,0.0,0.0,0.0,0.0,-0.9494,0.0,0.0,0.0,0.0,0.0,0.0,-0.7314,0.0,0.0,0.0,0.0,0.0,0.0,0.0,0.0,0.0,-1.2264,-1.2813,-1.2224,-1.3065,-1.33,-1.2577,-1.3406,-1.4363,-1.5434,-1.5346,-1.6086,-1.7808,-1.769,-1.7474,-1.7224,-1.7099,-1.6715,-1.6155,-1.6155,-1.6574,-1.7294,-1.6917,-1.7676,-1.9157,-1.8786,-1.9222,-2.0042,-1.9518,-1.9342,-1.9545,-2.1071,-2.1614,-2.1745,0.0,0.0,0.0,0.0,0.0,0.0,0.0,-0.9761,0.0,0.0,0.0,0.0,0.0,-1.5337,-1.5258,0.0,0.0,-1.5263,-1.4026,-1.3527,0.0,0.0,0.0,-1.2591,0.0,0.0,0.0,0.0,0.0,0.0,0.0,0.0,0.0,0.0,0.0,-1.1561,0.0,0.0,0.0,0.0,0.0,-1.4055,-1.3392,0.0,-1.306,-1.2725,-1.2706,-1.247,0.0,-1.1896,-1.2426,-1.3159,-1.3161,-1.3656,-1.4344,-1.4686,-1.4502,-1.4249,0.0,0.0,-1.4124,-1.3454,0.0,0.0,0.0,0.0,0.0,0.0,0.0,0.0,0.0,0.0,-0.7654,-0.7545,-0.7769,0.0,0.0,0.0,0.0,0.0,0.0,0.0,0.0,0.0,0.0,-1.0788,-1.1033,-1.0934,-1.04,-1.1924,-1.3037,-1.3545,-1.4068,-1.4902,-1.6074,-1.626,-1.6402,-1.6493,-1.6731,-1.6712,-1.6428,-1.6616,-1.6898,-1.7242,-1.7151,-1.7634,-1.8435,-1.8218,-1.8691,-1.9518,-1.8977,-1.9011,-1.9425,-2.031,-2.0491,-2.0338,-0.8183,0.0,0.0,0.0,0.0,0.0,0.0,0.0,0.0,0.0,-1.3322,0.0,-1.6494,0.0,-1.6454,0.0,-1.6459,-1.6053,-1.509,-1.3961,0.0,-1.3405,-1.292,0.0,0.0,0.0,0.0,0.0,0.0,-1.082,0.0,0.0,0.0,0.0,0.0,0.0,0.0,0.0,-1.4101,0.0,0.0,-1.3392,0.0,0.0,-1.2965,-1.2992,0.0,-1.2849,-1.267,-1.2275,-1.2773,-1.355,-1.3421,-1.3864,-1.4531,-1.5052,-1.484,-1.451,-1.479,-1.4752,0.0,-1.3931,-1.3588,0.0,-1.137,0.0,-1.0401,0.0,0.0,0.0,0.0,0.0,0.0,-0.7972,-0.7813,-0.7691,0.0,-0.7691,0.0,0.0,0.0,0.0,0.0,0.0,-0.8937,-0.9541,-0.9665,-0.9649,0.0,-1.1129,-1.2165,-1.2349,-1.3077,-1.3872,-1.4718,-1.4965,-1.5192,-1.5421,-1.6053,-1.6171,-1.5907,-1.643,-1.6688,-1.6738,-1.6907,-1.7296,-1.7858,-1.7846,-1.8289,-1.8967,-1.8408,-1.8442,-1.8825,-1.9565,-1.992,-2.0042,0.0,0.0,0.0,0.0,-0.8621,0.0,0.0,0.0,-1.3323,0.0,-1.5409,-1.5673,-1.6935,-1.6271,-1.5911,-1.6358,-1.576,-1.544,-1.573,-1.4013,0.0,0.0,-1.1997,-1.1609,-1.225,0.0,0.0,0.0,0.0,0.0,0.0,0.0,0.0,0.0,-1.0523,0.0,-1.1282,-1.205,-1.2286,-1.2101,-1.2076,-1.24,-1.288,-1.2602,-1.3123,-1.3947,-1.3766,-1.3622,-1.3486,-1.3377,-1.3673,-1.3998,-1.3653,-1.4289,-1.5157,-1.5205,-1.5284,-1.5381,-1.541,-1.5031,-1.4524,-1.4129,-1.3598,0.0,0.0,0.0,-1.1584,0.0,0.0,0.0,0.0,0.0,0.0,-0.8503,-0.8031,-0.7691,0.0,0.0,0.0,0.0,0.0,0.0,0.0,-0.9104,-0.9451,-0.8561,-0.9036,0.0,0.0,-1.0913,-1.1691,-1.185,-1.2373,-1.3007,-1.3827,-1.3847,-1.3975,-1.4228,-1.509,-1.5212,-1.4712,-1.5664,-1.6048,-1.5984,-1.6257,-1.6794,-1.7416,-1.7584,-1.7983,-1.8408,-1.7867,-1.7672,-1.7788,-1.874,-1.9803,-2.0774,-0.7908,-0.7907,-0.8239,0.0,-0.9384,-0.9691,0.0,0.0,0.0,0.0,-1.5717,-1.7042,-1.7796,-1.8406,-1.8174,-1.6748,-1.6732,0.0,0.0,0.0,0.0,-1.4617,-1.4281,-1.3802,-1.3177,-1.3024,0.0,-1.2555,0.0,0.0,-1.1774,0.0,0.0,0.0,0.0,0.0,-1.0294,-1.1645,-1.223,-1.2141,-1.1635,-1.2134,-1.3167,0.0,-1.3568,-1.4763,-1.3984,-1.3675,-1.3684,-1.3774,-1.3685,-1.3609,-1.4152,-1.4303,-1.4425,-1.5023,-1.5215,-1.5264,-1.5362,-1.5235,-1.4936,-1.4544,-1.4185,-1.3663,-1.2612,0.0,0.0,0.0,0.0,0.0,0.0,0.0,0.0,0.0,0.0,0.0,0.0,0.0,0.0,-0.8236,0.0,0.0,0.0,-0.839,-0.8582,-0.8435,-0.8622,0.0,0.0,0.0,-1.0759,-1.1434,-1.1588,-1.2097,-1.3003,-1.3169,-1.3665,-1.4503,-1.5182,-1.5513,-1.5598,-1.5948,-1.6295,-1.6645,-1.6515,-1.685,-1.7465,-1.725,-1.7485,-1.7833,-1.7304,-1.7107,-1.7151,-1.7401,-1.804,-1.8737,-0.829,0.0,0.0,-0.9417,0.0,0.0,-1.1619,-1.3028,0.0,-1.5378,-1.6648,0.0,-1.8338,-1.9076,-1.8971,-1.7689,-1.7008,0.0,-1.5791,0.0,0.0,-1.5583,-1.4776,-1.4118,-1.3685,-1.3376,0.0,-1.295,0.0,0.0,-1.2181,0.0,0.0,0.0,0.0,-1.0062,0.0,-1.1513,-1.2188,-1.2393,-1.2198,-1.2741,0.0,-1.3276,-1.3895,-1.4888,-1.4505,-1.4307,-1.426,-1.4199,-1.4131,-1.4104,-1.4419,-1.4504,-1.4618,-1.508,-1.5235,-1.5313,-1.5391,-1.5332,-1.5226,-1.5003,-1.4849,-1.4535,-1.3804,-1.3615,-1.3506,0.0,-1.2989,-1.2837,0.0,0.0,0.0,0.0,0.0,0.0,0.0,0.0,0.0,0.0,-0.8371,0.0,0.0,-0.8028,-0.8106,-0.8419,-0.8295,0.0,0.0,0.0,-1.03,-1.0577,-1.1288,-1.1745,-1.1902,-1.2032,-1.2536,-1.3417,-1.4051,-1.4586,-1.5051,-1.5553,-1.5851,-1.595,-1.5972,-1.6277,-1.6812,-1.6712,-1.6962,-1.7304,-1.7012,-1.6908,-1.6908,-1.6795,-1.7296,-1.7906,0.0,0.0,0.0,0.0,0.0,0.0,0.0,-1.4538,0.0,-1.7335,0.0,-1.8109,-1.8582,-1.8882,-1.892,-1.8536,0.0,-1.6079,-1.6994,-1.474,-1.4239,-1.6151,-1.4505,-1.3688,-1.3912,-1.3178,0.0,0.0,0.0,0.0,0.0,0.0,0.0,0.0,0.0,0.0,0.0,-1.1477,-1.2193,-1.2799,-1.3166,-1.3622,-1.4059,-1.3914,-1.4204,-1.4743,-1.51,-1.5147,-1.4982,-1.4649,-1.4735,-1.4925,-1.4601,-1.4792,-1.5138,-1.5196,-1.5284,-1.541,-1.541,-1.541,-1.541,-1.541,-1.5381,-1.5293,-1.4951,-1.4873,-1.4873,-1.4863,-1.4561,-1.4241,-1.4129,0.0,0.0,0.0,0.0,0.0,0.0,0.0,0.0,0.0,0.0,0.0,0.0,0.0,0.0,0.0,0.0,0.0,0.0,0.0,-1.0146,-0.987,-1.1259,-1.1774,-1.1217,-1.104,-1.1395,-1.2289,-1.268,-1.3229,-1.4003,-1.4897,-1.5088,-1.4758,-1.5099,-1.5479,-1.5886,-1.6147,-1.6517,-1.6908,-1.6908,-1.6908,-1.6874,-1.6682,-1.7084,-1.769,0.0,0.0,0.0,0.0,0.0,-1.2438,-1.538,-1.6833,-1.7456,-1.6937,-1.8262,-1.9014,-1.8355,-1.886,-1.8787,-1.7623,-1.6794,0.0,0.0,0.0,0.0,-1.579,-1.5298,-1.4722,-1.4088,-1.4225,-1.4361,0.0,0.0,0.0,0.0,0.0,0.0,0.0,0.0,0.0,-1.1625,-1.1481,0.0,-1.3212,-1.3276,-1.3598,-1.4045,-1.4467,-1.4886,-1.5284,-1.5332,-1.5284,-1.5167,-1.5226,-1.5041,-1.4866,-1.5013,-1.4965,-1.4914,-1.5138,-1.5284,-1.541,-1.541,-1.541,-1.541,-1.541,-1.5313,-1.5245,-1.5293,-1.5197,-1.5148,-1.5274,-1.5234,-1.5079,-1.4731,-1.274,0.0,0.0,0.0,0.0,0.0,0.0,0.0,0.0,0.0,-0.9257,0.0,0.0,0.0,0.0,0.0,0.0,0.0,0.0,-0.992,0.0,-1.1294,-1.1997,0.0,0.0,-1.2204,-1.4283,-1.3116,-1.3222,-1.4405,-1.4688,-1.4902,-1.5023,-1.4972,-1.5196,-1.5587,-1.5981,-1.6449,-1.6908,-1.6908,-1.6908,-1.6908,-1.6864,-1.6945,-1.7044,0.0,0.0,0.0,0.0,0.0,0.0,0.0,-1.8014,-1.8807,-1.7862,-1.8564,-1.8929,-1.8351,-1.8713,-1.8611,-1.766,-1.6695,-1.6249,-1.6508,-1.5606,-1.5546,-1.6579,-1.6034,0.0,-1.4753,-1.4882,-1.4753,-1.4298,0.0,0.0,0.0,0.0,0.0,0.0,0.0,-1.0785,0.0,0.0,0.0,-1.37,-1.4195,-1.4516,-1.4754,-1.5022,-1.5234,-1.541,-1.541,-1.5362,-1.5313,-1.5391,-1.5273,-1.5118,-1.5274,-1.5225,-1.5156,-1.5274,-1.5362,-1.541,-1.541,-1.541,-1.541,-1.541,-1.5362,-1.5313,-1.5381,-1.5362,-1.5313,-1.5381,-1.541,-1.5128,-1.4285,-1.3022,0.0,0.0,0.0,0.0,0.0,0.0,0.0,0.0,0.0,0.0,0.0,0.0,0.0,0.0,0.0,0.0,0.0,0.0,-0.9883,0.0,0.0,0.0,-1.262,0.0,-1.2324,-1.4231,-1.3206,-1.3327,-1.4515,-1.4556,-1.4637,-1.4669,-1.4617,-1.4763,-1.5106,-1.5824,-1.6186,-1.6367,-1.6757,-1.683,-1.676,-1.6864,-1.683,-1.6751,0.0,-1.1556,0.0,0.0,-1.3936,0.0,-1.6594,-1.8225,-1.9262,-1.8986,-1.8872,-1.8766,-1.8615,-1.8556,-1.8217,-1.752,-1.6608,-1.612,-1.6316,-1.5777,-1.5933,-1.6964,-1.6407,-1.5854,-1.5423,-1.5238,-1.4897,0.0,0.0,0.0,0.0,0.0,0.0,0.0,0.0,0.0,0.0,0.0,-1.4052,-1.4221,-1.5071,-1.5352,-1.5264,-1.5352,-1.5323,-1.5235,-1.5206,-1.5147,-1.5021,-1.5001,-1.5089,-1.5177,-1.505,-1.5079,-1.5206,-1.5206,-1.5294,-1.541,-1.541,-1.5391,-1.5362,-1.5381,-1.5352,-1.5332,-1.5381,-1.5391,-1.5362,-1.5381,-1.541,-1.509,-1.4062,-1.3479,-1.2877,0.0,0.0,0.0,0.0,0.0,0.0,0.0,0.0,0.0,-0.8347,0.0,0.0,0.0,0.0,0.0,-0.9073,0.0,0.0,0.0,0.0,-1.1304,-1.2114,0.0,-1.2245,-1.4047,-1.3265,-1.3482,-1.4536,-1.4598,-1.4499,-1.4276,-1.4469,-1.4696,-1.4974,-1.5782,-1.6055,-1.6086,-1.6677,-1.6795,-1.6682,-1.683,-1.6795,-1.6682,0.0,0.0,0.0,0.0,0.0,0.0,-1.6765,-1.7315,-1.7987,-1.9586,-1.9468,-1.9231,-1.9222,-1.8432,-1.7475,-1.6457,-1.6638,-1.6133,-1.4546,-1.6066,-1.6511,-1.545,-1.5909,-1.6065,-1.5749,-1.5268,-1.5089,0.0,0.0,-1.3132,0.0,0.0,0.0,0.0,0.0,0.0,-1.3754,-1.3912,-1.4257,-1.4689,-1.5187,-1.5147,-1.4804,-1.5235,-1.5147,-1.4736,-1.4617,-1.4261,-1.3842,-1.3722,-1.4073,-1.4469,-1.3863,-1.4073,-1.4588,-1.4588,-1.4971,-1.541,-1.541,-1.5313,-1.5264,-1.5362,-1.5225,-1.5108,-1.5323,-1.5313,-1.5264,-1.5362,-1.541,-1.5332,-1.51,-1.4325,-1.3118,0.0,0.0,0.0,0.0,0.0,0.0,0.0,0.0,0.0,0.0,-0.8078,0.0,0.0,-0.7418,0.0,0.0,0.0,0.0,-1.0172,-0.9809,-1.0436,-1.2253,-1.1343,-1.2344,-1.5235,-1.3652,-1.3532,-1.4704,-1.4934,-1.4754,-1.4255,-1.5038,-1.5622,-1.5969,-1.605,-1.6387,-1.6819,-1.6855,-1.6908,-1.6874,-1.6908,-1.6908,-1.6874,0.0,0.0,0.0,0.0,0.0,0.0,0.0,-1.7587,-1.8073,-1.9225,-1.9311,-1.9071,-1.8461,-1.8041,-1.7491,-1.6683,-1.6795,-1.6589,-1.5856,-1.6453,-1.6766,-1.6591,-1.6443,-1.6388,-1.635,-1.5883,-1.5446,0.0,0.0,0.0,0.0,0.0,0.0,0.0,-1.2949,-1.3624,-1.4025,-1.4294,-1.4528,-1.4715,-1.4913,-1.4854,-1.4715,-1.4913,-1.4824,-1.4529,-1.4142,-1.3833,-1.3502,-1.3039,-1.3342,-1.3872,-1.3692,-1.4022,-1.444,-1.4112,-1.4677,-1.5323,-1.4971,-1.5098,-1.5332,-1.5381,-1.5332,-1.5274,-1.5391,-1.5362,-1.5332,-1.5381,-1.541,-1.5264,-1.4863,-1.4702,-1.3968,-1.1957,0.0,0.0,0.0,0.0,0.0,0.0,0.0,0.0,0.0,0.0,0.0,0.0,0.0,0.0,0.0,0.0,0.0,-1.0822,0.0,-1.1189,-1.3715,-1.2166,-1.268,-1.5207,-1.4285,-1.4222,-1.4946,-1.505,-1.5045,-1.498,-1.5231,-1.54,-1.5569,-1.5945,-1.6168,-1.6253,-1.6244,-1.6438,-1.6647,-1.6088,-1.6096,-1.6517,-1.7025,0.0,-1.5898,0.0,-1.6424,-1.6602,-1.6831,-1.7277,-1.7671,-1.7886,-1.8556,-1.8788,-1.8124,-1.7911,-1.7444,-1.6598,-1.68,-1.6729,-1.6142,-1.6453,-1.6745,-1.6889,-1.6506,0.0,-1.6502,-1.5941,-1.5295,-1.4647,-1.3565,0.0,0.0,0.0,-1.1943,-1.2622,-1.3752,-1.4183,-1.4094,-1.4405,-1.4459,-1.4291,-1.4449,-1.441,-1.4291,-1.438,-1.4192,-1.3855,-1.3463,-1.313,-1.2803,-1.2366,-1.2558,-1.2956,-1.3117,-1.3502,-1.3855,-1.3532,-1.4243,-1.503,-1.4617,-1.4913,-1.5362,-1.5381,-1.5362,-1.5362,-1.5381,-1.541,-1.541,-1.541,-1.541,-1.5206,-1.4617,-1.4775,-1.4361,-1.238,0.0,0.0,0.0,-0.977,0.0,0.0,-0.9835,-0.9315,-0.9787,-0.8975,0.0,0.0,0.0,0.0,0.0,0.0,0.0,0.0,0.0,0.0,-1.3422,-1.2056,-1.2477,-1.4633,-1.4553,-1.4626,-1.4867,-1.5149,-1.5391,-1.5566,-1.5501,-1.5561,-1.5719,-1.5929,-1.607,-1.6088,-1.587,-1.6149,-1.6607,-1.5925,-1.5898,-1.6262,-1.9332,-1.8655,-1.8059,-1.7964,-1.704,-1.6044,-1.5265,-1.6015,-1.6412,-1.5482,-1.7124,-1.8493,-1.8683,-1.8151,-1.7228,-1.5726,-1.6592,-1.6338,-1.4363,-1.5834,-1.6426,0.0,0.0,-1.5892,-1.6105,-1.505,-1.4499,-1.4499,0.0,0.0,-1.2328,-1.2978,-1.3232,-1.3247,-1.4386,-1.4644,-1.4193,-1.4193,-1.3853,-1.3359,-1.3821,-1.3731,-1.3359,-1.3593,-1.3221,-1.2512,-1.2512,-1.1996,-1.1365,-1.156,-1.1622,-1.1654,-1.1771,-1.2158,-1.2573,-1.2765,-1.3614,-1.4499,-1.4499,-1.4843,-1.5235,-1.5362,-1.5313,-1.5235,-1.5362,-1.541,-1.541,-1.541,-1.541,-1.5206,-1.4617,-1.4499,-1.3901,-1.2025,0.0,0.0,0.0,-0.8982,0.0,-0.9262,-0.8271,-0.7895,-0.8839,-0.8962,0.0,0.0,0.0,0.0,0.0,0.0,0.0,-0.8567,-0.7154,0.0,-1.0435,-1.0438,-1.1449,-1.3519,-1.4198,-1.4426,-1.435,-1.5264,-1.5746,-1.5799,-1.5993,-1.6397,-1.6821,-1.6105,-1.6219,-1.683,-1.6079,-1.6244,-1.69,-1.6864,-1.6619,-1.6291,-1.6672,-1.7515,-1.8081,-1.7067,-1.6857,-1.6707,-1.6313,-1.6117,-1.6096,-1.6228,-1.7103,-1.7759,-1.7814,-1.7797,-1.7444,0.0,-1.6048,-1.5729,0.0,-1.5368,-1.5376,-1.5678,-1.5158,-1.4771,-1.4591,-1.4303,-1.3904,-1.342,0.0,0.0,-1.3308,-1.313,-1.3469,-1.4271,-1.3766,-1.3609,-1.3672,-1.2876,-1.246,-1.2297,-1.2451,-1.242,-1.2297,-1.2358,-1.2389,-1.2328,-1.2011,-1.1864,-1.1809,-1.1498,-1.1404,-1.1365,-1.1178,-1.1748,-1.2451,-1.2189,-1.326,-1.4282,-1.3394,-1.3765,-1.4401,-1.444,-1.4252,-1.4154,-1.4508,-1.4222,-1.4004,-1.438,-1.4073,-1.3666,-1.3403,-1.3593,-1.3126,-1.1025,-1.1819,0.0,-1.0769,0.0,-1.025,-1.0381,-0.8875,-0.824,-0.92,-0.8613,0.0,0.0,0.0,0.0,0.0,0.0,0.0,0.0,-1.0696,0.0,-1.3321,-1.2303,-1.2338,-1.3511,-1.3731,-1.3884,-1.4047,-1.4472,-1.4872,-1.518,-1.5099,-1.5178,-1.5321,-1.5073,-1.5428,-1.6009,-1.4716,-1.5147,-1.6342,-1.5053,-1.4981,-1.5627,-1.6113,-1.6969,-1.7511,-1.6607,-1.6498,-1.6462,-1.6097,-1.5676,-1.5498,-1.5775,-1.6453,-1.6815,-1.6658,-1.7021,0.0,-1.6501,-1.5591,-1.5228,-1.564,-1.4937,-1.4726,-1.5183,-1.4479,-1.4081,-1.4017,-1.3507,-1.3108,-1.2917,-1.3224,-1.3438,-1.3562,-1.3305,-1.3441,-1.3831,-1.3143,-1.2861,-1.2772,-1.2074,-1.1782,-1.181,-1.1748,-1.1756,-1.181,-1.188,-1.1872,-1.1779,-1.1584,-1.1529,-1.156,-1.1185,-1.1028,-1.0996,-1.0776,-1.1202,-1.1756,-1.149,-1.2366,-1.3205,-1.2351,-1.2771,-1.3446,-1.3425,-1.3295,-1.3188,-1.3485,-1.3235,-1.3023,-1.3364,-1.3252,-1.2978,-1.2673,-1.2948,-1.2722,-1.1131,-1.1859,-1.2241,-1.1242,0.0,-1.0425,0.0,0.0,-0.8097,0.0,-0.8652,-0.8321,0.0,0.0,0.0,0.0,0.0,-1.0116,-1.1305,-1.1555,-1.2232,-1.344,-1.2517,-1.2273,-1.2742,-1.3048,-1.3292,-1.3528,-1.4098,-1.4367,-1.4394,-1.4537,-1.4601,-1.4601,-1.443,-1.4867,-1.5444,-1.4178,-1.4588,-1.5726,-1.4577,-1.4504,-1.5073,-1.7073,-1.6835,-1.6584,-1.6419,-1.6028,-1.5547,-1.4943,-1.484,-1.4718,-1.4467,-1.5269,-1.5755,-1.538,-1.5872,-1.6068,-1.5621,0.0,0.0,-1.4573,-1.4407,-1.4257,-1.4125,-1.3749,-1.3676,-1.4032,-1.2664,-1.2285,-1.2987,-1.2877,-1.2978,-1.3258,-1.3509,-1.317,-1.2365,-1.2557,-1.2291,-1.1635,-1.1614,-1.1631,-1.1646,-1.1529,-1.1553,-1.1709,-1.1872,-1.1553,-1.1021,-1.1209,-1.109,-1.0839,-1.0688,-1.0624,-1.06,-1.0588,-1.0588,-1.0588,-1.0751,-1.1132,-1.1485,-1.1454,-1.1904,-1.2411,-1.2411,-1.2411,-1.2419,-1.2419,-1.238,-1.235,-1.238,-1.271,-1.2848,-1.2297,-1.2458,-1.2489,-1.2012,-1.143,-1.1084,-1.1182,-1.0102,-0.9292,0.0,0.0,-0.7608,-0.8645,-0.896,-0.9075,0.0,0.0,0.0,0.0,0.0,-0.8608,-0.9919,-1.0391,-1.0885,-1.1464,-1.1464,-1.1503,-1.1527,-1.2182,-1.2616,-1.2903,-1.393,-1.4083,-1.3535,-1.4214,-1.4494,-1.4502,-1.4114,-1.4446,-1.5089,-1.4266,-1.446,-1.5147,-1.5073,-1.4821,-1.453,-1.5027,-1.585,-1.635,-1.5484,-1.5706,-1.5888,-1.5522,-1.529,-1.5002,-1.4747,-1.4874,-1.4907,-1.467,-1.4609,-1.4531,-1.4421,-1.3893,-1.3745,-1.4114,-1.312,-1.2778,-1.3425,-1.2876,-1.2449,-1.2308,-1.2336,-1.2851,-1.3813,-1.379,-1.3801,-1.3876,-1.3324,-1.2968,-1.2696,-1.1667,-1.1169,-1.1073,-1.0725,-1.0463,-1.0276,-1.0364,-1.0396,-1.0421,-1.0491,-1.0643,-1.0863,-1.0902,-1.1115,-1.1341,-1.0902,-1.0744,-1.0721,-1.0562,-1.0437,-1.0327,-1.0596,-1.1038,-1.1392,-1.0951,-1.1094,-1.1353,-1.1375,-1.1469,-1.1562,-1.1562,-1.1195,-1.0912,-1.1281,-1.1163,-1.1076,-1.1327,-1.1327,-1.1233,-1.1108,-1.0794,-1.0207,-0.9188,-0.8705,-0.8213,0.0,-0.738,-0.7621,-0.8272,-0.8764,-0.88,0.0,0.0,-0.867,-0.8894,-0.9603,-1.0505,-1.1519,-1.2348,-1.2606,-1.2225,-1.2225,-1.2135,-1.1886,-1.1549,-1.1804,-1.2586,-1.2579,-1.2885,-1.3484,-1.3368,-1.3477,-1.3739,-1.3666,-1.4065,-1.4669,-1.392,-1.3965,-1.4426,-1.3887,-1.3521,-1.3337,-1.4804,-1.5283,-1.5636,-1.5236,-1.5444,-1.5591,-1.5464,-1.5048,-1.4605,-1.4254,-1.4156,-1.4062,-1.3935,-1.3886,-1.3816,-1.3682,-1.3281,-1.3133,-1.343,-1.259,-1.2283,-1.2776,-1.2333,-1.2098,-1.2114,-1.1999,-1.2372,-1.3222,-1.3368,-1.3397,-1.3404,-1.2966,-1.2636,-1.2328,-1.1511,-1.1047,-1.0873,-1.0619,-1.0422,-1.0276,-1.0269,-1.0301,-1.0396,-1.0548,-1.0674,-1.0807,-1.0807,-1.0996,-1.1153,-1.0618,-1.0428,-1.0449,-1.0482,-1.0318,-1.0197,-1.06,-1.0816,-1.0798,-1.0372,-1.0326,-1.044,-1.0326,-1.0396,-1.0491,-1.0491,-1.0269,-1.0149,-1.0396,-1.0491,-1.0618,-1.0902,-1.0965,-1.0853,-1.0529,-0.9912,-0.9015,-0.7716,-0.7483,-0.7395,-0.7197,-0.7296,-0.7798,-0.8784,-0.8872,-0.8801,-0.8681,-0.8557,0.0,-0.9471,-1.0076,-1.0948,-1.2052,-1.2998,-1.3253,-1.2717,-1.2067,-1.1704,-1.1655,-1.1116,-1.1316,-1.2136,-1.1919,-1.2115,-1.2673,-1.2452,-1.2489,-1.2673,-1.2863,-1.3339,-1.3884,-1.3229,-1.3302,-1.368,-1.2811,-1.2701,-1.3004,-1.535,-1.5016,-1.4879,-1.5302,-1.5181,-1.5031,-1.506,-1.4507,-1.3938,-1.3529,-1.3441,-1.3355,-1.3307,-1.3519,-1.3555,-1.3315,-1.3041,-1.2866,-1.2857,-1.2569,-1.2371,-1.2371,-1.214,-1.215,-1.2562,-1.184,-1.1716,-1.2301,-1.2513,-1.2636,-1.2636,-1.2599,-1.2298,-1.1744,-1.1662,-1.1357,-1.088,-1.0914,-1.0882,-1.078,-1.0685,-1.0717,-1.0869,-1.1104,-1.1028,-1.0776,-1.0776,-1.0776,-1.0713,-1.0238,-1.0079,-1.0136,-1.0527,-1.0405,-1.0212,-1.0802,-1.0655,-1.0217,-0.9961,-0.9867,-0.9804,-0.9612,-0.958,-0.958,-0.958,-0.9708,-0.983,-0.983,-1.0308,-1.0713,-1.0713,-1.0839,-1.0673,-0.994,-0.892,-0.7822,-0.6693,-0.661,-0.6925,-0.7661,-0.7725,-0.8281,-0.9697,-0.9258,-0.9131,-0.9659,-0.9114,-0.9283,-1.0605,-1.0453,-1.0875,-1.2004,-1.2837,-1.3079,-1.2721,-1.1457,-1.0978,-1.1329,-1.1006,-1.1149,-1.1744,-1.1706,-1.1744,-1.1818,-1.1781,-1.1818,-1.1892,-1.2335,-1.2783,-1.3119,-1.2709,-1.2746,-1.2908,-1.1988,-1.2236,-1.2932,-1.5172,-1.5077,-1.5083,-1.5124,-1.492,-1.4742,-1.4743,-1.4115,-1.3592,-1.3505,-1.3305,-1.3052,-1.2833,-1.3179,-1.3421,-1.3377,-1.3289,-1.3199,-1.3153,-1.2884,-1.2717,-1.2717,-1.2252,-1.2114,-1.2342,-1.2221,-1.2348,-1.2793,-1.2835,-1.2863,-1.2863,-1.2673,-1.2378,-1.1959,-1.1537,-1.1179,-1.0921,-1.1018,-1.0926,-1.0725,-1.0889,-1.0961,-1.096,-1.0782,-1.0688,-1.0618,-1.0618,-1.0618,-1.0624,-1.053,-1.0498,-1.0591,-1.1088,-1.0955,-1.0692,-1.1187,-1.0987,-1.0586,-1.0416,-1.0166,-0.9958,-0.9926,-0.9919,-0.9919,-0.9919,-0.9951,-0.9958,-0.9958,-1.018,-1.0364,-1.0364,-1.0269,-0.9819,-0.8738,-0.7958,-0.7174,-0.63,-0.6617,-0.7302,-0.8248,-0.8882,-0.9565,-1.0308,-1.0071,-0.9954,-1.0107,-0.9948,-1.0037,-1.0439,-1.1088,-1.1558,-1.1768,-1.1963,-1.1838,-1.1389,-1.1011,-1.1048,-1.155,-1.1478,-1.162,-1.1966,-1.1781,-1.1966,-1.2452,-1.2268,-1.2415,-1.2746,-1.3324,-1.3331,-1.2973,-1.3397,-1.2996,-1.2187,-1.1987,-1.2044,-1.2174,-1.5356,-1.5309,-1.5309,-1.5309,-1.507,-1.4824,-1.4532,-1.3938,-1.3405,-1.3126,-1.2955,-1.2839,-1.2705,-1.3009,-1.3222,-1.3222,-1.3403,-1.3489,-1.3476,-1.3167,-1.2958,-1.279,-1.2461,-1.2241,-1.2157,-1.2224,-1.2378,-1.2562,-1.2562,-1.2562,-1.2562,-1.2489,-1.2342,-1.2144,-1.1939,-1.1686,-1.1425,-1.1488,-1.1266,-1.087,-1.1129,-1.1042,-1.0794,-1.0814,-1.0727,-1.0593,-1.0593,-1.0593,-1.0593,-1.0593,-1.0593,-1.0667,-1.1056,-1.0929,-1.0751,-1.1262,-1.0976,-1.0464,-1.0406,-1.0213,-0.9983,-0.9983,-1.0065,-1.0113,-1.0113,-1.0113,-1.0157,-1.0301,-1.0345,-1.0399,-1.0497,-1.0308,-0.998,-0.9593,-0.852,-0.765,-0.7417,-0.7829,-0.8265,-0.8657,-0.967,-1.0516,-1.0946,-1.0723,-1.0553,-1.0553,-1.0655,-1.0707,-1.0779,-1.123,-1.1549,-1.1698,-1.2143,-1.21,-1.1482,-1.1349,-1.1507,-1.1913,-1.1519,-1.1557,-1.1942,-1.1664,-1.1632,-1.1781,-1.1706,-1.1744,-1.1966,-1.2218,-1.2365,-1.2415,-1.2365,-1.2218,-1.1946,-1.1401,-1.1543,-1.192,-1.5588,-1.5588,-1.5588,-1.5588,-1.5304,-1.495,-1.454,-1.3938,-1.3336,-1.2954,-1.2826,-1.279,-1.2705,-1.2924,-1.3094,-1.3094,-1.344,-1.3652,-1.3695,-1.3538,-1.328,-1.3005,-1.2704,-1.2378,-1.1935,-1.215,-1.2305,-1.2305,-1.2305,-1.2305,-1.2305,-1.2305,-1.2305,-1.2298,-1.2231,-1.2078,-1.1906,-1.1906,-1.1645,-1.1216,-1.1436,-1.1263,-1.0908,-1.0995,-1.0855,-1.068,-1.062,-1.0593,-1.0593,-1.0593,-1.0593,-1.064,-1.0935,-1.0827,-1.0693,-1.1176,-1.0877,-1.0405,-1.0405,-1.029,-1.0179,-1.0179,-1.0271,-1.0334,-1.0334,-1.0334,-1.039,-1.0595,-1.0572,-1.0556,-1.0689,-1.0528,-1.034,-1.0277,-0.9148,-0.8374,-0.8679,-0.8955,-0.9227,-0.9553,-1.0547,-1.1294,-1.1495,-1.1346,-1.1185,-1.1127,-1.1318,-1.142,-1.1389,-1.1467,-1.1567,-1.1678,-1.2265,-1.2301,-1.1785,-1.1745,-1.1859,-1.2196,-1.1589,-1.1527,-1.1959,-1.1583,-1.1335,-1.1186,-1.1111,-1.1111,-1.1111,-1.126,-1.1484,-1.1744,-1.1446,-1.1521,-1.1681,-1.0931,-1.1162,-1.1743,-1.5784,-1.5784,-1.5784,-1.5784,-1.5398,-1.5107,-1.5041,-1.4155,-1.3492,-1.343,-1.3207,-1.2966,-1.2747,-1.2924,-1.3094,-1.3094,-1.3307,-1.3483,-1.3695,-1.3915,-1.3888,-1.3547,-1.3039,-1.2454,-1.175,-1.2114,-1.2305,-1.2305,-1.2305,-1.2305,-1.2305,-1.2305,-1.2305,-1.2291,-1.206,-1.1926,-1.1906,-1.1906,-1.1879,-1.1846,-1.1866,-1.1846,-1.1752,-1.1223,-1.0982,-1.0922,-1.0687,-1.0593,-1.0593,-1.0593,-1.0593,-1.064,-1.0935,-1.0827,-1.0653,-1.0929,-1.0863,-1.0659,-1.0659,-1.072,-1.0741,-1.0741,-1.076,-1.0773,-1.0773,-1.0773,-1.0745,-1.0764,-1.0792,-1.0773,-1.0773,-1.0814,-1.0514,-0.9488,-0.9043,-0.8979,-0.9383,-0.9285,-0.9813,-1.1497,-1.1762,-1.1837,-1.1873,-1.2078,-1.2088,-1.1857,-1.2084,-1.2208,-1.2198,-1.2234,-1.2048,-1.1625,-1.1536,-1.1583,-1.1712,-1.17,-1.1859,-1.2196,-1.2003,-1.2016,-1.2152,-1.1659,-1.1409,-1.1372,-1.1186,-1.1111,-1.1149,-1.1706,-1.1632,-1.1223,-1.1744,-1.1632,-1.1143,-1.1087,-1.1236,-1.1471,-1.5784,-1.5784,-1.5784,-1.5784,-1.5398,-1.5114,-1.5114,-1.4456,-1.3875,-1.3523,-1.3411,-1.3194,-1.2765,-1.279,-1.2924,-1.3094,-1.3264,-1.3483,-1.3695,-1.3955,-1.3871,-1.3408,-1.3027,-1.2623,-1.222,-1.2249,-1.2305,-1.2305,-1.2305,-1.2305,-1.2305,-1.2305,-1.2305,-1.2298,-1.2184,-1.2138,-1.2138,-1.2138,-1.2037,-1.1919,-1.2064,-1.1917,-1.159,-1.1584,-1.1343,-1.0982,-1.0868,-1.0747,-1.0593,-1.0593,-1.0593,-1.0613,-1.072,-1.068,-1.0613,-1.0727,-1.0725,-1.0698,-1.0738,-1.0791,-1.0805,-1.0805,-1.0867,-1.0922,-1.0922,-1.0816,-1.0794,-1.096,-1.0963,-1.0958,-1.1099,-1.1134,-1.1102,-1.0912,-1.0563,-1.0476,-1.0924,-1.1046,-1.127,-1.183,-1.2175,-1.2247,-1.1992,-1.2048,-1.2074,-1.1962,-1.2054,-1.215,-1.2298,-1.2187,-1.2031,-1.1846,-1.1686,-1.1587,-1.1633,-1.1808,-1.2115,-1.2561,-1.2296,-1.2241,-1.2382,-1.1846,-1.1521,-1.1409,-1.1186,-1.1111,-1.1111,-1.1335,-1.1298,-1.1111,-1.1335,-1.1298,-1.1074,-1.0962,-1.1051,-1.1138,-1.6069,-1.6069,-1.6069,-1.6069,-1.5806,-1.5578,-1.5578,-1.514,-1.4572,-1.3983,-1.373,-1.3399,-1.2778,-1.2705,-1.279,-1.31,-1.3264,-1.3483,-1.3695,-1.3955,-1.3871,-1.3326,-1.3127,-1.2868,-1.2504,-1.2477,-1.2398,-1.2305,-1.2305,-1.2305,-1.2298,-1.2204,-1.2218,-1.2298,-1.2204,-1.2218,-1.2268,-1.204,-1.1819,-1.162,-1.1587,-1.1283,-1.0951,-1.1259,-1.1097,-1.0769,-1.0856,-1.076,-1.0593,-1.0593,-1.0593,-1.0606,-1.0636,-1.069,-1.0763,-1.0828,-1.0903,-1.1004,-1.106,-1.1071,-1.1064,-1.0993,-1.1102,-1.1209,-1.1209,-1.1094,-1.1077,-1.1261,-1.1261,-1.1275,-1.139,-1.1499,-1.1607,-1.1896,-1.1695,-1.1671,-1.1977,-1.2163,-1.219,-1.2053,-1.2338,-1.2412,-1.2127,-1.204,-1.2003,-1.2003,-1.2003,-1.2077,-1.2187,-1.2003,-1.1892,-1.1818,-1.1632,-1.1396,-1.1173,-1.1744,-1.2252,-1.2654,-1.2222,-1.2126,-1.2282,-1.163,-1.1232,-1.1113,-1.096,-1.0812,-1.0619,-1.0619,-1.0507,-1.0357,-1.0357,-1.0357,-1.0319,-1.0169,-1.0275,-1.0381,-1.6588,-1.6588,-1.6588,-1.6588,-1.6588,-1.6588,-1.6581,-1.613,-1.5552,-1.4772,-1.4211,-1.3616,-1.2778,-1.2705,-1.279,-1.3094,-1.3313,-1.3483,-1.3695,-1.3955,-1.3871,-1.3326,-1.3484,-1.324,-1.2529,-1.2707,-1.2643,-1.2305,-1.2305,-1.2305,-1.2291,-1.2004,-1.2024,-1.2285,-1.1997,-1.2031,-1.2224,-1.1446,-1.1074,-1.1037,-1.0233,-0.9895,-0.9916,-1.0131,-1.0217,-1.0248,-1.051,-1.0593,-1.0593,-1.0593,-1.0593,-1.0615,-1.0673,-1.0887,-1.1149,-1.1327,-1.1497,-1.1579,-1.1585,-1.1649,-1.1626,-1.1446,-1.1558,-1.1706,-1.1706,-1.1706,-1.1706,-1.1706,-1.1676,-1.1676,-1.1676,-1.1861,-1.1972,-1.1972,-1.2157,-1.2268,-1.2268,-1.2339,-1.2342,-1.2301,-1.2346,-1.2373,-1.2294,-1.2114,-1.2003,-1.2003,-1.2009,-1.2009,-1.2009,-1.1824,-1.1601,-1.1416,-1.1192,-1.0781,-1.0186,-1.1465,-1.2129,-1.2286,-1.1754,-1.1642,-1.1869,-1.0914,-1.0495,-1.0517,-1.0513,-1.0137,-0.9599,-0.9599,-0.9263,-0.8703,-0.8703,-0.8703,-0.8703,-0.8703,-0.8833,-0.9081,-1.6588,-1.6588,-1.6588,-1.6588,-1.6588,-1.6465,-1.6077,-1.592,-1.5445,-1.4495,-1.4226,-1.3883,-1.3253,-1.3307,-1.3434,-1.3519,-1.3743,-1.3913,-1.3997,-1.4006,-1.4021,-1.4053,-1.3789,-1.352,-1.33,-1.2959,-1.2674,-1.2443,-1.2188,-1.2077,-1.207,-1.1824,-1.1916,-1.2248,-1.142,-1.1192,-1.1409,-1.0614,-1.0271,-1.0239,-1.0008,-1.0239,-1.0734,-1.0587,-1.0765,-1.1035,-1.0936,-1.0767,-1.0593,-1.0593,-1.0631,-1.0679,-1.0765,-1.0844,-1.0877,-1.0785,-1.0696,-1.0598,-1.0481,-1.0542,-1.0736,-1.1434,-1.1669,-1.1706,-1.1706,-1.1363,-1.1071,-1.1071,-1.0823,-1.0633,-1.0802,-1.0869,-1.0886,-1.0947,-1.0885,-1.0783,-1.0637,-1.064,-1.0619,-1.0614,-1.114,-1.1352,-1.108,-1.1484,-1.1744,-1.1595,-1.1897,-1.2139,-1.233,-1.1712,-1.1319,-1.1241,-1.057,-1.0094,-0.9941,-1.0335,-1.0593,-1.0611,-1.0437,-1.0556,-1.0825,-1.0412,-1.0234,-1.0188,-1.0086,-0.9896,-0.9722,-0.9492,-0.9272,-0.9106,-0.8799,-0.8703,-0.8699,-0.8542,-0.9067,-0.9697,-1.6817,-1.6824,-1.6777,-1.6864,-1.6534,-1.629,-1.639,-1.5749,-1.5179,-1.4999,-1.448,-1.4002,-1.387,-1.3753,-1.3737,-1.3864,-1.4075,-1.4124,-1.3828,-1.4109,-1.4124,-1.3753,-1.3693,-1.372,-1.3886,-1.3364,-1.3042,-1.29,-1.228,-1.2068,-1.2179,-1.1447,-1.1331,-1.1657,-1.0682,-1.0383,-1.0576,-0.975,-0.941,-0.941,-0.9064,-0.9258,-0.9691,-0.9721,-1.0047,-1.0457,-1.0615,-1.0712,-1.078,-1.0894,-1.0762,-1.056,-1.0544,-1.0557,-1.0585,-1.0614,-1.0548,-1.0381,-1.0204,-1.0191,-1.0383,-1.1027,-1.1411,-1.1633,-1.163,-1.1352,-1.1022,-1.0794,-1.0487,-1.0308,-1.0536,-1.0467,-1.0431,-1.0451,-1.0351,-1.0224,-1.0113,-1.0059,-1.0065,-1.0013,-1.0473,-1.0687,-1.0406,-1.0959,-1.13,-1.1187,-1.1173,-1.131,-1.1542,-1.099,-1.0711,-1.0803,-1.006,-0.9611,-0.9491,-0.9344,-0.9513,-1.0024,-0.9862,-0.9889,-1.0055,-0.9768,-0.9611,-0.9606,-0.9565,-0.9445,-0.9186,-0.8826,-0.8546,-0.8286,-0.7902,-0.7778,-0.7866,-0.7744,-0.8333,-0.9118,-1.6814,-1.6796,-1.6669,-1.6915,-1.6149,-1.5772,-1.6659,-1.5332,-1.46,-1.5672,-1.471,-1.4054,-1.4359,-1.3979,-1.3822,-1.4082,-1.43,-1.4119,-1.3476,-1.4168,-1.4028,-1.2747,-1.3307,-1.3809,-1.4123,-1.364,-1.3325,-1.3298,-1.2309,-1.201,-1.2338,-1.0972,-1.0491,-1.0723,-0.9832,-0.9585,-0.9744,-0.8927,-0.8589,-0.8508,-0.7787,-0.7561,-0.7655,-0.8143,-0.8594,-0.9146,-0.9834,-1.0402,-1.087,-1.1124,-1.0814,-1.0331,-1.013,-1.0105,-1.0218,-1.0538,-1.0597,-1.0465,-1.0202,-1.0095,-1.0115,-1.0156,-1.0681,-1.12,-1.141,-1.1381,-1.1166,-1.0653,-1.0362,-1.0234,-1.0366,-1.0228,-1.0121,-1.01,-1.01,-1.009,-1.007,-1.004,-0.9968,-0.9922,-1.0037,-1.0084,-1.0079,-1.0444,-1.0723,-1.0746,-1.0169,-0.9938,-1.0116,-0.9917,-0.9888,-1.0122,-0.9681,-0.9257,-0.8985,-0.8559,-0.8879,-1.0018,-0.9618,-0.9458,-0.951,-0.9046,-0.8831,-0.8861,-0.9037,-0.8796,-0.8267,-0.789,-0.7421,-0.6885,-0.6556,-0.6509,-0.6663,-0.6648,-0.7163,-0.7868,-1.4752,-1.4259,-1.3802,-1.4219,-1.3561,-1.2944,-1.3038,-1.2974,-1.2866,-1.2785,-1.3513,-1.393,-1.3667,-1.3673,-1.388,-1.4314,-1.431,-1.4111,-1.3675,-1.3765,-1.3483,-1.2735,-1.3003,-1.3042,-1.2836,-1.2451,-1.2032,-1.1536,-1.0913,-1.0779,-1.1141,-1.0329,-1.0149,-1.0517,-0.9473,-0.8992,-0.8927,-0.8089,-0.7748,-0.7748,-0.7557,-0.7863,-0.8414,-0.8324,-0.876,-0.9371,-0.9295,-0.9331,-0.9465,-0.9603,-0.9778,-0.9916,-0.9962,-0.9795,-0.965,-0.9576,-0.9027,-0.8395,-0.817,-0.7916,-0.7775,-0.8255,-0.8526,-0.9063,-1.0538,-1.0398,-0.9835,-0.9518,-0.8879,-0.8308,-0.821,-0.7969,-0.7818,-0.7901,-0.7747,-0.7613,-0.7447,-0.7593,-0.7704,-0.771,-0.8266,-0.8724,-0.8937,-0.958,-1.0095,-1.0311,-1.0206,-1.0228,-1.0484,-0.9943,-0.9665,-0.9707,-0.9113,-0.8766,-0.8678,-0.8597,-0.8523,-0.8462,-0.8375,-0.8513,-0.8823,-0.8545,-0.8416,-0.8403,-0.8301,-0.8259,-0.8299,-0.8077,-0.7918,-0.7723,-0.7375,-0.7151,-0.706,-0.688,-0.7441,-0.8298,-1.3317,-1.296,-1.2662,-1.3073,-1.2236,-1.1691,-1.2109,-1.1549,-1.1405,-1.2398,-1.2513,-1.278,-1.34,-1.3318,-1.333,-1.3591,-1.3629,-1.3435,-1.2912,-1.3161,-1.289,-1.1935,-1.2113,-1.1879,-1.1133,-1.1125,-1.1244,-1.1473,-1.0705,-1.0543,-1.0864,-0.9865,-0.9512,-0.9584,-0.8665,-0.8295,-0.8389,-0.7961,-0.7766,-0.7766,-0.7766,-0.7906,-0.8122,-0.7983,-0.8328,-0.8931,-0.8989,-0.9129,-0.9275,-0.9088,-0.9014,-0.8931,-0.8841,-0.8717,-0.8585,-0.8431,-0.8033,-0.7617,-0.7358,-0.7154,-0.7068,-0.7402,-0.7508,-0.7829,-0.9034,-0.9081,-0.8754,-0.8363,-0.7853,-0.7473,-0.7458,-0.7279,-0.7115,-0.7168,-0.7151,-0.7166,-0.7044,-0.7183,-0.7304,-0.7304,-0.7678,-0.818,-0.8805,-0.8893,-0.9119,-0.9672,-0.9341,-0.9095,-0.91,-0.8803,-0.85,-0.8277,-0.8025,-0.7984,-0.8201,-0.8113,-0.8158,-0.8284,-0.8375,-0.8562,-0.8736,-0.8766,-0.8713,-0.8577,-0.8472,-0.8438,-0.8438,-0.8212,-0.8002,-0.7815,-0.7506,-0.7306,-0.7202,-0.7065,-0.7281,-0.7627,-1.1981,-1.1851,-1.1672,-1.1976,-1.1025,-1.057,-1.1539,-1.044,-1.0203,-1.2229,-1.1619,-1.1436,-1.2728,-1.2613,-1.2443,-1.2351,-1.2699,-1.2656,-1.1972,-1.2485,-1.2149,-1.0829,-1.1054,-1.0689,-0.9536,-0.9993,-1.0648,-1.1495,-1.0686,-1.0468,-1.0673,-0.9597,-0.8982,-0.8807,-0.8117,-0.8012,-0.8316,-0.8242,-0.8229,-0.8229,-0.8229,-0.7956,-0.7599,-0.7599,-0.7883,-0.8287,-0.86,-0.887,-0.9076,-0.8666,-0.825,-0.7918,-0.7724,-0.7578,-0.7451,-0.7453,-0.7312,-0.7139,-0.6922,-0.6874,-0.6874,-0.6874,-0.6874,-0.7051,-0.7441,-0.779,-0.797,-0.7472,-0.7248,-0.7136,-0.7218,-0.709,-0.6962,-0.6962,-0.718,-0.7312,-0.7312,-0.7378,-0.7472,-0.7472,-0.7515,-0.7897,-0.8743,-0.8289,-0.8186,-0.8926,-0.8293,-0.7808,-0.758,-0.7533,-0.7312,-0.6912,-0.7048,-0.7312,-0.7746,-0.7548,-0.7815,-0.8504,-0.8655,-0.879,-0.8863,-0.9104,-0.9086,-0.8907,-0.8811,-0.8737,-0.8626,-0.8324,-0.806,-0.7825,-0.753,-0.7324,-0.7159,-0.7052,-0.6852,-0.6655,-0.9891,-0.9258,-0.8776,-0.9312,-0.8336,-0.7658,-0.8309,-0.8898,-0.9226,-0.9228,-1.0608,-1.1247,-1.0408,-1.1011,-1.1348,-1.0913,-1.2035,-1.2473,-1.18,-1.1843,-1.1241,-0.9864,-1.0221,-0.9932,-0.8764,-0.9577,-0.9841,-0.9419,-0.9505,-0.9543,-0.9526,-0.9421,-0.9311,-0.9283,-0.9202,-0.918,-0.9194,-0.8852,-0.8699,-0.8699,-0.8699,-0.8425,-0.8025,-0.8025,-0.8046,-0.8067,-0.7591,-0.7313,-0.7164,-0.7107,-0.7342,-0.767,-0.7808,-0.744,-0.6929,-0.7088,-0.6567,-0.5952,-0.5911,-0.5905,-0.5897,-0.5897,-0.6077,-0.626,-0.6302,-0.7003,-0.7576,-0.743,-0.7248,-0.6969,-0.6589,-0.6532,-0.6476,-0.6476,-0.6517,-0.6561,-0.6561,-0.6773,-0.6899,-0.6899,-0.7251,-0.7471,-0.7372,-0.7705,-0.7933,-0.8082,-0.7973,-0.7896,-0.7852,-0.7625,-0.7489,-0.7397,-0.7228,-0.7224,-0.7533,-0.7404,-0.7537,-0.7984,-0.8092,-0.8311,-0.8627,-0.8742,-0.8873,-0.8974,-0.8436,-0.8488,-0.8939,-0.8702,-0.8576,-0.8557,-0.8332,-0.7758,-0.6958,-0.6436,-0.6211,-0.6215,-0.8637,-0.8336,-0.8067,-0.8343,-0.7862,-0.7423,-0.7451,-0.7813,-0.8124,-0.8251,-0.9035,-0.9537,-0.9397,-0.9598,-0.9749,-0.9836,-1.0269,-1.0486,-1.0323,-1.0193,-0.985,-0.9244,-0.9143,-0.8789,-0.8106,-0.8824,-0.8762,-0.7831,-0.9006,-0.9327,-0.8919,-0.9082,-0.9108,-0.9006,-0.8995,-0.9234,-0.9544,-0.895,-0.8683,-0.8581,-0.8173,-0.7851,-0.7565,-0.7173,-0.7288,-0.7539,-0.725,-0.6871,-0.6569,-0.7026,-0.7066,-0.6939,-0.7198,-0.7048,-0.6789,-0.6741,-0.6435,-0.6083,-0.6083,-0.608,-0.6074,-0.6074,-0.6166,-0.6302,-0.6438,-0.6853,-0.713,-0.6886,-0.6786,-0.665,-0.6428,-0.6384,-0.6384,-0.6384,-0.652,-0.6612,-0.6612,-0.6833,-0.6966,-0.6966,-0.7146,-0.7323,-0.7496,-0.7452,-0.7531,-0.7755,-0.759,-0.7358,-0.7175,-0.7146,-0.701,-0.6745,-0.6697,-0.6871,-0.7272,-0.7122,-0.7301,-0.7852,-0.7861,-0.8083,-0.8368,-0.8558,-0.8602,-0.8526,-0.8284,-0.82,-0.8262,-0.8182,-0.7927,-0.7597,-0.757,-0.714,-0.6458,-0.6128,-0.5787,-0.5595]}]]